[[{"header":{"parameterUnit":"m.s-1","parameterCategory":1,"la1":30.6,"la2":29.2853,"lo1":-89.7004,"lo2":-87.6739,"dy":0.0162,"dx":0.0183,"nx":112,"ny":82,"refTime":"2024-03-05T18:00:00:Z","depth":0,"parameterNumber":2,"parameterNumberName":"U-component_of_WINDS"},"data":[0.0,0.0,0.0,0.0,0.0,0.0,0.0,0.0,0.0,0.0,0.0,0.0,0.0,0.0,0.0,0.0,0.0,0.0,0.0,0.0,0.0,0.0,0.0,0.0,0.0,0.0,0.0,0.0,0.0,0.0,0.0,0.0,0.0,0.0,0.0,0.0,0.0,0.0,0.0,0.0,0.0,0.0,0.0,0.0,0.0,0.0,0.0,0.0,0.0,0.0,0.0,0.0,0.0,0.0,0.0,0.0,0.0,0.0,0.0,0.0,0.0,0.0,0.0,0.0,0.0,0.0,0.0,0.0,0.0,0.0,0.0,0.0,0.0,0.0,0.0,0.0,0.0,0.0,0.0,0.0,0.0,0.0,0.0,0.0,0.0,0.0,0.0,0.0,0.0,0.0,-2.4835,-2.6888,-2.9218,-3.0233,-2.9375,-2.765,-2.5595,-2.3135,0.0,0.0,0.0,0.0,0.0,0.0,0.0,0.0,0.0,0.0,0.0,0.0,0.0,0.0,0.0,0.0,0.0,0.0,0.0,0.0,0.0,0.0,0.0,0.0,0.0,0.0,0.0,0.0,0.0,0.0,0.0,0.0,0.0,0.0,0.0,0.0,0.0,0.0,0.0,0.0,0.0,0.0,0.0,0.0,0.0,0.0,0.0,0.0,0.0,0.0,0.0,0.0,0.0,0.0,0.0,0.0,0.0,0.0,0.0,0.0,0.0,0.0,0.0,0.0,0.0,0.0,0.0,0.0,0.0,0.0,0.0,0.0,0.0,0.0,0.0,0.0,0.0,0.0,0.0,0.0,0.0,0.0,0.0,0.0,0.0,0.0,0.0,0.0,0.0,0.0,0.0,0.0,0.0,0.0,0.0,0.0,0.0,0.0,0.0,0.0,0.0,0.0,0.0,0.0,-2.4492,-2.7651,-2.9022,-2.9336,-2.8475,-2.6786,-2.5002,-2.3101,0.0,0.0,0.0,0.0,0.0,0.0,0.0,0.0,0.0,0.0,0.0,0.0,0.0,0.0,0.0,0.0,0.0,0.0,0.0,0.0,0.0,0.0,0.0,0.0,0.0,0.0,0.0,0.0,0.0,0.0,0.0,0.0,0.0,0.0,0.0,0.0,0.0,0.0,0.0,0.0,0.0,0.0,0.0,0.0,0.0,0.0,0.0,0.0,0.0,0.0,0.0,0.0,0.0,0.0,0.0,0.0,0.0,0.0,0.0,0.0,0.0,0.0,0.0,0.0,0.0,0.0,0.0,0.0,0.0,0.0,0.0,0.0,0.0,0.0,0.0,0.0,0.0,0.0,0.0,0.0,0.0,0.0,0.0,0.0,0.0,0.0,0.0,0.0,0.0,0.0,0.0,0.0,0.0,0.0,0.0,0.0,0.0,0.0,0.0,0.0,0.0,0.0,0.0,-2.3515,-2.5077,-2.853,-2.8431,-2.8125,-2.8242,-2.5778,-2.389,-2.3069,-2.2111,0.0,0.0,0.0,0.0,0.0,0.0,0.0,0.0,0.0,0.0,0.0,0.0,0.0,0.0,0.0,0.0,0.0,0.0,0.0,0.0,0.0,0.0,0.0,0.0,0.0,0.0,0.0,0.0,0.0,0.0,0.0,0.0,0.0,0.0,0.0,0.0,0.0,0.0,0.0,0.0,0.0,0.0,0.0,0.0,0.0,0.0,0.0,0.0,0.0,0.0,0.0,0.0,0.0,0.0,0.0,0.0,0.0,0.0,0.0,0.0,0.0,0.0,0.0,0.0,0.0,0.0,0.0,0.0,0.0,0.0,0.0,0.0,0.0,0.0,0.0,0.0,0.0,0.0,0.0,0.0,0.0,0.0,0.0,0.0,0.0,0.0,0.0,0.0,0.0,0.0,0.0,0.0,0.0,0.0,0.0,0.0,0.0,0.0,0.0,0.0,0.0,0.0,-2.4407,-2.5258,-2.8548,-2.7676,-2.7183,-2.7929,-2.5,-2.3081,-2.302,-2.1246,0.0,0.0,0.0,0.0,0.0,0.0,0.0,0.0,0.0,0.0,0.0,0.0,0.0,0.0,0.0,0.0,0.0,0.0,0.0,0.0,0.0,0.0,0.0,0.0,0.0,0.0,0.0,0.0,0.0,0.0,0.0,0.0,0.0,0.0,0.0,0.0,0.0,0.0,0.0,0.0,0.0,0.0,0.0,0.0,0.0,0.0,0.0,0.0,0.0,0.0,0.0,0.0,0.0,0.0,0.0,0.0,0.0,0.0,0.0,0.0,0.0,0.0,0.0,0.0,0.0,0.0,0.0,0.0,0.0,0.0,0.0,0.0,0.0,0.0,0.0,0.0,0.0,0.0,0.0,0.0,0.0,0.0,0.0,0.0,0.0,0.0,0.0,0.0,0.0,0.0,0.0,0.0,0.0,0.0,0.0,0.0,0.0,0.0,0.0,0.0,0.0,0.0,-2.3231,-2.4183,-2.6817,-2.6961,-2.6952,-2.7093,-2.4646,-2.3082,-2.301,-2.0678,0.0,0.0,0.0,0.0,0.0,0.0,0.0,0.0,0.0,0.0,0.0,0.0,0.0,0.0,0.0,0.0,0.0,0.0,0.0,0.0,0.0,0.0,0.0,0.0,0.0,0.0,0.0,0.0,0.0,0.0,0.0,0.0,0.0,0.0,0.0,0.0,0.0,0.0,0.0,0.0,0.0,0.0,0.0,0.0,0.0,0.0,0.0,0.0,0.0,0.0,0.0,0.0,0.0,0.0,0.0,0.0,0.0,0.0,0.0,0.0,0.0,0.0,0.0,0.0,0.0,0.0,0.0,0.0,0.0,0.0,0.0,0.0,0.0,0.0,0.0,0.0,0.0,0.0,0.0,0.0,0.0,0.0,0.0,0.0,0.0,0.0,0.0,0.0,0.0,0.0,0.0,0.0,0.0,0.0,0.0,0.0,0.0,0.0,0.0,0.0,0.0,0.0,-2.3054,-2.4021,-2.6618,-2.6462,-2.6156,-2.6208,-2.4295,-2.285,-2.225,0.0,0.0,0.0,0.0,0.0,0.0,0.0,0.0,0.0,0.0,0.0,0.0,0.0,0.0,0.0,0.0,0.0,0.0,0.0,0.0,0.0,0.0,0.0,0.0,0.0,0.0,0.0,0.0,0.0,0.0,0.0,0.0,0.0,0.0,0.0,0.0,0.0,0.0,0.0,0.0,0.0,0.0,0.0,0.0,0.0,0.0,0.0,0.0,0.0,0.0,0.0,0.0,0.0,0.0,0.0,0.0,0.0,0.0,0.0,0.0,0.0,0.0,0.0,0.0,0.0,0.0,0.0,0.0,0.0,0.0,0.0,0.0,0.0,0.0,0.0,0.0,0.0,0.0,0.0,0.0,0.0,0.0,0.0,0.0,0.0,0.0,0.0,0.0,0.0,0.0,0.0,0.0,0.0,0.0,0.0,0.0,0.0,0.0,0.0,0.0,0.0,0.0,-2.2851,-2.3038,-2.3931,-2.6287,-2.6013,-2.5584,-2.5312,-2.3629,-2.2325,-2.1753,0.0,0.0,0.0,0.0,0.0,0.0,0.0,0.0,0.0,0.0,0.0,0.0,0.0,0.0,0.0,0.0,0.0,0.0,0.0,0.0,0.0,0.0,0.0,0.0,0.0,0.0,0.0,0.0,0.0,0.0,0.0,0.0,0.0,0.0,0.0,0.0,0.0,0.0,0.0,0.0,0.0,0.0,0.0,0.0,0.0,0.0,0.0,0.0,0.0,0.0,0.0,0.0,0.0,0.0,0.0,0.0,0.0,0.0,0.0,0.0,0.0,0.0,0.0,0.0,0.0,0.0,0.0,0.0,0.0,0.0,0.0,0.0,0.0,0.0,0.0,0.0,0.0,0.0,0.0,0.0,0.0,0.0,0.0,0.0,0.0,0.0,0.0,0.0,0.0,0.0,0.0,0.0,0.0,0.0,0.0,0.0,0.0,0.0,0.0,0.0,0.0,0.0,-2.2808,-2.3046,-2.3785,-2.5508,-2.5703,-2.5351,-2.4446,-2.2625,-2.154,0.0,0.0,0.0,0.0,0.0,0.0,0.0,0.0,0.0,0.0,0.0,0.0,0.0,0.0,0.0,0.0,0.0,0.0,0.0,0.0,0.0,0.0,0.0,0.0,0.0,0.0,0.0,0.0,0.0,0.0,0.0,0.0,0.0,0.0,0.0,0.0,0.0,0.0,0.0,0.0,0.0,0.0,0.0,0.0,0.0,0.0,0.0,0.0,0.0,0.0,0.0,0.0,0.0,0.0,0.0,0.0,0.0,0.0,0.0,0.0,0.0,0.0,0.0,0.0,0.0,0.0,0.0,0.0,0.0,0.0,0.0,0.0,0.0,0.0,0.0,0.0,0.0,0.0,0.0,0.0,0.0,0.0,0.0,0.0,0.0,0.0,0.0,0.0,0.0,0.0,0.0,0.0,0.0,0.0,0.0,0.0,0.0,0.0,0.0,0.0,0.0,0.0,0.0,-2.2839,-2.3068,-2.373,-2.5523,-2.5632,-2.5005,-2.3612,-2.2828,-2.1978,-2.0908,0.0,0.0,0.0,0.0,0.0,0.0,0.0,0.0,0.0,0.0,0.0,0.0,0.0,0.0,0.0,0.0,0.0,0.0,0.0,0.0,0.0,0.0,0.0,0.0,0.0,0.0,0.0,0.0,0.0,0.0,0.0,0.0,0.0,0.0,0.0,0.0,0.0,0.0,0.0,0.0,0.0,0.0,0.0,0.0,0.0,0.0,0.0,0.0,0.0,0.0,0.0,0.0,0.0,0.0,0.0,0.0,0.0,0.0,0.0,0.0,0.0,0.0,0.0,0.0,0.0,0.0,0.0,0.0,0.0,0.0,0.0,0.0,0.0,0.0,0.0,0.0,0.0,0.0,0.0,0.0,0.0,0.0,0.0,0.0,0.0,0.0,0.0,0.0,0.0,0.0,0.0,0.0,0.0,0.0,0.0,0.0,0.0,0.0,0.0,0.0,0.0,0.0,-2.2867,-2.3322,-2.4062,-2.5468,-2.5532,-2.4841,-2.3241,-2.2853,-2.1917,-2.0087,0.0,0.0,0.0,0.0,0.0,0.0,0.0,0.0,0.0,0.0,0.0,0.0,0.0,0.0,0.0,0.0,0.0,0.0,0.0,0.0,0.0,0.0,0.0,0.0,0.0,0.0,0.0,0.0,0.0,0.0,0.0,0.0,0.0,0.0,0.0,0.0,0.0,0.0,0.0,0.0,0.0,0.0,0.0,0.0,0.0,0.0,0.0,0.0,0.0,0.0,0.0,0.0,0.0,0.0,0.0,0.0,0.0,0.0,0.0,0.0,0.0,0.0,0.0,0.0,0.0,0.0,0.0,0.0,0.0,0.0,0.0,0.0,0.0,0.0,0.0,0.0,0.0,0.0,0.0,0.0,0.0,0.0,0.0,0.0,0.0,0.0,0.0,0.0,0.0,0.0,0.0,0.0,0.0,0.0,0.0,0.0,0.0,0.0,0.0,0.0,0.0,0.0,-2.283,-2.3714,-2.4597,-2.5407,-2.5473,-2.483,-2.3217,-2.2716,-2.1589,-1.942,0.0,0.0,0.0,0.0,0.0,0.0,0.0,0.0,0.0,0.0,0.0,0.0,0.0,0.0,0.0,0.0,0.0,0.0,0.0,0.0,0.0,0.0,0.0,0.0,0.0,0.0,0.0,0.0,0.0,0.0,0.0,0.0,0.0,0.0,0.0,0.0,0.0,0.0,0.0,0.0,0.0,0.0,0.0,0.0,0.0,0.0,0.0,0.0,0.0,0.0,0.0,0.0,0.0,0.0,0.0,0.0,0.0,0.0,0.0,0.0,-1.9012,-1.8777,0.0,0.0,0.0,0.0,0.0,0.0,0.0,0.0,0.0,0.0,0.0,0.0,0.0,0.0,0.0,0.0,0.0,0.0,0.0,0.0,0.0,0.0,0.0,0.0,0.0,0.0,0.0,0.0,0.0,0.0,0.0,0.0,0.0,0.0,0.0,0.0,0.0,0.0,0.0,0.0,-2.2933,-2.3681,-2.451,-2.5418,-2.5422,-2.4695,-2.3154,-2.2649,-2.1713,-2.0088,-1.9237,0.0,0.0,0.0,0.0,0.0,0.0,0.0,0.0,0.0,0.0,0.0,0.0,0.0,0.0,0.0,0.0,0.0,0.0,0.0,0.0,0.0,0.0,0.0,0.0,0.0,0.0,0.0,0.0,0.0,0.0,0.0,0.0,0.0,0.0,0.0,0.0,0.0,0.0,0.0,0.0,0.0,0.0,0.0,0.0,0.0,0.0,0.0,0.0,0.0,0.0,0.0,0.0,0.0,0.0,0.0,0.0,0.0,0.0,0.0,-1.9449,-1.9205,0.0,0.0,0.0,0.0,0.0,0.0,0.0,0.0,0.0,0.0,0.0,0.0,0.0,0.0,0.0,0.0,0.0,0.0,0.0,0.0,0.0,0.0,0.0,0.0,0.0,0.0,0.0,0.0,0.0,0.0,0.0,0.0,0.0,0.0,0.0,0.0,0.0,0.0,0.0,0.0,-2.2941,-2.4051,-2.4962,-2.5466,-2.5398,-2.488,-2.3703,-2.2956,-2.1872,-2.032,-1.9602,0.0,0.0,0.0,0.0,0.0,0.0,0.0,0.0,0.0,0.0,0.0,0.0,0.0,0.0,0.0,0.0,0.0,0.0,0.0,0.0,0.0,0.0,0.0,0.0,0.0,0.0,0.0,0.0,0.0,0.0,0.0,0.0,0.0,0.0,0.0,0.0,0.0,0.0,0.0,0.0,0.0,0.0,0.0,0.0,0.0,0.0,0.0,0.0,0.0,0.0,0.0,0.0,0.0,-1.9787,-2.0064,-2.0462,-2.1189,-2.1262,-2.0862,-2.0585,-2.0279,-1.9955,-1.9866,0.0,0.0,0.0,0.0,0.0,0.0,0.0,0.0,0.0,0.0,0.0,0.0,0.0,0.0,0.0,0.0,0.0,0.0,0.0,0.0,0.0,0.0,-2.1619,-2.119,-2.1251,-2.1276,-2.0792,0.0,0.0,0.0,0.0,0.0,0.0,0.0,0.0,0.0,0.0,0.0,-2.317,-2.4503,-2.5505,-2.5518,-2.5429,-2.5089,-2.434,-2.3308,-2.2038,-2.0463,-2.0012,-1.9534,0.0,0.0,0.0,0.0,0.0,0.0,0.0,0.0,0.0,0.0,0.0,0.0,0.0,0.0,0.0,0.0,0.0,0.0,0.0,0.0,0.0,0.0,0.0,0.0,0.0,0.0,0.0,0.0,0.0,0.0,0.0,0.0,-1.6186,-1.6576,0.0,0.0,0.0,0.0,0.0,0.0,0.0,0.0,0.0,0.0,0.0,0.0,0.0,-1.9425,-1.9462,-1.962,-2.0111,-2.0965,-2.1092,-2.1627,-2.2527,-2.2623,-2.2987,-2.3458,-2.2739,0.0,-2.0174,-2.0088,0.0,0.0,0.0,0.0,0.0,0.0,0.0,0.0,0.0,0.0,0.0,0.0,0.0,0.0,0.0,0.0,0.0,0.0,0.0,0.0,0.0,0.0,-2.2981,-2.1394,-2.1607,-2.2186,-2.2217,-2.1166,-2.018,-2.018,-2.0234,-2.0299,0.0,0.0,0.0,0.0,0.0,0.0,-2.4113,-2.4911,-2.5422,-2.5493,-2.5348,-2.4947,-2.4271,-2.3218,-2.2191,-2.1125,-1.9709,-1.9068,-1.9492,-1.9165,0.0,0.0,0.0,0.0,0.0,0.0,0.0,0.0,0.0,0.0,0.0,0.0,0.0,0.0,0.0,0.0,0.0,0.0,0.0,0.0,0.0,0.0,0.0,0.0,0.0,0.0,0.0,0.0,0.0,-1.7035,-1.7627,-1.7343,-1.7701,-1.7981,0.0,0.0,0.0,0.0,0.0,0.0,0.0,0.0,0.0,-1.8698,-1.9328,-1.9526,-1.9259,-1.9772,-2.0507,-2.1426,-2.152,-2.2055,-2.2962,-2.3466,-2.3867,-2.4184,-2.4308,-2.3651,-2.2415,-2.1278,-2.0595,-2.0244,0.0,0.0,0.0,0.0,-2.2284,-2.2512,-2.3373,-2.3712,-2.3771,-2.3738,0.0,0.0,0.0,0.0,0.0,0.0,0.0,-2.2661,-2.1633,-2.2494,-2.3366,-2.2413,-2.2576,-2.3005,-2.3156,-2.2393,-2.1714,-2.1706,-2.1753,-2.1682,-2.1207,-2.1557,0.0,0.0,0.0,-2.3879,-2.4291,-2.4975,-2.5414,-2.5444,-2.533,-2.5167,-2.4943,-2.3617,-2.2532,-2.1978,-2.037,-1.9478,-1.9611,-1.9419,-1.9635,0.0,0.0,0.0,0.0,0.0,0.0,0.0,0.0,0.0,0.0,0.0,0.0,0.0,0.0,0.0,0.0,0.0,0.0,0.0,0.0,0.0,0.0,0.0,0.0,0.0,0.0,0.0,0.0,-1.8181,-1.8218,-1.7702,-1.8136,-1.8537,0.0,0.0,0.0,0.0,0.0,0.0,-1.9413,-1.9514,-1.9335,-1.8919,-1.9447,-1.9568,-1.915,-2.0073,-2.102,-2.1959,-2.2239,-2.2809,-2.3681,-2.4326,-2.4607,-2.4657,-2.529,-2.5167,-2.4468,-2.2829,-2.1682,-2.1036,-2.1618,-2.1943,-2.218,-2.2988,-2.3304,-2.347,-2.4328,-2.4641,-2.4644,-2.4602,-2.4484,-2.4251,-2.3587,0.0,0.0,0.0,0.0,-2.3141,-2.2793,-2.3259,-2.3739,-2.3449,-2.3609,-2.3874,-2.3967,-2.3755,-2.3419,-2.3023,-2.2987,-2.2824,-2.2157,-2.2617,0.0,-2.2497,-2.3495,-2.4352,-2.4563,-2.5064,-2.5382,-2.5406,-2.533,-2.5262,-2.5176,-2.3753,-2.2688,-2.2209,-2.0792,-1.985,-1.9538,-1.9551,-1.9751,-2.0115,0.0,0.0,0.0,0.0,0.0,0.0,0.0,0.0,0.0,0.0,0.0,0.0,0.0,0.0,0.0,0.0,0.0,0.0,0.0,0.0,0.0,0.0,0.0,0.0,0.0,0.0,0.0,0.0,0.0,-1.6953,-1.7661,0.0,0.0,0.0,0.0,-1.9081,-1.9808,-2.0263,-2.0246,-2.0245,-2.0313,-2.0489,-1.9996,-1.9745,-1.9859,-2.0957,-2.1991,-2.2855,-2.3754,-2.4635,-2.5485,-2.5467,-2.5427,-2.5429,-2.5429,-2.5391,-2.5273,-2.4482,-2.3624,-2.2848,-2.2851,-2.2851,-2.2958,-2.3897,-2.4248,-2.4365,-2.5223,-2.5574,-2.5613,-2.5496,-2.4918,-2.4297,-2.4258,-2.3701,0.0,0.0,-2.3564,-2.3946,-2.3633,-2.409,-2.4564,-2.421,-2.4452,-2.4733,-2.4828,-2.5091,-2.4834,-2.3275,-2.3054,-2.3098,-2.3045,0.0,-2.3337,-2.4073,-2.4206,-2.449,-2.5344,-2.5343,-2.5312,-2.5398,-2.533,-2.5004,-2.4331,-2.3418,-2.2436,-2.133,-2.0479,-1.9779,-1.9331,-1.9487,-1.9623,-1.9643,-1.9833,0.0,0.0,0.0,0.0,0.0,0.0,0.0,0.0,0.0,0.0,0.0,0.0,0.0,0.0,0.0,0.0,0.0,0.0,0.0,0.0,0.0,0.0,0.0,0.0,0.0,0.0,0.0,0.0,-1.9286,-1.9022,0.0,-1.9866,-1.9988,-2.0042,-2.0188,-2.0878,-2.129,-2.1223,-2.1292,-2.1343,-2.1363,-2.073,-2.0451,-2.0599,-2.1128,-2.1889,-2.2779,-2.3759,-2.4713,-2.558,-2.5585,-2.5535,-2.5499,-2.546,-2.5454,-2.5447,-2.5084,-2.4486,-2.3785,-2.3737,-2.3742,-2.3863,-2.4724,-2.5074,-2.5113,-2.5425,-2.5541,-2.5541,-2.5503,-2.5317,-2.5099,-2.5122,-2.4958,-2.4719,-2.4705,-2.4835,-2.4879,-2.4534,-2.4582,-2.4607,-2.4266,-2.4493,-2.478,-2.4915,-2.5206,-2.5278,-2.481,-2.4703,-2.4521,-2.3979,-2.4352,-2.4592,-2.4291,-2.4652,-2.5081,-2.5406,-2.5348,-2.5322,-2.5321,-2.5332,-2.5196,-2.4981,-2.3688,-2.2554,-2.1764,-2.0601,-1.9684,-1.9134,-1.928,-1.946,-1.9609,-1.9678,-1.9896,0.0,0.0,0.0,0.0,0.0,0.0,0.0,0.0,0.0,0.0,0.0,0.0,0.0,0.0,0.0,0.0,0.0,0.0,0.0,0.0,0.0,0.0,0.0,0.0,0.0,-1.975,-2.0107,-2.0618,-2.0388,-2.047,-2.1269,-2.1161,-2.1084,-2.1191,-2.1925,-2.2271,-2.2099,-2.2227,-2.2227,-2.2117,-2.1441,-2.1142,-2.1352,-2.1733,-2.2266,-2.2975,-2.4062,-2.491,-2.5506,-2.558,-2.5563,-2.5529,-2.5484,-2.5457,-2.5455,-2.5332,-2.5013,-2.4579,-2.4532,-2.4556,-2.4624,-2.5233,-2.5434,-2.5434,-2.5466,-2.5486,-2.5452,-2.5473,-2.5493,-2.5523,-2.5561,-2.5564,-2.5584,-2.5613,-2.5512,-2.5312,-2.505,-2.485,-2.4645,-2.4355,-2.4476,-2.4693,-2.4917,-2.5168,-2.5415,-2.5603,-2.5655,-2.5429,-2.4827,-2.523,-2.5386,-2.4723,-2.5057,-2.5398,-2.5365,-2.5351,-2.5303,-2.5303,-2.5303,-2.5216,-2.4979,-2.396,-2.2876,-2.1858,-2.0858,-1.9986,-1.9219,-1.9612,-1.9894,-2.0051,-2.0162,-2.0211,-2.0272,0.0,0.0,0.0,0.0,0.0,0.0,0.0,0.0,0.0,0.0,0.0,0.0,0.0,0.0,0.0,0.0,0.0,0.0,0.0,0.0,0.0,0.0,0.0,-1.9701,-2.0425,-2.0919,-2.0729,-2.154,-2.2114,-2.2152,-2.2152,-2.2122,-2.2061,-2.2773,-2.3155,-2.2942,-2.3006,-2.2958,-2.2829,-2.2003,-2.1682,-2.1994,-2.2725,-2.322,-2.3482,-2.4718,-2.5304,-2.5301,-2.5496,-2.5574,-2.5609,-2.5452,-2.5404,-2.5413,-2.533,-2.5313,-2.5313,-2.5236,-2.5226,-2.5321,-2.5387,-2.5365,-2.5327,-2.5466,-2.5406,-2.5313,-2.5357,-2.5437,-2.5499,-2.5499,-2.5556,-2.5616,-2.5611,-2.5512,-2.533,-2.5147,-2.4917,-2.4676,-2.451,-2.4476,-2.4575,-2.485,-2.5065,-2.5271,-2.5566,-2.5657,-2.5661,-2.5613,-2.5598,-2.5566,-2.543,-2.5406,0.0,-2.5322,-2.5303,-2.5303,-2.5303,-2.5303,-2.5005,-2.4206,-2.4122,-2.335,-2.1526,-2.1206,-2.0603,-1.9637,-2.0414,-2.0878,-2.0862,-2.1197,-2.095,-2.0205,0.0,0.0,0.0,0.0,0.0,0.0,0.0,0.0,0.0,0.0,0.0,0.0,0.0,0.0,0.0,0.0,0.0,0.0,0.0,0.0,0.0,-2.0604,-2.0864,-2.0842,-2.1058,-2.1654,-2.2779,-2.2603,-2.2565,-2.3084,-2.3107,-2.3101,-2.3033,-2.3795,-2.4211,-2.4094,-2.4026,-2.3895,-2.3603,-2.2726,-2.2196,-2.2162,-2.2648,-2.2933,-2.3093,-2.4358,-2.5005,-2.5177,-2.5194,-2.5308,-2.5457,-2.5427,-2.5434,-2.5449,-2.529,-2.5283,-2.5365,-2.5303,-2.5264,-2.5303,-2.5332,-2.5322,-2.5313,-2.5341,-2.5313,-2.5214,-2.5244,-2.5321,-2.5453,-2.5479,-2.557,-2.5624,-2.5661,-2.5546,-2.536,-2.5187,-2.4955,-2.467,-2.4526,-2.4476,-2.4575,-2.4774,-2.5018,-2.5252,-2.5459,-2.5611,-2.5659,-2.5532,-2.5546,-2.5466,-2.5339,-2.5351,-2.5341,-2.5313,-2.5303,-2.5303,-2.5303,-2.589,-2.589,-2.5043,-2.4455,-2.3495,-2.2133,-2.0853,-1.9936,-1.9386,-1.9751,-1.9988,-2.0111,-2.0231,-2.022,0.0,0.0,0.0,0.0,0.0,0.0,0.0,0.0,0.0,0.0,0.0,0.0,0.0,0.0,0.0,0.0,0.0,0.0,0.0,0.0,0.0,0.0,-2.109,-2.1723,-2.2862,-2.2598,-2.2685,-2.3636,-2.3853,-2.4101,-2.449,-2.4767,-2.4832,-2.4447,-2.5227,-2.5377,-2.458,-2.5132,-2.5171,-2.4591,-2.3811,-2.3419,-2.3516,-2.3235,-2.3171,-2.3469,-2.4276,-2.4753,-2.4897,-2.5073,-2.5201,-2.5376,-2.5405,-2.5469,-2.5538,-2.5379,-2.5356,-2.5415,0.0,0.0,0.0,0.0,-2.5262,-2.5252,-2.5252,-2.5241,-2.5192,-2.522,-2.5332,-2.5499,-2.5906,-2.608,-2.6133,-2.6207,-2.6048,-2.5893,-2.5802,-2.555,-2.5393,-2.5656,-2.5651,-2.5592,-2.5432,-2.5532,-2.5636,-2.549,-2.5554,0.0,-2.557,-2.5517,-2.5434,-2.5341,-2.5303,-2.5303,-2.5303,-2.5303,-2.5303,-2.5303,-2.5764,-2.5851,-2.5341,-2.4889,0.0,0.0,0.0,-2.1225,-2.0713,-2.0651,0.0,0.0,0.0,-2.012,-1.9879,-2.0826,0.0,0.0,-2.1362,-2.1398,0.0,0.0,0.0,0.0,0.0,0.0,0.0,0.0,0.0,0.0,0.0,0.0,0.0,0.0,0.0,0.0,-2.1674,-2.2637,-2.5072,-2.4689,-2.4181,-2.4181,-2.5324,-2.6091,-2.6075,-2.6632,-2.6711,-2.5999,-2.6687,-2.6459,-2.496,-2.6188,0.0,0.0,0.0,-2.4954,-2.531,-2.4157,-2.3759,-2.4151,-2.4373,-2.4504,-2.4617,-2.5057,-2.5351,-2.5468,-2.5605,-2.5693,-2.5742,-2.5681,-2.557,-2.5468,-2.5235,-2.5192,-2.5331,-2.5367,-2.5346,-2.5346,-2.5461,0.0,0.0,-2.5466,-2.562,-2.5938,-2.6643,-2.6958,-2.702,-2.694,-2.684,-2.6746,-2.6621,-2.65,-2.6508,-2.7243,-2.7251,-2.6908,-2.6332,-2.6237,-2.611,-2.5653,-2.5671,-2.5774,-2.5853,-2.5675,-2.5479,-2.5312,-2.539,-2.5418,-2.5293,-2.538,-2.5418,-2.5293,-2.5457,0.0,-2.5457,-2.5543,-2.5283,-2.4525,-2.4063,-2.3447,-2.2632,-2.2321,-2.1847,-2.1216,-2.1001,-2.0587,-1.9868,-2.189,-2.2908,-2.2929,-2.1715,-2.1944,0.0,0.0,0.0,0.0,0.0,0.0,0.0,0.0,0.0,0.0,0.0,0.0,0.0,0.0,0.0,-2.1462,-2.2716,-2.4006,-2.5168,-2.632,-2.7078,-2.7078,-2.7205,-2.721,-2.7108,-2.7118,-2.7076,-2.6859,-2.7093,-2.7102,-2.6795,-2.6909,-2.6805,-2.6467,-2.6075,-2.5528,-2.4777,-2.4699,-2.4404,-2.3883,-2.4129,0.0,-2.4703,-2.5408,-2.5994,-2.6381,-2.7115,-2.7118,-2.664,-2.6561,-2.6119,-2.5472,-2.536,-2.5365,-2.5451,-2.6102,-2.6299,-2.6332,-2.7033,-2.7266,-2.7217,-2.7217,-2.7362,-2.7544,-2.7683,-2.7846,0.0,-2.7144,-2.7337,-2.758,-2.6845,-2.6941,-2.7286,-2.7438,-2.6813,-2.617,-2.6249,-2.5776,-2.5562,-2.6397,-2.6601,-2.6841,-2.75,-2.6438,-2.5454,-2.5398,-2.5938,-2.6051,-2.5236,-2.5838,-2.6051,-2.5225,-2.6484,-2.7113,-2.6428,-2.6987,-2.7075,-2.6279,-2.4786,-2.3573,-2.2717,-2.2628,-2.2551,-2.247,-2.2363,-2.1855,-2.0918,-2.2888,-2.3447,-2.2779,-2.4046,-2.4826,0.0,0.0,0.0,0.0,0.0,0.0,0.0,0.0,0.0,0.0,0.0,-2.0116,-2.0931,0.0,-2.1628,-2.3223,-2.4168,-2.5167,-2.6428,-2.7351,-2.789,-2.789,-2.8121,-2.8169,-2.8025,-2.8277,-2.8272,-2.7718,-2.8217,-2.8185,-2.738,-2.7937,-2.7998,-2.7513,-2.7046,-2.6631,-2.6209,-2.5796,-2.5259,-2.4574,-2.4816,-2.5004,-2.5232,-2.5793,-2.6454,-2.7161,-2.7661,-2.776,-2.7512,-2.7498,-2.6987,-2.6245,-2.6623,-2.6184,-2.5445,-2.5858,-2.5938,-2.5959,-2.6841,-2.7101,-2.7141,-2.762,-2.7846,-2.8109,-2.856,-2.8767,-2.8781,-2.8351,-2.8418,-2.8482,-2.8057,-2.8065,-2.8322,-2.8741,-2.846,-2.8017,-2.7778,-2.7445,-2.7248,-2.7373,-2.7484,-2.7675,-2.8098,-2.7418,-2.6787,-2.6722,-2.7043,-2.7094,-2.6557,-2.6935,-2.7061,-2.6546,-2.7351,-2.7701,-2.7305,-2.772,-2.7777,-2.7335,-2.6558,-2.5499,-2.4115,-2.3914,-2.3674,-2.328,-2.3111,-2.3065,-2.3036,-2.4156,-2.4948,-2.5429,-2.6411,-2.6884,0.0,0.0,0.0,0.0,0.0,0.0,0.0,-1.989,-2.0162,-2.0221,-2.036,-2.077,-2.1638,-2.1889,-2.2734,-2.5026,-2.5365,-2.5919,-2.7621,-2.7736,-2.7659,-2.7659,-2.8236,-2.8627,-2.8632,-2.9179,-2.9285,-2.8634,-2.9361,-2.9271,-2.8002,-2.8949,-2.9232,-2.8557,-2.8021,-2.7762,-2.7809,-2.698,-2.6292,-2.5721,-2.5857,-2.5965,-2.6068,-2.6511,-2.7179,-2.8033,-2.8136,-2.8233,-2.832,-2.8223,-2.7679,-2.6971,-2.7617,-2.6988,-2.5719,-2.5855,-2.5716,-2.5597,-2.6447,-2.6795,-2.7,-2.7785,-2.8268,-2.8643,-2.9406,-2.9683,-2.9706,-2.955,-2.9473,-2.9399,-2.9235,-2.919,-2.9333,-3.006,-3.0152,-2.9917,-2.9275,-2.9081,-2.8891,-2.8373,-2.8372,-2.8506,-2.8671,-2.8664,-2.8496,-2.8087,-2.8133,-2.8143,-2.7911,-2.8016,-2.8082,-2.7868,-2.8027,-2.8212,-2.8366,-2.8526,-2.8465,-2.8163,-2.8333,-2.7683,-2.6016,-2.5751,-2.5304,-2.4587,-2.4414,-2.4623,-2.5212,-2.5646,-2.6517,-2.7777,-2.7964,-2.8165,-1.9735,-1.9229,-1.8262,-1.77,-1.8202,-1.8518,0.0,-1.8142,-1.9241,-1.925,-1.9935,-2.0755,-2.1632,-2.2422,-2.3499,-2.5207,-2.5473,-2.6033,-2.7572,-2.7204,-2.6743,-2.6743,-2.7331,-2.7979,-2.8624,-2.865,-2.8889,-2.9493,-2.9767,-2.9845,-2.9802,-2.9657,-2.9533,-2.9476,-2.9079,-2.8588,-2.7889,-2.7951,-2.7605,-2.6823,-2.6984,-2.716,-2.7407,-2.8158,-2.8718,-2.9145,-2.921,-2.9239,-2.9214,-2.8495,-2.7701,-2.6899,-2.7058,-2.6953,-2.6815,-2.7387,-2.7132,-2.6554,-2.7301,-2.8033,-2.8683,-2.889,-2.9535,-3.0241,-3.0412,-3.0546,-3.0484,-2.9714,-2.986,-3.0094,-2.9389,-2.9671,-3.0177,-3.0253,-2.9786,-2.9293,-2.9273,-2.8689,-2.8373,-2.9123,-2.9253,-2.9512,-3.0307,-3.0473,-2.9957,-2.8344,-2.865,-2.8753,-2.7932,-2.8478,-2.8626,-2.7713,-2.8472,-2.9357,-3.0051,-3.0255,-2.9955,-2.9119,-2.9195,-2.8836,-2.7948,-2.7862,-2.7775,-2.7619,-2.7608,-2.7164,-2.6306,-2.7304,-2.7381,-2.6598,-2.7464,-2.8342,-1.72,-1.7372,-1.7419,-1.7416,-1.7725,-1.8158,-1.8563,-1.927,-1.9866,-1.9915,-2.0227,-2.0779,-2.1632,-2.289,-2.4167,-2.5296,-2.6326,-2.6799,-2.639,-2.6062,-2.5495,-2.4514,-2.4617,-2.5423,-2.7068,-2.7228,-2.7721,-2.8926,-2.912,-2.9459,-3.0068,-2.9888,-2.9787,-2.9787,-2.9532,-2.9208,-2.8872,-2.897,-2.8615,-2.7809,-2.8045,-2.8175,-2.83,-2.8809,-2.9417,-3.0062,-3.0125,-2.9874,-2.9408,-2.9557,-2.9091,-2.8353,-2.8841,-2.8723,-2.8142,-2.6965,-2.659,-2.6743,-2.7522,-2.798,-2.8452,-2.9593,-3.0225,-3.0574,-3.0682,-3.0741,-3.0716,-3.0268,-3.025,-3.0314,-2.9952,-3.0059,-3.0304,-3.0304,-3.015,-3.0017,-3.0044,-2.9815,-2.9698,-3.0069,-3.0146,-3.0263,-3.0633,-3.0762,-3.0547,-2.9801,-2.9901,-2.9913,-2.9489,-2.9728,-2.9757,-2.9389,-2.9738,-3.0172,-3.0535,-3.0672,-3.0541,-3.0025,-3.0146,-2.9838,-2.8922,-2.898,-2.8993,-2.8959,-2.8937,-2.8669,-2.8201,-2.7621,-2.7312,-2.7259,-2.6133,-2.6425,-1.5706,-1.6145,-1.6719,-1.7301,-1.7586,-1.8085,-1.9496,-2.0096,-2.0399,-2.0464,-2.0642,-2.1032,-2.1671,-2.3164,-2.468,-2.5712,-2.6883,-2.7163,-2.587,-2.5245,-2.4303,-2.2611,-2.2191,-2.288,-2.4994,-2.5678,-2.6602,-2.8137,-2.8556,-2.9049,-2.9717,-2.9839,-2.9888,-2.9888,-2.9923,-2.9945,-2.9945,-3.0,-2.9886,-2.9581,-2.9559,-2.9715,-2.9972,-2.9978,-3.019,-3.0629,-3.0676,-3.0334,-2.9768,-3.035,-3.0083,-2.933,-2.9923,-2.98,-2.9,-2.6953,-2.6567,-2.7115,-2.7644,-2.7961,-2.8345,-2.9756,-3.0374,-3.0626,-3.0733,-3.0776,-3.0788,-3.0652,-3.0488,-3.0381,-3.0328,-3.0304,-3.0316,-3.0302,-3.0462,-3.0604,-3.0621,-3.0661,-3.0697,-3.0704,-3.0686,-3.0724,-3.0732,-3.0775,-3.0818,-3.0818,-3.0755,-3.0701,-3.0652,-3.0576,-3.0565,-3.0582,-3.0607,-3.0644,-3.0652,-3.075,-3.0759,-3.0631,-3.0735,-3.0521,-2.9835,-2.9893,-2.9832,-2.9567,-2.9726,-2.9556,-2.9012,-2.7711,-2.7218,-2.7431,-2.5542,-2.5308,-1.6578,-1.657,-1.6678,-1.7398,-1.7891,-1.8304,-1.8754,-1.9581,-2.0314,-2.0388,-2.1085,-2.1675,-2.178,-2.3233,-2.4922,-2.6584,-2.6784,-2.6713,-2.6652,-2.5138,-2.3391,-2.1656,-2.0792,-2.1001,-2.2554,-2.419,-2.5818,-2.751,-2.8401,-2.8911,-2.8949,-2.9566,-2.9888,-2.9888,-3.0525,-3.0847,-3.0847,-3.1046,-3.1585,-3.2476,-3.1813,-3.2032,-3.2929,-3.2244,-3.146,-3.069,-3.069,-3.0661,-3.0565,-3.0604,-3.0047,-2.9206,-2.9235,-2.9214,-2.9115,-2.8256,-2.7928,-2.7935,-2.7898,-2.8373,-2.8986,-2.9178,-2.9859,-3.0626,-3.0694,-3.0737,-3.0785,-3.063,-3.0511,-3.0381,-3.0328,-3.0304,-3.0328,-3.0381,-3.0501,-3.0621,-3.0676,-3.069,-3.0704,-3.0697,-3.0697,-3.0732,-3.0788,-3.0818,-3.0817,-3.0818,-3.0801,-3.0771,-3.0711,-3.0658,-3.0613,-3.0613,-3.067,-3.0667,-3.0628,-3.0703,-3.076,-3.0682,-3.076,-3.0804,-3.0847,-3.0804,-3.0383,-2.9529,-3.0206,-2.9727,-2.8028,-2.7875,-2.7297,-2.6435,-2.617,-2.6129,-1.5619,-1.5649,-1.5884,-1.6777,-1.7447,-1.8117,-1.9061,-1.9343,-1.9433,-1.9458,-1.9716,-1.9934,-2.0016,-2.1873,-2.3583,-2.42,-2.5726,-2.6223,-2.4444,-2.5135,-2.4578,-2.1128,-2.1927,-2.2987,-2.3543,-2.2997,-2.3809,-2.6661,-2.7132,-2.7835,-2.9033,-2.9805,-3.0216,-3.0188,-3.0949,-3.131,-3.1232,-3.1889,-3.2386,-3.2781,-3.2119,-3.171,-3.1499,-3.1258,-3.0962,-3.069,-3.069,-3.0661,-3.0595,-3.0511,-3.0237,-2.9929,-2.9867,-2.9879,-2.9897,-2.9683,-2.9615,-2.957,-2.9035,-2.8962,-2.9226,-2.9915,-3.035,-3.0601,-3.0677,-3.0742,-3.0746,-3.0567,-3.0482,-3.037,-3.0254,-3.0254,-3.0316,-3.0352,-3.0381,-3.0511,-3.0621,-3.0614,-3.0644,-3.0691,-3.0739,-3.0775,-3.0817,-3.0765,-3.0697,-3.0598,-3.0724,-3.0774,-3.0725,-3.0686,-3.0653,-3.0653,-3.0703,-3.0691,-3.0739,-3.0781,-3.0779,-3.0779,-3.0781,-3.0818,-3.0819,-3.0818,-3.0625,-3.03,-3.0463,-2.987,-2.853,-2.849,-2.7954,-2.691,-2.6957,-2.7297,-1.4916,-1.5518,-1.6262,-1.7117,-1.761,-1.8141,-1.9152,-1.8903,-1.8359,-1.8112,-1.859,-1.8966,-1.8737,-2.0533,-2.2366,-2.3357,-2.4896,-2.5601,-2.4462,-2.5762,-2.5654,-2.2506,-2.3501,-2.4572,-2.4899,-2.3611,-2.3947,-2.6785,-2.7865,-2.8772,-2.9631,-3.0711,-3.1306,-3.1249,-3.2403,-3.2775,-3.2345,-3.324,-3.358,-3.3415,-3.3326,-3.271,-3.1615,-3.1623,-3.1467,-3.1156,-3.0846,-3.0801,-3.0946,-3.0539,-3.0337,-3.0254,-3.0202,-3.0215,-3.0267,-3.037,-3.0419,-3.0408,-2.9919,-2.9723,-2.9807,-3.0382,-3.0613,-3.0637,-3.0657,-3.0741,-3.0742,-3.0545,-3.0424,-3.0359,-3.0213,-3.0226,-3.0267,-3.0304,-3.0314,-3.0392,-3.0557,-3.0607,-3.0613,-3.0701,-3.0767,-3.0781,-3.0818,-3.0724,-3.0651,-3.0505,-3.0658,-3.0754,-3.073,-3.0724,-3.0749,-3.0755,-3.0736,-3.0742,-3.081,-3.0804,-3.0796,-3.0785,-3.0771,-3.0818,-3.0818,-3.0736,-3.0569,-3.0221,-3.0326,-2.9718,-2.8364,-2.8932,-2.8685,-2.7679,-2.8336,-2.8957,-1.4691,-1.6275,-1.7762,-1.8318,-1.8269,-1.8287,-1.8958,-1.8141,-1.713,-1.6565,-1.778,-1.8744,-1.8084,-1.9339,-2.1356,-2.3906,-2.4358,-2.4957,-2.6613,-2.6987,-2.6618,-2.5468,-2.5502,-2.5861,-2.6485,-2.5959,-2.6282,-2.8009,-3.0337,-3.1323,-3.0549,-3.2094,-3.3021,-3.3048,-3.467,-3.5085,-3.4236,-3.507,-3.5123,-3.4381,-3.5318,-3.4847,-3.323,-3.3223,-3.2757,-3.1895,-3.1125,-3.1095,-3.156,-3.0788,-3.0379,-3.0185,-3.0213,-3.0213,-3.0199,-3.033,-3.0398,-3.0423,-3.0609,-3.0611,-3.058,-3.0521,-3.0581,-3.0685,-3.0607,-3.0701,-3.0732,-3.0458,-3.0384,-3.0337,-3.0157,-3.0128,-3.0199,-3.0267,-3.0292,-3.0364,-3.0535,-3.0614,-3.0639,-3.0757,-3.0818,-3.0818,-3.0794,-3.073,-3.0637,-3.052,-3.0599,-3.0691,-3.0715,-3.0757,-3.0776,-3.0781,-3.0779,-3.0806,-3.0778,-3.0788,-3.0742,-3.0697,-3.0739,-3.0796,-3.0796,-3.0654,-3.0219,-2.9447,-2.9979,-2.9447,-2.784,-2.9308,-2.9557,-2.8717,-3.0283,-3.1016,-1.6647,-1.7441,-1.7883,-1.82,-1.8227,-1.8163,-1.8044,-1.6743,-1.5869,-1.7034,-1.7189,-1.7457,-1.8576,-1.9701,-2.1072,-2.308,-2.4491,-2.5494,-2.5952,-2.8739,-2.9455,-2.5935,-2.8208,-2.9648,-2.8527,-2.9944,-3.1123,-3.1507,-3.0539,-3.0122,-3.0557,-3.2258,-3.3498,-3.4032,-3.5106,-3.5797,-3.61,-3.6393,-3.6129,-3.5328,-3.4999,-3.3952,-3.2338,-3.2322,-3.1849,-3.107,-3.146,-3.1297,-3.0749,-3.1174,-3.0917,-3.0185,-3.0199,-3.0128,-2.9984,-3.0185,-3.0202,-3.0228,-3.1158,-3.1109,-3.0613,-3.0657,-3.0685,-3.0689,-3.0677,-3.0703,-3.0685,-3.0451,-3.0304,-3.0151,-3.0,-2.9953,-2.9969,-3.0,-3.0118,-3.0267,-3.0436,-3.0539,-3.0613,-3.073,-3.0771,-3.0762,-3.062,-3.0552,-3.0501,-3.0292,-3.0325,-3.0461,-3.0681,-3.0691,-3.0739,-3.0728,-3.0619,-3.0633,-3.073,-3.0665,-3.0637,-3.0614,-3.0652,-3.0631,-3.0594,-3.0542,-3.0676,-3.0925,-3.0996,-3.0982,-3.0959,-3.1374,-3.1352,-3.1063,-3.2024,-3.2463,-1.819,-1.9015,-1.9515,-1.9207,-1.8687,-1.818,-1.8177,-1.6706,-1.5639,-1.6675,-1.7224,-1.7727,-1.8396,-1.9297,-2.0482,-2.2255,-2.3358,-2.4569,-2.6047,-2.8996,-3.0295,-2.8583,-3.0681,-3.1857,-3.0876,-3.2019,-3.2809,-3.2809,-3.2381,-3.2144,-3.227,-3.365,-3.4775,-3.5562,-3.6448,-3.725,-3.7986,-3.7633,-3.7063,-3.6228,-3.5823,-3.4761,-3.3095,-3.2722,-3.2288,-3.1831,-3.1548,-3.1287,-3.1071,-3.1118,-3.0787,-3.0253,-3.009,-3.0068,-3.0015,-3.0068,-3.0075,-3.0199,-3.0914,-3.0905,-3.064,-3.1129,-3.1516,-3.1716,-3.0929,-3.0969,-3.1098,-3.0574,-3.0479,-3.0562,-3.0452,-3.0653,-3.0804,-3.0566,-3.0624,-3.0676,-3.0518,-3.0557,-3.062,-3.0681,-3.074,-3.0739,-3.0535,-3.052,-3.0451,-3.0226,-3.0574,-3.0963,-3.117,-3.0911,-3.0703,-3.0716,-3.0625,-3.0576,-3.0599,-3.0548,-3.0501,-3.0482,-3.0452,-3.0461,-3.0384,-3.0689,-3.1044,-3.1404,-3.1622,-3.1861,-3.2125,-3.2477,-3.258,-3.2493,-3.3175,-3.3523,-1.9717,-2.0868,-2.1674,-2.0723,-1.9388,-1.8394,-1.8627,-1.7069,-1.5713,-1.6231,-1.757,-1.8573,-1.8202,-1.8873,-1.9977,-2.1551,-2.1948,-2.3202,-2.6523,-2.8537,-3.0213,-3.1748,-3.2762,-3.3284,-3.3071,-3.3063,-3.3119,-3.3287,-3.4776,-3.5289,-3.4448,-3.5344,-3.6317,-3.7269,-3.8227,-3.9023,-3.9663,-3.8828,-3.8003,-3.7267,-3.7259,-3.6362,-3.4668,-3.3835,-3.3362,-3.3036,-3.1538,-3.1184,-3.1622,-3.0848,-3.0452,-3.0254,-2.9984,-2.9969,-3.0128,-2.9953,-3.0,-3.0185,-3.0595,-3.0772,-3.0948,-3.1598,-3.2341,-3.2667,-3.1132,-3.1175,-3.1499,-3.0598,-3.0688,-3.1059,-3.0977,-3.1505,-3.1899,-3.1445,-3.1447,-3.1392,-3.083,-3.0715,-3.0808,-3.0889,-3.0933,-3.0876,-3.0565,-3.0511,-3.0419,-3.0314,-3.1059,-3.1697,-3.1884,-3.127,-3.0855,-3.0856,-3.0658,-3.0521,-3.0463,-3.0402,-3.0348,-3.0239,-3.0227,-3.0203,-3.015,-3.0738,-3.1172,-3.1439,-3.1994,-3.2354,-3.2483,-3.313,-3.3418,-3.3374,-3.3881,-3.4167,-2.2052,-2.2736,-2.2592,-2.1225,-1.9866,-1.8641,-1.7843,-1.5691,-1.4616,-1.7401,-1.7439,-1.7559,-1.957,-2.014,-2.0609,-2.1636,-2.242,-2.3867,-2.66,-2.9076,-3.0962,-3.1941,-3.3954,-3.4919,-3.4044,-3.4557,-3.5185,-3.5818,-3.5614,-3.5136,-3.4356,-3.5219,-3.6501,-3.8209,-3.968,-4.0532,-4.0665,-3.9791,-3.9265,-3.911,-3.8414,-3.7217,-3.5567,-3.4736,-3.3574,-3.2205,-3.1904,-3.1358,-3.0693,-3.1168,-3.0893,-3.0113,-2.991,-2.9842,-2.9876,-2.9888,-2.9921,-3.019,-3.1866,-3.2513,-3.2387,-3.1276,-3.1058,-3.1175,-3.0735,-3.0598,-3.051,-3.0177,-3.024,-3.0352,-3.028,-3.0923,-3.1575,-3.1496,-3.1958,-3.2172,-3.136,-3.1427,-3.1727,-3.1836,-3.1821,-3.1529,-3.0643,-3.0402,-3.0471,-3.088,-3.1312,-3.1819,-3.2473,-3.1952,-3.1589,-3.1696,-3.0819,-3.0266,-3.0266,-3.0228,-3.015,-2.9901,-2.9886,-2.9877,-2.9784,-2.9901,-3.0638,-3.2015,-3.2165,-3.2818,-3.4039,-3.4083,-3.4134,-3.418,-3.4141,-3.4055,-2.336,-2.3819,-2.3486,-2.1906,-2.0372,-1.8979,-1.8073,-1.6263,-1.5458,-1.7987,-1.8175,-1.8362,-2.0039,-2.043,-2.0796,-2.1674,-2.1793,-2.285,-2.5897,-2.776,-2.9653,-3.1828,-3.3813,-3.4941,-3.4878,-3.5105,-3.5446,-3.5802,-3.5506,-3.5398,-3.5584,-3.6596,-3.7795,-3.9149,-4.0356,-4.1003,-4.0967,-4.0493,-4.0053,-3.9625,-3.8734,-3.7647,-3.6378,-3.51,-3.4101,-3.3265,-3.2366,-3.1902,-3.1725,-3.1157,-3.0829,-3.0655,-3.0045,-2.9859,-2.9959,-2.9921,-2.9984,-3.0204,-3.1239,-3.163,-3.1543,-3.0863,-3.1598,-3.2478,-3.1035,-3.075,-3.0852,-3.0563,-3.028,-3.0257,-3.1041,-3.1528,-3.1873,-3.2157,-3.2467,-3.262,-3.2301,-3.2425,-3.2644,-3.2604,-3.2694,-3.253,-3.193,-3.1757,-3.1773,-3.1986,-3.2519,-3.3054,-3.3473,-3.3083,-3.2505,-3.1784,-3.1121,-3.0638,-3.049,-3.0423,-3.0525,-3.0752,-3.0769,-3.0689,-3.0538,-3.0946,-3.1518,-3.2265,-3.2827,-3.3469,-3.4179,-3.4311,-3.4381,-3.4404,-3.424,-3.4142,-2.3879,-2.4412,-2.4201,-2.2458,-2.0738,-1.9294,-1.8647,-1.7212,-1.6528,-1.8418,-1.8948,-1.9335,-2.0147,-2.0395,-2.0779,-2.1672,-2.128,-2.1948,-2.4999,-2.6477,-2.8335,-3.12,-3.3199,-3.4584,-3.5183,-3.5301,-3.5362,-3.5506,-3.549,-3.5882,-3.6755,-3.8026,-3.9064,-3.9777,-4.0611,-4.0957,-4.0734,-4.0662,-4.0221,-3.9373,-3.8811,-3.8112,-3.7201,-3.5718,-3.4948,-3.4645,-3.2986,-3.2532,-3.2821,-3.121,-3.0828,-3.114,-3.0162,-3.0007,-3.0319,-3.0212,-3.0418,-3.0789,-3.0867,-3.0914,-3.091,-3.0878,-3.2275,-3.3565,-3.146,-3.1274,-3.1621,-3.1124,-3.0643,-3.0493,-3.1663,-3.204,-3.2319,-3.3006,-3.3052,-3.3096,-3.3467,-3.3557,-3.3546,-3.3427,-3.3553,-3.3519,-3.3106,-3.3015,-3.3026,-3.3087,-3.3692,-3.4213,-3.4335,-3.4179,-3.345,-3.1955,-3.1522,-3.1197,-3.0893,-3.0809,-3.0976,-3.1457,-3.1494,-3.1397,-3.1195,-3.178,-3.2182,-3.2311,-3.3261,-3.3795,-3.4005,-3.4437,-3.4689,-3.4689,-3.4782,-3.4785,-2.3396,-2.4385,-2.4509,-2.2647,-2.0886,-1.9508,-1.9206,-1.7485,-1.6656,-1.9039,-1.9231,-1.927,-2.0141,-2.0366,-2.0714,-2.1634,-2.1751,-2.2339,-2.4256,-2.6579,-2.8509,-2.9601,-3.2571,-3.4503,-3.4497,-3.5212,-3.5867,-3.6449,-3.6473,-3.6587,-3.6813,-3.8442,-3.9546,-3.98,-4.0512,-4.0578,-3.9903,-3.976,-3.9285,-3.8421,-3.9081,-3.8922,-3.807,-3.7172,-3.6338,-3.5485,-3.3817,-3.2986,-3.2737,-3.1711,-3.118,-3.092,-2.9982,-3.0223,-3.1113,-3.107,-3.173,-3.2551,-3.2568,-3.2622,-3.2582,-3.189,-3.1891,-3.2074,-3.1768,-3.203,-3.2256,-3.1491,-3.1326,-3.124,-3.0868,-3.1564,-3.2648,-3.3734,-3.3723,-3.3798,-3.4853,-3.471,-3.4393,-3.4437,-3.4414,-3.4133,-3.3301,-3.3077,-3.3167,-3.3643,-3.403,-3.4365,-3.4553,-3.4709,-3.4267,-3.291,-3.221,-3.1694,-3.1381,-3.131,-3.1212,-3.0875,-3.0884,-3.0884,-3.0856,-3.0928,-3.1429,-3.2364,-3.2672,-3.3229,-3.408,-3.5094,-3.5586,-3.5693,-3.6405,-3.6694,-2.361,-2.4469,-2.4574,-2.2842,-2.1341,-2.0097,-1.9188,-1.7813,-1.7187,-1.8827,-1.9084,-1.9256,-2.0153,-2.0332,-2.0677,-2.1606,-2.1343,-2.1591,-2.332,-2.4913,-2.6613,-2.8481,-3.1197,-3.3308,-3.4313,-3.5113,-3.5637,-3.5737,-3.6266,-3.6579,-3.6493,-3.7926,-3.9241,-4.0364,-4.0764,-4.0831,-4.0567,-4.0535,-4.0292,-3.9933,-3.9664,-3.9092,-3.8175,-3.7876,-3.6968,-3.567,-3.501,-3.4527,-3.4151,-3.2742,-3.233,-3.2411,-3.16,-3.1593,-3.2036,-3.1944,-3.2205,-3.2499,-3.1895,-3.2126,-3.2551,-3.1853,-3.2083,-3.2493,-3.1835,-3.1928,-3.2155,-3.1728,-3.098,-3.0482,-3.1007,-3.1812,-3.2719,-3.3845,-3.4016,-3.4162,-3.4895,-3.5007,-3.4979,-3.508,-3.5178,-3.5115,-3.4682,-3.4449,-3.4375,-3.457,-3.4325,-3.4156,-3.4222,-3.4037,-3.3692,-3.302,-3.25,-3.2059,-3.181,-3.2053,-3.2385,-3.2706,-3.2711,-3.2925,-3.3426,-3.3028,-3.3198,-3.4145,-3.4527,-3.4926,-3.5376,-3.6137,-3.6517,-3.6587,-3.6925,-3.6991,-2.2962,-2.3774,-2.3979,-2.257,-2.1379,-2.0263,-1.9116,-1.8222,-1.7898,-1.8714,-1.915,-1.955,-2.0164,-2.0328,-2.0632,-2.1531,-2.1249,-2.139,-2.2812,-2.3825,-2.5057,-2.684,-2.9291,-3.1452,-3.3131,-3.4638,-3.5457,-3.5336,-3.5867,-3.6227,-3.632,-3.7153,-3.8446,-4.0223,-4.0174,-4.0135,-4.0231,-4.004,-3.9911,-3.9886,-3.9434,-3.9004,-3.8606,-3.8606,-3.7831,-3.6415,-3.6182,-3.5739,-3.5117,-3.367,-3.3244,-3.3488,-3.2711,-3.2576,-3.2855,-3.28,-3.2917,-3.292,-3.1996,-3.2144,-3.2661,-3.1936,-3.2428,-3.3108,-3.2195,-3.2184,-3.2411,-3.2155,-3.1034,-3.019,-3.1196,-3.1935,-3.2645,-3.3696,-3.3954,-3.4139,-3.4555,-3.4864,-3.5076,-3.5276,-3.5417,-3.5464,-3.529,-3.4958,-3.4611,-3.4455,-3.3976,-3.3581,-3.35,-3.3556,-3.3517,-3.3327,-3.3136,-3.2823,-3.2429,-3.295,-3.3491,-3.4023,-3.4093,-3.4443,-3.5184,-3.482,-3.4882,-3.5551,-3.6017,-3.6241,-3.639,-3.7044,-3.7389,-3.7437,-3.7699,-3.7604,-2.1055,-2.2106,-2.2546,-2.1709,-2.0756,-1.983,-1.9143,-1.8904,-1.8797,-1.8866,-1.9572,-2.018,-2.0219,-2.0188,-2.0527,-2.1527,-2.1756,-2.2086,-2.2995,-2.3863,-2.4422,-2.4427,-2.6627,-2.8812,-3.0583,-3.3674,-3.5581,-3.5581,-3.536,-3.5572,-3.6337,-3.6344,-3.719,-3.9042,-3.8426,-3.8103,-3.8215,-3.7525,-3.7167,-3.7243,-3.8059,-3.8811,-3.9596,-3.9596,-3.9073,-3.8141,-3.7251,-3.6293,-3.5224,-3.4282,-3.3794,-3.3619,-3.2747,-3.2845,-3.3507,-3.3637,-3.4055,-3.4442,-3.3556,-3.3333,-3.3241,-3.243,-3.2855,-3.3591,-3.3056,-3.3064,-3.322,-3.2811,-3.1754,-3.0875,-3.1243,-3.1783,-3.2436,-3.3318,-3.3574,-3.3703,-3.3956,-3.4217,-3.4566,-3.5002,-3.4993,-3.4879,-3.4725,-3.4034,-3.3368,-3.2878,-3.2753,-3.264,-3.2335,-3.3418,-3.4159,-3.4008,-3.4234,-3.4082,-3.3349,-3.3977,-3.4356,-3.4233,-3.4318,-3.4657,-3.5283,-3.5479,-3.5799,-3.6185,-3.637,-3.6593,-3.6795,-3.7791,-3.83,-3.83,-3.9164,-3.8887,-2.0594,-2.1727,-2.2578,-2.1698,-2.1188,-2.0697,-2.0048,-1.9319,-1.9004,-1.9711,-1.9603,-1.9572,-2.0164,-2.0287,-2.0392,-2.0737,-2.1839,-2.2313,-2.1393,-2.4057,-2.5889,-2.5282,-2.9,-3.2058,-3.3206,-3.472,-3.5588,-3.5483,-3.5325,-3.5315,-3.5361,-3.5287,-3.6141,-3.8032,-3.793,-3.7924,-3.8064,-3.7864,-3.7852,-3.802,-3.8272,-3.8189,-3.7838,-3.8478,-3.8227,-3.729,-3.698,-3.6601,-3.6121,-3.5098,-3.4653,-3.4639,-3.4372,-3.4338,-3.4434,-3.4298,-3.4136,-3.3845,-3.2882,-3.2919,-3.3253,-3.2477,-3.2409,-3.2716,-3.3015,-3.3216,-3.3077,-3.1979,-3.1232,-3.0974,-3.1556,-3.1765,-3.2087,-3.291,-3.353,-3.3981,-3.4093,-3.4311,-3.4485,-3.466,-3.406,-3.3486,-3.3403,-3.2742,-3.2162,-3.1943,-3.2126,-3.2254,-3.2173,-3.3003,-3.3559,-3.3549,-3.4436,-3.4766,-3.408,-3.4431,-3.48,-3.5118,-3.5234,-3.5825,-3.7202,-3.6862,-3.7082,-3.8022,-3.8192,-3.8302,-3.8393,-3.885,-3.8988,-3.8846,-3.9016,-3.9118,-1.9804,-2.069,-2.1374,-2.1175,-2.0805,-2.0325,-1.9552,-1.9148,-1.9034,-1.9252,-1.9136,-1.9168,-1.9687,-1.9757,-1.9824,-1.9939,-2.1126,-2.1881,-2.1439,-2.37,-2.5554,-2.5926,-2.9668,-3.252,-3.3326,-3.4507,-3.53,-3.5507,-3.5325,-3.5146,-3.4981,-3.4811,-3.5241,-3.6305,-3.659,-3.6895,-3.7307,-3.7489,-3.7847,-3.8305,-3.8371,-3.828,-3.8043,-3.828,-3.7887,-3.6929,-3.6837,-3.6524,0.0,-3.5331,-3.5054,-3.5092,-3.5092,-3.4945,-3.4733,-3.4551,-3.4104,-3.3469,-3.2827,-3.2755,-3.2919,-3.2502,-3.2277,-3.2152,-3.1916,-3.2089,-3.2021,-3.0565,-3.0329,-3.0628,-3.1262,-3.1757,-3.2229,-3.2802,-3.339,-3.3733,-3.3555,-3.347,-3.3494,-3.3656,-3.2731,-3.191,-3.1847,-3.1155,-3.0616,-3.0642,-3.1209,-3.1748,-3.2135,-3.3212,-3.3964,-3.4048,-3.4988,-3.5469,-3.5109,-3.5365,-3.5676,-3.5884,-3.6201,-3.7006,-3.8296,-3.8077,-3.828,-3.9092,-3.9202,-3.9175,-3.8998,-3.9266,-3.9563,-3.9917,-3.9851,-4.0,0.0,-1.911,-1.9292,-2.0126,-1.9713,-1.8885,-1.8088,-1.8484,0.0,-1.7887,-1.83,-1.8873,-1.8981,-1.8966,-1.9025,-1.9323,-2.0122,-2.1221,-2.2694,-2.3105,-2.4141,-2.6505,-2.9052,-3.0878,-3.1438,-3.3252,-3.4726,-3.5538,-3.5297,-3.5076,-3.5037,-3.4755,-3.448,-3.4223,-3.4651,-3.5268,-3.6171,-3.6496,-3.713,-3.7985,-3.8143,-3.8637,-3.9377,-3.8572,-3.776,-3.6966,-3.6781,-3.6203,-3.5377,-3.5086,-3.5054,-3.5092,-3.5092,-3.487,-3.4508,-3.4464,-3.3931,-3.3232,-3.3238,-3.283,-3.2264,-3.2472,-3.2258,-3.1698,-3.0106,-3.0124,-3.0403,-2.9,-2.9277,-3.0095,-3.0629,-3.1696,-3.2756,-3.2973,-3.3174,-3.3134,-3.2546,-3.2055,-3.1832,-3.2291,-3.1213,-3.0235,-3.0164,-2.95,-2.9049,-2.9342,-3.0279,-3.1244,-3.2282,-3.4023,-3.516,-3.5255,-3.5897,-3.626,-3.6233,-3.6533,-3.6655,-3.6457,-3.725,-3.7993,-3.8579,-3.8998,-3.9283,-3.9514,-3.9526,-3.9276,-3.8833,-3.9232,-4.0065,-4.128,-4.1249,-4.1256,-1.701,0.0,-1.8309,-1.8483,-1.839,-1.8218,0.0,-1.7572,-1.7418,-1.778,-1.7474,-1.7737,-1.9709,-1.9497,-1.9516,-2.0907,-2.19,-2.2383,-2.2121,-2.4235,-2.6501,-2.828,-3.0121,-3.1021,-3.0561,-3.2776,-3.434,-3.4532,-3.5042,-3.4979,-3.4213,-3.4566,-3.4408,-3.3618,-3.4136,-3.4921,-3.5886,-3.5551,-3.5883,-3.6871,-3.6383,-3.629,-3.6484,-3.643,-3.6596,-3.6859,-3.597,-3.5853,-3.6236,-3.5283,-3.4982,-3.5092,-3.4982,-3.4773,-3.4464,-3.4031,-3.3299,-3.2504,-3.2756,-3.2376,-3.1773,-3.1855,-3.0953,-2.969,-2.9182,-2.9697,-3.0387,-2.9669,-2.9668,-3.0158,-3.1494,-3.2292,-3.2704,-3.2669,-3.3379,-3.385,-3.2938,-3.273,-3.2622,-3.2197,-3.0799,-2.9684,-2.9529,-2.8961,-2.8862,-2.9758,-3.1134,-3.2269,-3.2979,-3.5048,-3.6106,-3.5239,-3.6918,-3.7679,-3.6593,-3.6249,-3.6381,-3.7058,-3.747,-3.8026,-3.8803,-3.8998,-3.9229,-3.9514,-3.9723,-3.9595,-3.9104,-3.9518,-4.0131,-4.0833,-4.0631,-4.0994,-1.594,-1.6737,-1.7488,-1.7808,-1.7647,-1.7371,-1.7313,-1.6973,-1.6781,-1.721,-1.6887,-1.7107,-1.8894,-1.8827,-1.9052,-2.0779,-2.1833,-2.2721,-2.3425,-2.5715,-2.7711,-2.8867,-3.0087,-3.0748,-3.0662,-3.2029,-3.3096,-3.3558,-3.4032,-3.3988,-3.3333,-3.3827,-3.3669,-3.2692,-3.3631,-3.4474,-3.5117,-3.5237,-3.5609,-3.6192,-3.5983,-3.5894,-3.5932,-3.562,-3.5697,-3.6074,-3.5402,-3.5385,-3.5751,-3.5134,-3.4889,-3.485,-3.4889,-3.4572,-3.4141,-3.4181,-3.3445,-3.247,-3.2779,-3.1964,-3.072,-3.0316,-2.9576,-2.8744,-2.808,-2.8706,-2.9636,-2.9023,-2.927,-2.9997,-3.1531,-3.264,-3.3329,-3.3313,-3.3691,-3.3854,-3.2998,-3.2207,-3.1491,-3.0942,-2.96,-2.8483,-2.8144,-2.8228,-2.8675,-2.9805,-3.1535,-3.304,-3.4032,-3.5836,-3.6808,-3.6118,-3.7479,-3.8174,-3.7432,-3.7394,-3.7631,-3.8157,-3.851,-3.8903,-3.9319,-3.9649,-3.9946,-4.0234,-3.9991,-3.9878,-4.0019,-4.0064,-4.0574,-4.1432,-4.1394,-4.1759,-1.544,-1.6047,-1.6834,-1.7482,-1.714,-1.6687,-1.6732,-1.6775,-1.6783,-1.6762,-1.6749,-1.7045,-1.8009,-1.8164,-1.8718,-2.0405,-2.1551,-2.3166,-2.5781,-2.7315,-2.8372,-2.8863,-2.9615,-3.0242,-3.0717,-3.1157,-3.1749,-3.2596,-3.2814,-3.2801,-3.2445,-3.2937,-3.2726,-3.1688,-3.2932,-3.3759,-3.4017,-3.5019,-3.5581,-3.5694,-3.5932,-3.6107,-3.6189,-3.5422,-3.5129,-3.5196,-3.5015,-3.4923,-3.4832,-3.4793,-3.473,-3.4561,-3.4672,-3.4344,-3.3808,-3.4295,-3.3665,-3.2576,-3.257,-3.1246,-2.9415,-2.871,-2.8422,-2.8135,-2.7273,-2.7766,-2.8666,-2.8367,-2.896,-3.0061,-3.1524,-3.3003,-3.4105,-3.4242,-3.4084,-3.37,-3.3057,-3.1616,-3.0323,-2.9799,-2.8745,-2.7782,-2.7281,-2.7974,-2.8994,-3.0303,-3.2026,-3.3788,-3.5332,-3.6661,-3.7418,-3.7285,-3.8071,-3.855,-3.8413,-3.8989,-3.9406,-3.9448,-3.9697,-3.9822,-3.9822,-4.0304,-4.0681,-4.0866,-4.0273,-4.0321,-4.0998,-4.0764,-4.1279,-4.2386,-4.2577,-4.2732,-1.614,-1.6435,-1.6551,-1.6611,-1.6534,-1.6629,-1.7286,-1.7484,-1.7547,-1.7588,-1.7699,-1.8225,-1.9662,-1.9903,-2.0455,-2.2136,-2.3767,-2.5735,-2.8346,-2.8852,-2.8922,-2.8983,-2.956,-2.9645,-2.8891,-3.038,-3.1475,-3.1618,-3.2519,-3.2682,-3.1789,-3.2348,-3.2179,-3.0996,-3.1593,-3.2207,-3.2742,-3.3783,-3.4624,-3.5291,-3.5011,-3.4884,-3.4886,-3.503,-3.5108,-3.5092,-3.4794,-3.4655,-3.4614,-3.4458,-3.4344,-3.4335,-3.4018,-3.3909,-3.3888,-3.3248,-3.253,-3.1667,-3.0532,-2.9318,-2.8316,-2.8697,-2.7868,-2.688,-2.7873,-2.8282,-2.8538,-2.9921,-3.0455,-3.0954,-3.2586,-3.3719,-3.4442,-3.4196,-3.4438,-3.438,-3.3105,-3.2643,-3.2164,-3.0832,-3.0158,-2.974,-2.9492,-2.9914,-3.1029,-3.3215,-3.4008,-3.5117,-3.7172,-3.806,-3.8264,-3.7686,-3.9289,-3.9932,-3.8821,-3.9747,-4.0469,-4.0735,-3.9942,-3.9428,-3.9395,-4.0117,-4.0346,-4.0016,-4.0542,-4.0891,-4.1114,-4.1294,-4.186,-4.2734,-4.2494,-4.2454,-1.5719,-1.6138,-1.659,-1.6965,-1.7112,-1.7148,-1.7029,-1.7032,-1.719,-1.7699,-1.7844,-1.8392,-2.005,-2.0721,-2.1698,-2.3874,-2.5591,-2.7125,-2.8459,-2.8554,-2.8657,-2.9054,-2.9168,-2.919,-2.9221,-2.9948,-3.0446,-3.0586,-3.12,-3.1364,-3.0816,-3.1386,-3.1248,-3.0208,-3.1006,-3.1359,-3.121,-3.1978,-3.3057,-3.4375,-3.4413,-3.4413,-3.4458,-3.4655,-3.4812,-3.4832,-3.4567,-3.4435,-3.4413,-3.408,-3.388,-3.3797,-3.3604,-3.3434,-3.3176,-3.2264,-3.1596,-3.0991,-2.9696,-2.8138,-2.6869,-2.7709,-2.693,-2.5927,-2.7801,-2.873,-2.952,-3.1126,-3.1554,-3.1835,-3.3171,-3.3953,-3.4414,-3.4197,-3.3975,-3.3637,-3.2971,-3.2306,-3.1477,-3.0488,-3.005,-2.9816,-2.9862,-3.076,-3.2073,-3.3685,-3.5179,-3.6396,-3.741,-3.8528,-3.9044,-3.8512,-3.9559,-4.0018,-3.9311,-4.005,-4.056,-4.0823,-4.0581,-4.0456,-4.0564,-4.0633,-4.076,-4.0953,-4.1131,-4.1258,-4.1258,-4.1516,-4.2,-4.2774,-4.2768,-4.2768,-1.5757,-1.6258,-1.6971,-1.7761,-1.7979,-1.7965,-1.7727,-1.767,-1.7908,-1.8816,-1.8838,-1.913,-2.0424,-2.1304,-2.2615,-2.4983,-2.6677,-2.7893,-2.8318,-2.8494,-2.8823,-2.9446,-2.9231,-2.926,-2.9839,-2.9796,-2.9687,-2.9607,-2.983,-2.9934,-2.9882,-3.0259,-3.0213,-2.9639,-3.0413,-3.0576,-3.0088,-3.0493,-3.162,-3.3405,-3.3746,-3.4017,-3.4311,-3.4473,-3.4517,-3.4517,-3.4335,-3.4154,-3.3993,-3.3606,-3.3372,-3.3234,-3.314,-3.2876,-3.2412,-3.1239,-3.0592,-3.0069,-2.8584,-2.7018,-2.5654,-2.6346,-2.584,-2.542,-2.7644,-2.9053,-3.0218,-3.1891,-3.2447,-3.2716,-3.3585,-3.3824,-3.3841,-3.3939,-3.3398,-3.2887,-3.2885,-3.2138,-3.1322,-3.0837,-3.0608,-3.0508,-3.0569,-3.1931,-3.3336,-3.4376,-3.6237,-3.7618,-3.7946,-3.8975,-3.9568,-3.9272,-3.9598,-3.9781,-3.9677,-4.0036,-4.028,-4.0254,-4.0623,-4.0922,-4.1199,-4.1019,-4.1286,-4.2015,-4.1701,-4.1569,-4.1701,-4.178,-4.2201,-4.2934,-4.3209,-4.3324,-1.7379,-1.7599,-1.7831,-1.8749,-1.8857,-1.9134,-2.0759,-2.1111,-2.1344,-2.2333,-2.1945,-2.1435,-2.149,-2.2058,-2.3127,-2.4919,-2.6638,-2.8124,-2.9065,-2.9909,-3.0429,-3.0486,-3.0382,-3.0166,-2.9928,-2.999,-2.9665,-2.8758,-2.8879,-2.904,-2.9152,-2.897,-2.9147,-2.9791,-2.9451,-2.9508,-3.0088,-2.9948,-3.081,-3.259,-3.2822,-3.3388,-3.4311,-3.4495,-3.4495,-3.4335,-3.4105,-3.3707,-3.3183,-3.3075,-3.2922,-3.2743,-3.2509,-3.2243,-3.186,-3.0221,-2.9364,-2.8675,-2.6536,-2.5469,-2.5121,-2.4704,-2.4795,-2.5514,-2.7921,-2.9045,-2.9943,-3.2124,-3.3087,-3.3539,-3.4118,-3.3237,-3.2399,-3.3034,-3.2952,-3.2772,-3.2986,-3.3215,-3.3387,-3.3333,-3.3225,-3.3111,-3.2882,-3.4044,-3.5478,-3.6853,-3.7702,-3.8675,-4.0151,-3.989,-3.9549,-3.9664,-3.9696,-3.9625,-3.9554,-3.9785,-3.9709,-3.9056,-3.9325,-3.9606,-4.0016,-4.0911,-4.1639,-4.2086,-4.1959,-4.2092,-4.2616,-4.2405,-4.2693,-4.338,-4.3819,-4.399,-1.6973,-1.7447,-1.7898,-1.8266,-1.9445,-2.0588,-2.0721,-2.0718,-2.1128,-2.2524,-2.2586,-2.2686,-2.3697,-2.3679,-2.4032,-2.58,-2.7547,-2.8836,-2.9296,-3.0091,-3.0664,-3.0713,-3.0542,-3.0366,-3.0232,-3.0126,-2.9923,-2.9434,-2.9565,-2.9677,-2.9717,-2.9574,-2.951,-2.9687,-2.9302,-2.9118,-2.9185,-2.9198,-2.9929,-3.1325,-3.2353,-3.3327,-3.4311,-3.4517,-3.4495,-3.4288,-3.3865,-3.3478,-3.3033,-3.2433,-3.2017,-3.173,-3.1331,-3.1344,-3.1287,-2.9492,-2.8502,-2.7749,-2.5554,-2.4657,-2.4457,-2.4394,-2.4753,-2.5681,-2.8309,-2.9732,-3.0778,-3.2671,-3.2709,-3.2353,-3.2898,-3.2422,-3.1677,-3.1544,-3.1333,-3.1372,-3.2118,-3.2594,-3.2978,-3.3271,-3.3281,-3.3325,-3.3686,-3.4857,-3.6038,-3.6993,-3.8539,-3.9774,-4.0205,-4.0238,-4.0144,-3.9952,-4.0027,-3.9918,-3.942,-3.9895,-4.0098,-3.9838,-3.9947,-4.002,-3.989,-4.103,-4.1811,-4.217,-4.2579,-4.2835,-4.3065,-4.315,-4.357,-4.4342,-4.4613,-4.4706,-1.6655,-1.7236,-1.7878,-1.7825,-1.9664,-2.1429,-2.1111,-2.1274,-2.1897,-2.3317,-2.3416,-2.3466,-2.4341,-2.4245,-2.4399,-2.5649,-2.7525,-2.8752,-2.8622,-2.9595,-3.0312,-3.0374,-3.0224,-3.0161,-3.0356,-3.0225,-2.998,-2.951,-2.9641,-2.9713,-2.967,-2.9589,-2.9439,-2.9242,-2.915,-2.8883,-2.8421,-2.8748,-2.9443,-3.0611,-3.1615,-3.2776,-3.4083,-3.412,-3.4097,-3.4018,-3.3561,-3.2997,-3.2393,-3.1737,-3.1365,-3.1097,-3.0448,-3.0569,-3.0866,-2.8757,-2.7749,-2.7204,-2.504,-2.4296,-2.4338,-2.4322,-2.4778,-2.5773,-2.8179,-2.9732,-3.0924,-3.24,-3.2269,-3.1708,-3.1712,-3.1072,-3.0332,-3.0115,-3.0201,-3.0565,-3.1762,-3.2631,-3.3186,-3.3711,-3.3728,-3.3865,-3.4543,-3.5631,-3.6622,-3.7436,-3.9072,-4.0197,-4.0053,-4.024,-4.0356,-4.022,-4.0304,-4.023,-3.9677,-4.0112,-4.028,-4.0116,-4.0615,-4.0875,-4.0747,-4.1763,-4.2466,-4.274,-4.3228,-4.3506,-4.3506,-4.3798,-4.4265,-4.4921,-4.5229,-4.5418,-1.685,-1.7171,-1.7771,-1.7632,-1.9492,-2.155,-2.2516,-2.3428,-2.434,-2.5236,-2.4731,-2.383,-2.3,-2.3457,-2.4034,-2.4168,-2.6328,-2.7757,-2.7,-2.8346,-2.9414,-2.9476,-2.9445,-2.9613,-3.0231,-3.0293,-2.9819,-2.8698,-2.8803,-2.8845,-2.8707,-2.8707,-2.8607,-2.8395,-2.8832,-2.8735,-2.7996,-2.8594,-2.948,-3.0607,-3.0607,-3.1652,-3.3582,-3.3237,-3.3229,-3.3441,-3.3212,-3.2294,-3.0987,-3.0987,-3.0991,-3.0992,-2.9885,-3.0075,-3.0629,-2.7973,-2.7229,-2.7178,-2.4874,-2.4453,-2.4723,-2.4269,-2.4795,-2.5901,-2.7416,-2.8757,-2.9968,-3.116,-3.1958,-3.2078,-3.082,-2.9196,-2.8145,-2.9065,-2.9747,-3.0673,-3.2218,-3.3475,-3.4476,-3.5067,-3.5228,-3.5329,-3.5785,-3.6569,-3.744,-3.846,-3.9348,-3.9918,-3.9918,-3.9918,-4.0031,-4.037,-4.041,-4.0388,-4.0421,-4.0419,-4.0134,-3.9503,-4.1003,-4.2104,-4.2479,-4.3227,-4.3757,-4.4025,-4.3886,-4.3886,-4.4025,-4.4356,-4.464,-4.4921,-4.569,-4.6055,-1.7584,-1.7706,-1.8091,-1.9126,-2.0889,-2.2598,-2.3294,-2.3629,-2.4026,-2.4983,-2.4611,-2.4197,-2.4486,-2.4292,-2.4272,-2.4879,-2.6766,-2.7844,-2.7008,-2.8395,-2.9251,-2.8656,-2.906,-2.9419,-2.9437,-2.9957,-3.0088,-2.9564,-2.9558,-2.9361,-2.8745,-2.8474,-2.8051,-2.7376,-2.7853,-2.794,-2.7583,-2.8558,-2.928,-2.9752,-2.9749,-3.0686,-3.2398,-3.2061,-3.1776,-3.1582,-3.1555,-3.1046,-3.02,-2.9845,-2.995,-3.0239,-2.8729,-2.8623,-2.9059,-2.7099,-2.6437,-2.6238,-2.4306,-2.4306,-2.5016,-2.4378,-2.5269,-2.6909,-2.862,-2.9662,-3.054,-3.1792,-3.1811,-3.1315,-3.0567,-2.9088,-2.8024,-2.8954,-2.9043,-2.9523,-3.2022,-3.3003,-3.3728,-3.4935,-3.5067,-3.5067,-3.5169,-3.6213,-3.7312,-3.7862,-3.904,-4.0059,-4.052,-4.1096,-4.1143,-4.0508,-4.0832,-4.0916,-4.0419,-4.0863,-4.1406,-4.2024,-4.2822,-4.2798,-4.1677,-4.3045,-4.3957,-4.4208,-4.4713,-4.4939,-4.499,-4.5249,-4.5439,-4.554,-4.5985,-4.6189,-1.7476,-1.7871,-1.8643,-1.9819,-2.1396,-2.2949,-2.3916,-2.4233,-2.4442,-2.5088,-2.4918,-2.4754,-2.5255,-2.4945,-2.4778,-2.5292,-2.6663,-2.7342,-2.6498,-2.7575,-2.8271,-2.7744,-2.8051,-2.8481,-2.9033,-2.9467,-2.9652,-2.9428,-2.9428,-2.9017,-2.8056,-2.7809,-2.7252,-2.6284,-2.719,-2.7323,-2.659,-2.8235,-2.8984,-2.8869,-2.9225,-2.9789,-3.0512,-3.0626,-3.0576,-3.0404,-3.011,-2.9849,-2.9543,-2.9021,-2.909,-2.9385,-2.8095,-2.7905,-2.8111,-2.6417,-2.5935,-2.5826,-2.413,-2.421,-2.4915,-2.4474,-2.5411,-2.6959,-2.8203,-2.9492,-3.0629,-3.1334,-3.1513,-3.1311,-3.0704,-2.9574,-2.8822,-2.9225,-2.9301,-2.9879,-3.2253,-3.3381,-3.4031,-3.4438,-3.4505,-3.4496,-3.47,-3.5792,-3.6858,-3.7372,-3.8467,-3.9588,-4.0554,-4.1331,-4.1621,-4.1285,-4.1638,-4.1843,-4.153,-4.1916,-4.255,-4.3429,-4.4102,-4.4012,-4.2989,-4.4057,-4.4682,-4.4734,-4.5182,-4.5423,-4.5476,-4.5684,-4.5838,-4.5854,-4.609,-4.6189,-1.7043,-1.7929,-1.9298,-2.0122,-2.1483,-2.3031,-2.4407,-2.5043,-2.5322,-2.538,-2.5389,-2.5407,-2.5412,-2.5382,-2.5429,-2.5484,-2.6223,-2.6523,-2.5706,-2.6355,-2.6871,-2.6778,-2.667,-2.7189,-2.8687,-2.881,-2.8717,-2.8563,-2.8518,-2.8029,-2.6916,-2.6767,-2.6302,-2.5241,-2.6702,-2.6849,-2.546,-2.7853,-2.875,-2.8086,-2.8915,-2.8993,-2.8386,-2.9071,-2.9425,-2.9449,-2.8774,-2.8626,-2.8887,-2.8446,-2.8323,-2.8353,-2.7686,-2.7511,-2.7449,-2.5818,-2.555,-2.5714,-2.432,-2.4092,-2.4498,-2.4558,-2.5369,-2.644,-2.6956,-2.8719,-3.0539,-3.0565,-3.1248,-3.1817,-3.1216,-3.0538,-2.9961,-2.9776,-3.0154,-3.1061,-3.2648,-3.3962,-3.4572,-3.3659,-3.3618,-3.3858,-3.4285,-3.5292,-3.6327,-3.7177,-3.7986,-3.8951,-4.0315,-4.112,-4.1758,-4.236,-4.2566,-4.2769,-4.3191,-4.3251,-4.3488,-4.4044,-4.4892,-4.5441,-4.5441,-4.5649,-4.5684,-4.5423,-4.5423,-4.5476,-4.5632,-4.5736,-4.5889,-4.6005,-4.614,-4.6239,-1.8451,-1.8827,-1.9563,-2.156,-2.3313,-2.4622,-2.5072,-2.5284,-2.5357,-2.5244,-2.5313,-2.5407,-2.5412,-2.5382,-2.5382,-2.5429,-2.6216,-2.6507,-2.5657,-2.6308,-2.6639,-2.5876,-2.6273,-2.666,-2.6871,-2.7393,-2.76,-2.7396,-2.7158,-2.6617,-2.5568,-2.5223,-2.4905,-2.4611,-2.5637,-2.6332,-2.6631,-2.8166,-2.8865,-2.8718,-2.864,-2.8391,-2.7986,-2.7869,-2.7594,-2.7245,-2.6841,-2.6993,-2.7581,-2.724,-2.7078,-2.7068,-2.6512,-2.627,-2.6162,-2.4996,-2.4668,-2.4682,-2.3927,-2.4057,-2.4558,-2.4906,-2.6118,-2.7631,-2.8669,-2.9987,-3.1279,-3.2284,-3.2126,-3.1698,-3.2044,-3.1002,-2.9909,-3.0517,-3.0164,-3.0266,-3.2533,-3.2533,-3.2362,-3.3283,-3.3536,-3.3473,-3.3112,-3.4768,-3.6763,-3.8589,-3.956,-4.0289,-4.1156,-4.1862,-4.2164,-4.1726,-4.2548,-4.3103,-4.3191,-4.3547,-4.4158,-4.5161,-4.5459,-4.5649,-4.5854,-4.5838,-4.5736,-4.5581,-4.5684,-4.5684,-4.5632,-4.5838,-4.599,-4.6005,-4.614,-4.6301,-1.8984,-1.939,-2.0109,-2.1608,-2.3005,-2.4091,-2.4502,-2.4387,-2.4308,-2.4636,-2.5128,-2.5498,-2.5444,-2.5452,-2.5444,-2.5445,-2.587,-2.6036,-2.5556,-2.5909,-2.6041,-2.5584,-2.5792,-2.6064,-2.6304,-2.654,-2.6591,-2.6375,-2.6016,-2.5324,-2.4274,-2.3803,-2.3568,-2.3543,-2.4392,-2.5146,-2.5836,-2.7357,-2.8142,-2.8179,-2.8334,-2.7903,-2.6974,-2.6783,-2.6443,-2.5945,-2.605,-2.6275,-2.6542,-2.6645,-2.652,-2.6283,-2.5988,-2.5715,-2.5355,-2.4413,-2.4157,-2.4351,-2.3917,-2.4076,-2.4668,-2.537,-2.6649,-2.7976,-2.8507,-2.9818,-3.1161,-3.15,-3.1532,-3.1391,-3.1252,-3.0424,-2.9704,-2.9781,-2.9909,-3.0493,-3.1955,-3.2101,-3.2036,-3.2573,-3.2828,-3.3093,-3.337,-3.517,-3.7193,-3.9106,-3.938,-3.973,-4.0864,-4.1623,-4.2072,-4.2013,-4.3075,-4.3789,-4.3987,-4.4439,-4.502,-4.5854,-4.6253,-4.6514,-4.6665,-4.6914,-4.6672,-4.5684,-4.5787,-4.5787,-4.5787,-4.5939,-4.6215,-4.67,-4.6864,-4.7272,-1.9058,-1.9844,-2.0698,-2.1048,-2.1978,-2.2962,-2.3505,-2.327,-2.3159,-2.4051,-2.4835,-2.5362,-2.529,-2.5413,-2.5517,-2.5483,-2.5507,-2.549,-2.5499,-2.5511,-2.5537,-2.5581,-2.5416,-2.5551,-2.6121,-2.592,-2.5678,-2.5464,-2.497,-2.4213,-2.3259,-2.2712,-2.2554,-2.2718,-2.3392,-2.4138,-2.4931,-2.6464,-2.7296,-2.7393,-2.7795,-2.7238,-2.5931,-2.5819,-2.547,-2.4958,-2.5379,-2.5503,-2.5358,-2.5891,-2.592,-2.5576,-2.5576,-2.5356,-2.4878,-2.4047,-2.4082,-2.451,-2.414,-2.4368,-2.4975,-2.5923,-2.7013,-2.798,-2.8029,-2.9279,-3.0731,-3.0452,-3.0663,-3.0734,-3.0131,-2.9757,-2.9291,-2.8585,-2.9397,-3.0592,-3.1193,-3.1817,-3.2078,-3.1853,-3.2287,-3.312,-3.4376,-3.5911,-3.7579,-3.9093,-3.8727,-3.8769,-4.0188,-4.1055,-4.1719,-4.2332,-4.3621,-4.4541,-4.4838,-4.544,-4.5926,-4.6265,-4.6949,-4.7368,-4.7368,-4.791,-4.7526,-4.6066,-4.6169,-4.6253,-4.6215,-4.6355,-4.684,-4.7709,-4.7872,-4.8422,-1.8845,-2.0234,-2.1305,-2.0669,-2.1726,-2.2907,-2.2984,-2.2997,-2.3232,-2.412,-2.4404,-2.4472,-2.4477,-2.5074,-2.5576,-2.5517,-2.5511,-2.5493,-2.5515,-2.5486,-2.5512,-2.5492,-2.543,-2.5371,-2.5267,-2.5165,-2.495,-2.4523,-2.4008,-2.3526,-2.314,-2.233,-2.2329,-2.3265,-2.3391,-2.4356,-2.631,-2.6783,-2.7184,-2.7393,-2.6599,-2.5978,-2.5524,-2.48,-2.4214,-2.3803,-2.3594,-2.3481,-2.3477,-2.3616,-2.3931,-2.4341,-2.4341,-2.4613,-2.4962,-2.4394,-2.459,-2.509,-2.503,-2.5424,-2.5985,-2.6505,-2.7428,-2.8441,-2.8993,-2.9533,-3.0296,-3.1801,-3.0837,-2.9555,-3.0424,-2.963,-2.8505,-2.8426,-2.856,-2.911,-3.0417,-3.0367,-3.0438,-3.2025,-3.319,-3.444,-3.5885,-3.6881,-3.7836,-3.8819,-3.8993,-3.9283,-4.0117,-4.1002,-4.1561,-4.1656,-4.3522,-4.4872,-4.4892,-4.5922,-4.6568,-4.6655,-4.6969,-4.7158,-4.7158,-4.7227,-4.7192,-4.6931,-4.7734,-4.7786,-4.7019,-4.7786,-4.8377,-4.877,-4.882,-4.9101,-1.8837,-1.9153,-1.9531,-2.0218,-2.0573,-2.1031,-2.1988,-2.1882,-2.1928,-2.3276,-2.3553,-2.3866,-2.4801,-2.527,-2.5539,-2.5499,-2.5492,-2.5507,-2.5493,-2.5535,-2.5576,-2.5559,-2.5542,-2.5444,-2.5266,-2.5053,-2.4803,-2.4422,-2.3785,-2.3236,-2.2857,-2.2198,-2.2019,-2.2471,-2.2501,-2.3409,-2.527,-2.5853,-2.6597,-2.7539,-2.6446,-2.5614,-2.5073,-2.4205,-2.3563,-2.3201,-2.315,-2.2951,-2.271,-2.3035,-2.3527,-2.4123,-2.4123,-2.4476,-2.4935,-2.4478,-2.4648,-2.5263,-2.5606,-2.6109,-2.6791,-2.7865,-2.8733,-2.9463,-2.974,-3.0227,-3.0776,-3.1302,-3.0465,-2.9427,-2.9426,-2.8639,-2.7568,-2.708,-2.6999,-2.7476,-2.9346,-2.9696,-3.0507,-3.3145,-3.5131,-3.6591,-3.7352,-3.8127,-3.8686,-3.9002,-3.8984,-3.9277,-4.027,-4.0992,-4.1656,-4.2045,-4.3588,-4.4541,-4.4541,-4.5644,-4.633,-4.633,-4.7204,-4.7739,-4.7739,-4.8148,-4.8182,-4.7773,-4.8003,-4.7926,-4.7525,-4.8225,-4.8921,-4.9649,-4.9799,-5.0306,-1.7887,-1.7878,-1.8162,-1.9179,-1.9404,-1.971,-2.082,-2.073,-2.082,-2.2342,-2.2828,-2.3416,-2.4918,-2.5359,-2.5533,-2.5507,-2.5503,-2.5529,-2.5503,-2.555,-2.5605,-2.5601,-2.5609,-2.5542,-2.5406,-2.5142,-2.4839,-2.45,-2.379,-2.3165,-2.2721,-2.2136,-2.1827,-2.1915,-2.1857,-2.2564,-2.4173,-2.4989,-2.5988,-2.7113,-2.6124,-2.5277,-2.461,-2.3746,-2.3113,-2.2752,-2.2696,-2.2435,-2.2115,-2.2678,-2.3409,-2.4094,-2.4254,-2.4668,-2.516,-2.4821,-2.5105,-2.5681,-2.6161,-2.6738,-2.7531,-2.8829,-2.9553,-2.9895,-3.0197,-3.0563,-3.0828,-3.0501,-2.9803,-2.8963,-2.8323,-2.7487,-2.6693,-2.6052,-2.5994,-2.6696,-2.8987,-3.0307,-3.1863,-3.4621,-3.679,-3.8179,-3.824,-3.8859,-3.9235,-3.8943,-3.887,-3.9205,-4.027,-4.106,-4.1787,-4.2522,-4.3787,-4.4596,-4.4596,-4.5862,-4.668,-4.668,-4.7988,-4.8741,-4.8741,-4.9283,-4.9317,-4.8775,-4.8675,-4.8437,-4.8107,-4.8749,-4.9696,-5.085,-5.1101,-5.1838,-1.5285,-1.6868,-1.8401,-1.7036,-1.8546,-2.0152,-1.9488,-1.9878,-2.065,-2.1593,-2.2372,-2.3191,-2.4106,-2.498,-2.5566,-2.5523,-2.5539,-2.5586,-2.5497,-2.5554,-2.5609,-2.5601,-2.5673,-2.5585,-2.5336,-2.5227,-2.4994,-2.4516,-2.389,-2.3374,-2.3091,-2.2281,-2.1945,-2.2237,-2.1945,-2.2483,-2.3908,-2.489,-2.549,-2.5605,-2.508,-2.4668,-2.4194,-2.3333,-2.2678,-2.2217,-2.1705,-2.1464,-2.1464,-2.2019,-2.2985,-2.4154,-2.4603,-2.5197,-2.5853,-2.5825,-2.6213,-2.6722,-2.6749,-2.7444,-2.839,-2.903,-2.9149,-2.9085,-3.0358,-3.0199,-2.9537,-2.9929,-2.8959,-2.7645,-2.7371,-2.6633,-2.599,-2.5906,-2.6256,-2.7294,-3.007,-3.2463,-3.4534,-3.6219,-3.7375,-3.8109,-3.8009,-3.8644,-3.8943,-3.8575,-3.8649,-3.9133,-4.006,-4.0992,-4.1787,-4.2522,-4.4251,-4.537,-4.537,-4.7228,-4.8438,-4.8438,-4.9492,-5.009,-5.009,-5.0156,-5.0156,-5.009,-5.0492,-5.0147,-4.8924,-4.9896,-5.121,-5.2743,-5.2996,-5.3773,-1.5458,-1.613,-1.7016,-1.7898,-1.843,-1.8961,-1.9848,-2.023,-2.0636,-2.1527,-2.1917,-2.2533,-2.3922,-2.4895,-2.5493,-2.5507,-2.5532,-2.5538,-2.5546,-2.5585,-2.5625,-2.5644,-2.5697,-2.5662,-2.5492,-2.5311,-2.5034,-2.4685,-2.3931,-2.3397,-2.3116,-2.248,-2.218,-2.2299,-2.218,-2.2688,-2.388,-2.3911,-2.424,-2.4859,-2.405,-2.3454,-2.31,-2.2627,-2.217,-2.165,-2.1458,-2.141,-2.141,-2.1602,-2.2193,-2.3013,-2.3553,-2.4194,-2.4805,-2.5521,-2.5907,-2.6267,-2.7301,-2.7908,-2.847,-2.985,-3.0147,-3.0233,-3.0942,-3.0927,-3.0581,-3.0459,-2.9328,-2.8021,-2.7694,-2.6774,-2.5888,-2.6022,-2.7367,-2.9103,-3.0676,-3.2849,-3.4986,-3.6312,-3.729,-3.7915,-3.7915,-3.8119,-3.8294,-3.8501,-3.8649,-3.9277,-4.069,-4.126,-4.2141,-4.3797,-4.4522,-4.513,-4.5596,-4.6795,-4.7728,-4.8194,-4.8995,-4.9723,-5.0187,-5.022,-5.0255,-5.029,-5.0493,-5.052,-5.0434,-5.1477,-5.2438,-5.33,-5.3806,-5.4435,-1.5281,-1.5729,-1.6432,-1.7752,-1.8164,-1.8401,-1.901,-1.9769,-2.0366,-2.042,-2.1086,-2.2017,-2.3125,-2.4029,-2.4772,-2.5352,-2.5226,-2.5174,-2.5503,-2.5538,-2.5595,-2.5664,-2.566,-2.5642,-2.5605,-2.5311,-2.4983,-2.4719,-2.3931,-2.3328,-2.3116,-2.2588,-2.2237,-2.2152,-2.2152,-2.2411,-2.3022,-2.2925,-2.3067,-2.339,-2.3106,-2.2655,-2.2016,-2.2045,-2.1793,-2.1313,-2.1313,-2.1361,-2.141,-2.1602,-2.2055,-2.2683,-2.3398,-2.4068,-2.4769,-2.5615,-2.6217,-2.674,-2.7825,-2.8446,-2.8937,-3.0334,-3.0598,-3.0505,-3.1203,-3.1124,-3.0674,-3.0258,-2.9234,-2.8139,-2.7599,-2.6705,-2.6086,-2.6389,-2.8119,-3.005,-3.11,-3.3116,-3.5008,-3.5998,-3.6682,-3.707,-3.707,-3.7329,-3.7663,-3.8098,-3.8546,-3.9391,-4.1095,-4.1649,-4.2557,-4.45,-4.5119,-4.5616,-4.6113,-4.7305,-4.8233,-4.873,-4.9725,-5.0488,-5.0916,-5.1087,-5.1223,-5.1491,-5.1799,-5.2134,-5.2527,-5.2494,-5.2962,-5.3918,-5.4437,-5.518,0.0,0.0,0.0,-1.6396,-1.7675,-1.8564,-1.6888,-1.8461,-1.9819,-1.8261,-1.9884,-2.1565,-2.1604,-2.235,-2.343,-2.5039,-2.4695,-2.4476,-2.5297,-2.5466,-2.5532,-2.5595,-2.5609,-2.5589,-2.5593,-2.5181,-2.4815,-2.4691,-2.3814,-2.3224,-2.3067,-2.2561,-2.2123,-2.1827,-2.1797,-2.1615,-2.1308,-2.1989,-2.1947,-2.1209,-2.2317,-2.2266,-2.1091,-2.1536,-2.1554,-2.1193,-2.1193,-2.1264,-2.141,-2.1935,-2.2583,-2.3263,-2.4204,-2.5018,-2.5821,-2.6149,-2.715,-2.8339,-2.8283,-2.8938,-2.9875,-3.0569,-3.0269,-2.9741,-3.1046,-3.0581,-2.9645,-2.9401,-2.865,-2.7713,-2.6821,-2.639,-2.6324,-2.6907,-2.8498,-3.0168,-3.1559,-3.3114,-3.462,-3.5386,-3.5548,-3.5548,-3.5548,-3.6267,-3.7,-3.7434,-3.8219,-3.9493,-4.1292,-4.2126,-4.3167,-4.4599,-4.6046,-4.6908,-4.6941,-4.8928,-5.0187,-5.022,-5.1685,-5.2553,-5.2373,-5.2727,-5.3168,-5.369,-5.4568,-5.5069,-5.5235,-5.3004,-5.2924,-5.4768,-5.5097,-5.6073,-1.5174,0.0,0.0,0.0,0.0,0.0,-1.6653,-1.8082,-1.9385,-1.8932,-1.9904,-2.0983,-2.1551,-2.1415,-2.1726,-2.3334,-2.3934,-2.4483,-2.5344,-2.5434,-2.5447,-2.5527,-2.5527,-2.549,-2.5328,-2.4955,-2.4623,-2.4222,-2.332,-2.2686,-2.2466,-2.1878,-2.1678,-2.1797,-2.146,-2.1244,-2.1181,-2.0989,-2.0884,-2.0708,-2.0533,-2.0534,-2.0683,-2.0625,-2.0839,-2.1193,-2.1095,-2.1193,-2.141,-2.1554,-2.1951,-2.2527,-2.3236,-2.4134,-2.5159,-2.6002,-2.6542,-2.7104,-2.8773,-2.9222,-2.9262,-3.0777,-3.0837,-3.0348,-3.1119,-3.0596,-2.9725,-2.9738,-2.9093,-2.8128,-2.713,-2.6969,-2.7136,-2.7807,-2.9083,-3.0345,-3.1464,-3.2587,-3.3725,-3.4538,-3.4703,-3.4703,-3.4703,-3.5386,-3.6267,-3.7127,-3.8144,-3.9571,-4.1784,-4.241,-4.352,-4.6019,-4.6643,-4.7106,-4.7636,-4.8763,-4.9657,-5.0187,-5.1151,-5.1951,-5.2553,-5.2624,-5.3131,-5.4149,-5.4395,-5.5111,-5.6291,-5.5924,-5.602,-5.6756,-5.7438,-5.7715,-1.588,-1.6514,-1.725,-1.6839,0.0,0.0,-1.6188,-1.7379,-1.841,-1.7738,-1.8565,-1.9577,-2.0029,-2.0062,-2.0428,-2.1687,-2.26,-2.347,-2.4284,-2.4663,-2.4895,-2.4962,-2.4878,-2.4888,-2.5072,-2.4347,-2.3822,-2.3687,-2.2713,-2.1978,-2.1576,-2.1368,-2.1244,-2.1308,-2.0991,-2.0797,-2.0632,-2.0398,-2.0193,-2.005,-1.9845,-1.9888,-2.0187,-2.047,-2.0914,-2.1361,-2.1264,-2.1458,-2.1841,-2.165,-2.1793,-2.2245,-2.3034,-2.4054,-2.5236,-2.5956,-2.6733,-2.763,-2.9259,-2.947,-2.926,-3.0631,-3.0478,-2.982,-3.0627,-2.9892,-2.8874,-2.9455,-2.8835,-2.772,-2.6476,-2.6768,-2.764,-2.821,-2.9486,-3.0711,-3.1689,-3.2673,-3.3471,-3.381,-3.381,-3.381,-3.381,-3.462,-3.5548,-3.6632,-3.7968,-3.9565,-4.1651,-4.2837,-4.4081,-4.5761,-4.6453,-4.6879,-4.7033,-4.7749,-4.8605,-4.9604,-5.0467,-5.1437,-5.252,-5.2764,-5.3341,-5.4289,-5.4974,-5.6194,-5.7954,-5.706,-5.6921,-5.761,-5.8697,-5.8992,-1.6652,-1.7293,-1.7968,-1.7462,-1.7508,0.0,-1.555,-1.66,-1.7466,-1.5783,-1.682,-1.8036,-1.7916,-1.8654,-1.9527,-2.0227,-2.1046,-2.1879,-2.2779,-2.3596,-2.4099,-2.4036,-2.3937,-2.4039,-2.4476,-2.3369,-2.2676,-2.2865,-2.1915,-2.1116,-2.0635,-2.083,-2.0862,-2.0597,-2.0496,-2.0258,-1.997,-1.9935,-1.9726,-1.9428,-1.9817,-1.9904,-1.9795,-2.0785,-2.1352,-2.1602,-2.165,-2.1983,-2.2466,-2.2123,-2.2077,-2.2402,-2.3319,-2.4477,-2.5771,-2.6168,-2.7374,-2.894,-2.9622,-2.9648,-2.9522,-3.0277,-2.956,-2.8648,-2.9807,-2.8867,-2.7672,-2.8715,-2.8208,-2.6954,-2.555,-2.6448,-2.7847,-2.8517,-2.9792,-3.1158,-3.2215,-3.3104,-3.3556,-3.324,-3.3154,-3.3154,-3.3154,-3.4147,-3.5196,-3.6243,-3.7848,-3.9694,-4.1434,-4.3372,-4.4615,-4.4678,-4.5885,-4.6442,-4.5864,-4.6455,-4.7521,-4.8853,-4.9961,-5.1113,-5.2449,-5.3039,-5.365,-5.4424,-5.6131,-5.784,-5.9561,-5.7382,-5.6836,-5.7928,-5.9295,-5.9947,-1.7309,-1.7607,-1.7613,-1.6555,-1.6911,0.0,-1.4694,-1.6585,-1.8375,-1.6684,-1.7719,-1.8751,-1.8106,-1.8699,-1.9333,-1.945,-2.0152,-2.1249,-2.2756,-2.3624,-2.3821,-2.3007,-2.3335,-2.331,-2.2428,-2.2042,-2.1627,-2.1,-2.0479,-2.0165,-2.0058,-2.0154,-2.0292,-2.0499,-2.012,-1.9904,-1.9833,-1.9472,-1.9398,-1.9617,-1.9555,-1.9739,-2.0144,-2.0934,-2.1397,-2.1602,-2.186,-2.2189,-2.2512,-2.274,-2.2994,-2.3231,-2.3691,-2.4872,-2.6259,-2.6704,-2.7442,-2.8384,-2.9546,-2.9461,-2.9,-3.0132,-2.9434,-2.8297,-2.9005,-2.847,-2.7744,-2.8076,-2.7811,-2.7281,-2.7209,-2.7467,-2.8181,-2.9981,-3.066,-3.1335,-3.3104,-3.353,-3.3725,-3.3641,-3.3556,-3.3556,-3.3556,-3.4924,-3.6301,-3.7171,-3.8784,-4.0651,-4.2824,-4.3488,-4.4153,-4.5372,-4.5746,-4.6063,-4.6487,-4.715,-4.789,-4.8739,-5.0306,-5.1386,-5.1776,-5.3298,-5.4527,-5.541,-5.7398,-5.8393,-5.8253,-5.9258,-5.9614,-5.9258,-6.032,-6.0492,-1.8021,-1.8281,-1.8213,-1.7262,-1.7181,0.0,0.0,-1.6414,-1.7694,-1.7322,-1.7586,-1.8039,-1.8527,-1.8618,-1.8943,-1.9758,-1.991,-2.0312,-2.1496,-2.1925,-2.2069,-2.1873,-2.1457,-2.113,-2.0988,-2.005,-1.9165,-1.8457,-1.8506,-1.8627,-1.8655,-1.9051,-1.9449,-1.9844,-2.0098,-2.0235,-2.0235,-2.0079,-1.9963,-1.9908,-2.0085,-2.0049,-1.9954,-2.1355,-2.1912,-2.186,-2.2328,-2.2694,-2.3054,-2.3201,-2.3803,-2.4579,-2.4833,-2.5913,-2.7248,-2.7425,-2.7673,-2.8188,-2.9448,-2.9137,-2.8352,-2.996,-2.9182,-2.7742,-2.8656,-2.8203,-2.7334,-2.665,-2.6693,-2.6889,-2.6429,-2.6883,-2.7988,-3.0067,-3.0763,-3.1462,-3.3564,-3.4063,-3.4063,-3.4063,-3.4063,-3.3979,-3.3725,-3.4538,-3.5791,-3.7365,-3.866,-4.0334,-4.2652,-4.3577,-4.4141,-4.4479,-4.4887,-4.5086,-4.5003,-4.5618,-4.6453,-4.7606,-4.9273,-5.0768,-5.2006,-5.349,-5.4898,-5.6224,-5.7638,-5.8325,-5.8388,-6.0078,-6.049,-5.9809,-6.0954,-6.1386,-1.8532,-1.8717,-1.8675,-1.7985,-1.7504,-1.6937,0.0,0.0,0.0,-1.766,-1.7155,-1.6995,-1.8384,-1.8086,-1.8106,-1.953,-1.9293,-1.8993,-1.932,-1.9149,-1.9249,-2.0063,-1.8867,-1.8126,-1.8597,-1.6831,-1.558,-1.5466,-1.6094,-1.6535,-1.6715,-1.7772,-1.8626,-1.9217,-2.0,-2.0537,-2.0733,-2.0645,-2.0369,-1.9964,-2.0512,-2.0441,-1.9809,-2.1701,-2.2454,-2.2282,-2.2694,-2.3172,-2.361,-2.3799,-2.4725,-2.6052,-2.6091,-2.6978,-2.8297,-2.8243,-2.8198,-2.8336,-2.9436,-2.8913,-2.8003,-2.9518,-2.8549,-2.7139,-2.8297,-2.7925,-2.6962,-2.5804,-2.6064,-2.6516,-2.5616,-2.6455,-2.8029,-3.0024,-3.0919,-3.1871,-3.3959,-3.4397,-3.4397,-3.4397,-3.4476,-3.4444,-3.3894,-3.4224,-3.5239,-3.7289,-3.8552,-4.0067,-4.2041,-4.3438,-4.4004,-4.3409,-4.3849,-4.4065,-4.3509,-4.4137,-4.5092,-4.6487,-4.8263,-5.0217,-5.2183,-5.3811,-5.5437,-5.7002,-5.7569,-5.8118,-5.8703,-6.0121,-6.059,-6.0219,-6.143,-6.2168,-1.8432,-1.8188,-1.7687,-1.7038,-1.6941,-1.683,-1.6064,0.0,-1.727,-1.751,0.0,-1.6498,-1.667,0.0,0.0,-1.6742,-1.716,-1.71,-1.6164,-1.512,-1.5051,-1.6659,-1.5647,-1.4361,-1.3205,-1.1183,-1.0489,-1.1867,-1.2893,-1.3734,-1.425,-1.6581,-1.8341,-1.9341,-1.9413,-1.9888,-2.0872,-1.9946,-1.9439,-1.9429,-2.0071,-2.0297,-2.0278,-2.1583,-2.2409,-2.2785,-2.2875,-2.3172,-2.3683,-2.4762,-2.5978,-2.7185,-2.6893,-2.7685,-2.9011,-2.9281,-2.9205,-2.8987,-2.9635,-2.9177,-2.8287,-2.8343,-2.7432,-2.6563,-2.7684,-2.7648,-2.7277,-2.7486,-2.7326,-2.713,-2.702,-2.7808,-2.9057,-3.0993,-3.2154,-3.3089,-3.4121,-3.4397,-3.4397,-3.4397,-3.4816,-3.5025,-3.4392,-3.5375,-3.6493,-3.7397,-3.9363,-4.1082,-4.1966,-4.2871,-4.3409,-4.3329,-4.3409,-4.3648,-4.4137,-4.4796,-4.5484,-4.6341,-4.8667,-5.0388,-5.1263,-5.4518,-5.6718,-5.7746,-5.7819,-5.7925,-5.8027,-5.9447,-6.0344,-6.0927,-6.1636,-6.2168,-1.851,-1.8298,-1.7872,-1.7636,-1.6969,-1.6431,-1.6671,-1.6964,-1.7511,-1.8649,0.0,0.0,0.0,0.0,0.0,0.0,-1.7188,-1.6407,-1.5825,-1.388,-1.2833,-1.3631,-1.2118,-1.0377,-0.8822,-0.8047,-0.8062,-0.9003,-0.9908,-1.119,-1.3062,-1.4676,-1.6534,-1.8515,-1.9145,-1.9781,-2.0545,-1.984,-1.9534,-1.9529,-2.0178,-2.0428,-2.046,-2.1925,-2.2694,-2.2949,-2.3628,-2.403,-2.4282,-2.5741,-2.6992,-2.8081,-2.8479,-2.9459,-3.0624,-3.039,-3.0163,-3.0067,-3.0244,-2.9673,-2.8897,-2.862,-2.8375,-2.8264,-2.8241,-2.8056,-2.7985,-2.8527,-2.861,-2.8504,-2.9066,-2.9338,-3.0037,-3.1723,-3.2347,-3.2954,-3.4152,-3.4685,-3.5005,-3.5063,-3.5536,-3.5963,-3.5897,-3.6114,-3.669,-3.7881,-3.8863,-4.018,-4.1971,-4.2386,-4.282,-4.3438,-4.3768,-4.4018,-4.4287,-4.5274,-4.6077,-4.6431,-4.9161,-5.1645,-5.3616,-5.5435,-5.688,-5.7881,-5.7881,-5.7881,-5.7881,-5.9314,-6.0156,-6.0468,-6.16,-6.2222,-1.8619,-1.8493,-1.8272,-1.7988,-1.6958,-1.621,-1.7113,-1.7116,-1.7435,-1.9345,-1.8364,0.0,0.0,0.0,-1.7151,-1.8051,0.0,-1.5788,-1.5282,-1.3122,-1.1612,-1.1661,-0.9477,-0.7314,-0.5614,-0.5522,-0.5924,-0.6798,-0.7704,-0.9239,-1.1567,-1.3339,-1.5378,-1.7721,-1.8806,-1.9803,-2.0789,-2.0062,-1.9862,-2.0136,-2.0607,-2.0823,-2.0964,-2.2317,-2.3091,-2.3421,-2.4112,-2.4621,-2.5002,-2.6517,-2.7705,-2.8621,-2.9848,-3.0844,-3.1581,-3.1171,-3.0894,-3.0749,-3.0582,-2.9927,-2.913,-2.905,-2.9199,-2.9291,-2.89,-2.8821,-2.8895,-2.9309,-2.9528,-2.9854,-3.0284,-3.0611,-3.1215,-3.2516,-3.2918,-3.3431,-3.4585,-3.5142,-3.5568,-3.5897,-3.6399,-3.6883,-3.7084,-3.6796,-3.6928,-3.8054,-3.8727,-3.9723,-4.142,-4.2121,-4.2702,-4.3359,-4.4088,-4.4479,-4.4479,-4.571,-4.678,-4.7532,-4.9934,-5.2536,-5.5336,-5.5985,-5.6768,-5.7881,-5.7881,-5.7881,-5.7881,-5.9113,-5.9838,-6.0093,-6.1508,-6.2238,-1.8737,-1.8676,-1.8597,-1.7529,-1.6706,-1.6387,-1.7188,-1.6848,-1.6915,-1.891,-1.7994,-1.7089,-1.7993,-1.7261,-1.6445,-1.6218,-1.5776,0.0,0.0,-1.2222,-1.1295,-1.114,-0.8312,-0.5676,-0.3957,-0.3129,-0.3509,-0.531,-0.6696,-0.8008,-0.9343,-1.2978,-1.5745,-1.729,-1.8387,-1.9921,-2.2039,-2.0492,-2.0218,-2.1253,-2.1253,-2.154,-2.1983,-2.2752,-2.3616,-2.4537,-2.4161,-2.4615,-2.5674,-2.695,-2.7887,-2.8662,-3.0613,-3.1307,-3.1335,-3.145,-3.1162,-3.0773,-3.0495,-2.974,-2.89,-2.9478,-2.9135,-2.8585,-2.9394,-2.9756,-2.9909,-2.9729,-3.0287,-3.0738,-3.0202,-3.124,-3.2625,-3.3157,-3.4152,-3.5219,-3.5778,-3.5938,-3.6125,-3.6711,-3.727,-3.767,-3.767,-3.767,-3.767,-3.7696,-3.9462,-4.0631,-4.0166,-4.2023,-4.3254,-4.2747,-4.4088,-4.4989,-4.4989,-4.6204,-4.7843,-4.9905,-5.085,-5.2454,-5.5106,-5.5907,-5.6768,-5.7881,-5.7881,-5.7881,-5.7881,-5.8598,-5.9346,-6.0184,-6.1564,-6.2238,-2.0608,-2.0419,-2.004,-1.8922,-1.7755,-1.6875,-1.6986,-1.7041,-1.7299,-1.8084,-1.8093,-1.7956,-1.7783,-1.7135,-1.6355,-1.557,-1.5086,-1.4239,0.0,-1.1318,-1.0154,-0.9221,-0.6625,-0.4556,-0.3597,-0.325,-0.3886,-0.5913,-0.666,-0.7955,-1.0128,-1.1983,-1.4154,-1.6685,-1.8008,-1.9609,-2.1676,-2.1894,-2.241,-2.3084,-2.3084,-2.3549,-2.4347,-2.3892,-2.4034,-2.4721,-2.5452,-2.5529,-2.5373,-2.8201,-2.9056,-2.8652,-2.99,-3.0432,-3.0501,-3.0719,-3.0475,-3.0142,-3.0008,-3.0061,-3.0312,-3.0519,-3.0343,-3.019,-3.0495,-3.057,-3.0801,-3.163,-3.2071,-3.2515,-3.3372,-3.3927,-3.4301,-3.465,-3.4895,-3.5245,-3.5915,-3.6258,-3.6796,-3.7584,-3.8148,-3.8523,-3.8728,-3.8728,-3.8639,-3.8372,-3.8899,-3.9598,-4.017,-4.1312,-4.2291,-4.285,-4.4559,-4.5809,-4.6264,-4.8072,-4.9647,-5.0882,-5.1364,-5.2681,-5.5165,-5.5505,-5.6348,-5.7881,-5.7881,-5.7881,-5.7881,-5.8737,-5.9513,-6.0282,-6.1897,-6.2604,-2.1808,-2.1732,-2.1477,-2.0416,-1.9314,-1.8436,-1.7979,-1.8043,-1.8268,-1.8396,-1.8537,-1.8622,-1.8673,-1.7681,-1.6625,-1.5978,-1.5247,-1.4162,0.0,-1.1294,-1.0245,-0.9057,-0.6932,-0.5273,-0.4614,-0.463,-0.5516,-0.7391,-0.7973,-0.9127,-1.1228,-1.2731,-1.451,-1.6734,-1.8312,-2.0243,-2.2616,-2.314,-2.396,-2.5112,-2.4952,-2.5106,-2.5571,-2.5106,-2.485,-2.4695,-2.5873,-2.5936,-2.5383,-2.801,-2.8885,-2.8689,-2.9366,-2.9592,-2.971,-2.9736,-2.9776,-2.9706,-2.9428,-3.0087,-3.0947,-3.0738,-3.0817,-3.0973,-3.0973,-3.1048,-3.1281,-3.217,-3.2749,-3.333,-3.4393,-3.4928,-3.5249,-3.5386,-3.5547,-3.5787,-3.6404,-3.6967,-3.7584,-3.8351,-3.8843,-3.9114,-3.9292,-3.9292,-3.9203,-3.8872,-3.9221,-3.9681,-4.0239,-4.1594,-4.2736,-4.3284,-4.5514,-4.7302,-4.8218,-4.9641,-5.0682,-5.1356,-5.1594,-5.2801,-5.5198,-5.5312,-5.6244,-5.8287,-5.809,-5.8162,-5.8361,-5.901,-5.9731,-6.0452,-6.2164,-6.3032]},{"header":{"parameterUnit":"m.s-1","parameterCategory":1,"la1":30.6,"la2":29.2853,"lo1":-89.7004,"lo2":-87.6739,"dy":0.0162,"dx":0.0183,"nx":112,"ny":82,"refTime":"2024-03-05T18:00:00:Z","depth":0,"parameterNumber":3,"parameterNumberName":"V-component_of_WINDS"},"data":[0.0,0.0,0.0,0.0,0.0,0.0,0.0,0.0,0.0,0.0,0.0,0.0,0.0,0.0,0.0,0.0,0.0,0.0,0.0,0.0,0.0,0.0,0.0,0.0,0.0,0.0,0.0,0.0,0.0,0.0,0.0,0.0,0.0,0.0,0.0,0.0,0.0,0.0,0.0,0.0,0.0,0.0,0.0,0.0,0.0,0.0,0.0,0.0,0.0,0.0,0.0,0.0,0.0,0.0,0.0,0.0,0.0,0.0,0.0,0.0,0.0,0.0,0.0,0.0,0.0,0.0,0.0,0.0,0.0,0.0,0.0,0.0,0.0,0.0,0.0,0.0,0.0,0.0,0.0,0.0,0.0,0.0,0.0,0.0,0.0,0.0,0.0,0.0,0.0,0.0,0.065,0.1174,0.0255,-0.0264,-0.0128,0.0603,0.1229,0.177,0.0,0.0,0.0,0.0,0.0,0.0,0.0,0.0,0.0,0.0,0.0,0.0,0.0,0.0,0.0,0.0,0.0,0.0,0.0,0.0,0.0,0.0,0.0,0.0,0.0,0.0,0.0,0.0,0.0,0.0,0.0,0.0,0.0,0.0,0.0,0.0,0.0,0.0,0.0,0.0,0.0,0.0,0.0,0.0,0.0,0.0,0.0,0.0,0.0,0.0,0.0,0.0,0.0,0.0,0.0,0.0,0.0,0.0,0.0,0.0,0.0,0.0,0.0,0.0,0.0,0.0,0.0,0.0,0.0,0.0,0.0,0.0,0.0,0.0,0.0,0.0,0.0,0.0,0.0,0.0,0.0,0.0,0.0,0.0,0.0,0.0,0.0,0.0,0.0,0.0,0.0,0.0,0.0,0.0,0.0,0.0,0.0,0.0,0.0,0.0,0.0,0.0,0.0,0.0,0.016,-0.0543,-0.0317,0.0,0.0311,0.076,0.1365,0.2174,0.0,0.0,0.0,0.0,0.0,0.0,0.0,0.0,0.0,0.0,0.0,0.0,0.0,0.0,0.0,0.0,0.0,0.0,0.0,0.0,0.0,0.0,0.0,0.0,0.0,0.0,0.0,0.0,0.0,0.0,0.0,0.0,0.0,0.0,0.0,0.0,0.0,0.0,0.0,0.0,0.0,0.0,0.0,0.0,0.0,0.0,0.0,0.0,0.0,0.0,0.0,0.0,0.0,0.0,0.0,0.0,0.0,0.0,0.0,0.0,0.0,0.0,0.0,0.0,0.0,0.0,0.0,0.0,0.0,0.0,0.0,0.0,0.0,0.0,0.0,0.0,0.0,0.0,0.0,0.0,0.0,0.0,0.0,0.0,0.0,0.0,0.0,0.0,0.0,0.0,0.0,0.0,0.0,0.0,0.0,0.0,0.0,0.0,0.0,0.0,0.0,0.0,0.0,0.0154,-0.0274,-0.1183,-0.062,-0.0061,0.0185,0.0394,0.0886,0.1613,0.1837,0.0,0.0,0.0,0.0,0.0,0.0,0.0,0.0,0.0,0.0,0.0,0.0,0.0,0.0,0.0,0.0,0.0,0.0,0.0,0.0,0.0,0.0,0.0,0.0,0.0,0.0,0.0,0.0,0.0,0.0,0.0,0.0,0.0,0.0,0.0,0.0,0.0,0.0,0.0,0.0,0.0,0.0,0.0,0.0,0.0,0.0,0.0,0.0,0.0,0.0,0.0,0.0,0.0,0.0,0.0,0.0,0.0,0.0,0.0,0.0,0.0,0.0,0.0,0.0,0.0,0.0,0.0,0.0,0.0,0.0,0.0,0.0,0.0,0.0,0.0,0.0,0.0,0.0,0.0,0.0,0.0,0.0,0.0,0.0,0.0,0.0,0.0,0.0,0.0,0.0,0.0,0.0,0.0,0.0,0.0,0.0,0.0,0.0,0.0,0.0,0.0,0.0,-0.0586,-0.0882,-0.1621,-0.1027,-0.0474,-0.0244,0.0,0.0453,0.1106,0.1346,0.0,0.0,0.0,0.0,0.0,0.0,0.0,0.0,0.0,0.0,0.0,0.0,0.0,0.0,0.0,0.0,0.0,0.0,0.0,0.0,0.0,0.0,0.0,0.0,0.0,0.0,0.0,0.0,0.0,0.0,0.0,0.0,0.0,0.0,0.0,0.0,0.0,0.0,0.0,0.0,0.0,0.0,0.0,0.0,0.0,0.0,0.0,0.0,0.0,0.0,0.0,0.0,0.0,0.0,0.0,0.0,0.0,0.0,0.0,0.0,0.0,0.0,0.0,0.0,0.0,0.0,0.0,0.0,0.0,0.0,0.0,0.0,0.0,0.0,0.0,0.0,0.0,0.0,0.0,0.0,0.0,0.0,0.0,0.0,0.0,0.0,0.0,0.0,0.0,0.0,0.0,0.0,0.0,0.0,0.0,0.0,0.0,0.0,0.0,0.0,0.0,0.0,-0.1523,-0.1903,-0.2287,-0.1944,-0.1471,-0.0946,-0.0376,0.0403,0.1307,0.1627,0.0,0.0,0.0,0.0,0.0,0.0,0.0,0.0,0.0,0.0,0.0,0.0,0.0,0.0,0.0,0.0,0.0,0.0,0.0,0.0,0.0,0.0,0.0,0.0,0.0,0.0,0.0,0.0,0.0,0.0,0.0,0.0,0.0,0.0,0.0,0.0,0.0,0.0,0.0,0.0,0.0,0.0,0.0,0.0,0.0,0.0,0.0,0.0,0.0,0.0,0.0,0.0,0.0,0.0,0.0,0.0,0.0,0.0,0.0,0.0,0.0,0.0,0.0,0.0,0.0,0.0,0.0,0.0,0.0,0.0,0.0,0.0,0.0,0.0,0.0,0.0,0.0,0.0,0.0,0.0,0.0,0.0,0.0,0.0,0.0,0.0,0.0,0.0,0.0,0.0,0.0,0.0,0.0,0.0,0.0,0.0,0.0,0.0,0.0,0.0,0.0,0.0,-0.1208,-0.1417,-0.1104,-0.1098,-0.0913,-0.04,-0.0318,0.0299,0.1556,0.0,0.0,0.0,0.0,0.0,0.0,0.0,0.0,0.0,0.0,0.0,0.0,0.0,0.0,0.0,0.0,0.0,0.0,0.0,0.0,0.0,0.0,0.0,0.0,0.0,0.0,0.0,0.0,0.0,0.0,0.0,0.0,0.0,0.0,0.0,0.0,0.0,0.0,0.0,0.0,0.0,0.0,0.0,0.0,0.0,0.0,0.0,0.0,0.0,0.0,0.0,0.0,0.0,0.0,0.0,0.0,0.0,0.0,0.0,0.0,0.0,0.0,0.0,0.0,0.0,0.0,0.0,0.0,0.0,0.0,0.0,0.0,0.0,0.0,0.0,0.0,0.0,0.0,0.0,0.0,0.0,0.0,0.0,0.0,0.0,0.0,0.0,0.0,0.0,0.0,0.0,0.0,0.0,0.0,0.0,0.0,0.0,0.0,0.0,0.0,0.0,0.0,-0.0199,-0.0654,-0.0836,-0.0287,-0.0341,-0.0279,0.0166,0.0412,0.0926,0.1903,0.0,0.0,0.0,0.0,0.0,0.0,0.0,0.0,0.0,0.0,0.0,0.0,0.0,0.0,0.0,0.0,0.0,0.0,0.0,0.0,0.0,0.0,0.0,0.0,0.0,0.0,0.0,0.0,0.0,0.0,0.0,0.0,0.0,0.0,0.0,0.0,0.0,0.0,0.0,0.0,0.0,0.0,0.0,0.0,0.0,0.0,0.0,0.0,0.0,0.0,0.0,0.0,0.0,0.0,0.0,0.0,0.0,0.0,0.0,0.0,0.0,0.0,0.0,0.0,0.0,0.0,0.0,0.0,0.0,0.0,0.0,0.0,0.0,0.0,0.0,0.0,0.0,0.0,0.0,0.0,0.0,0.0,0.0,0.0,0.0,0.0,0.0,0.0,0.0,0.0,0.0,0.0,0.0,0.0,0.0,0.0,0.0,0.0,0.0,0.0,0.0,0.0,0.0448,-0.0151,-0.0415,0.0,0.0,0.0166,0.0587,0.1781,0.2454,0.0,0.0,0.0,0.0,0.0,0.0,0.0,0.0,0.0,0.0,0.0,0.0,0.0,0.0,0.0,0.0,0.0,0.0,0.0,0.0,0.0,0.0,0.0,0.0,0.0,0.0,0.0,0.0,0.0,0.0,0.0,0.0,0.0,0.0,0.0,0.0,0.0,0.0,0.0,0.0,0.0,0.0,0.0,0.0,0.0,0.0,0.0,0.0,0.0,0.0,0.0,0.0,0.0,0.0,0.0,0.0,0.0,0.0,0.0,0.0,0.0,0.0,0.0,0.0,0.0,0.0,0.0,0.0,0.0,0.0,0.0,0.0,0.0,0.0,0.0,0.0,0.0,0.0,0.0,0.0,0.0,0.0,0.0,0.0,0.0,0.0,0.0,0.0,0.0,0.0,0.0,0.0,0.0,0.0,0.0,0.0,0.0,0.0,0.0,0.0,0.0,0.0,0.0,0.0748,0.0906,0.0984,0.1114,0.1287,0.131,0.0979,0.1696,0.2019,0.1691,0.0,0.0,0.0,0.0,0.0,0.0,0.0,0.0,0.0,0.0,0.0,0.0,0.0,0.0,0.0,0.0,0.0,0.0,0.0,0.0,0.0,0.0,0.0,0.0,0.0,0.0,0.0,0.0,0.0,0.0,0.0,0.0,0.0,0.0,0.0,0.0,0.0,0.0,0.0,0.0,0.0,0.0,0.0,0.0,0.0,0.0,0.0,0.0,0.0,0.0,0.0,0.0,0.0,0.0,0.0,0.0,0.0,0.0,0.0,0.0,0.0,0.0,0.0,0.0,0.0,0.0,0.0,0.0,0.0,0.0,0.0,0.0,0.0,0.0,0.0,0.0,0.0,0.0,0.0,0.0,0.0,0.0,0.0,0.0,0.0,0.0,0.0,0.0,0.0,0.0,0.0,0.0,0.0,0.0,0.0,0.0,0.0,0.0,0.0,0.0,0.0,0.0,0.1699,0.1887,0.1947,0.2004,0.2178,0.201,0.1371,0.2301,0.2594,0.1669,0.0,0.0,0.0,0.0,0.0,0.0,0.0,0.0,0.0,0.0,0.0,0.0,0.0,0.0,0.0,0.0,0.0,0.0,0.0,0.0,0.0,0.0,0.0,0.0,0.0,0.0,0.0,0.0,0.0,0.0,0.0,0.0,0.0,0.0,0.0,0.0,0.0,0.0,0.0,0.0,0.0,0.0,0.0,0.0,0.0,0.0,0.0,0.0,0.0,0.0,0.0,0.0,0.0,0.0,0.0,0.0,0.0,0.0,0.0,0.0,0.0,0.0,0.0,0.0,0.0,0.0,0.0,0.0,0.0,0.0,0.0,0.0,0.0,0.0,0.0,0.0,0.0,0.0,0.0,0.0,0.0,0.0,0.0,0.0,0.0,0.0,0.0,0.0,0.0,0.0,0.0,0.0,0.0,0.0,0.0,0.0,0.0,0.0,0.0,0.0,0.0,0.0,0.2854,0.2702,0.2531,0.267,0.279,0.2555,0.1725,0.3395,0.3758,0.2084,0.0,0.0,0.0,0.0,0.0,0.0,0.0,0.0,0.0,0.0,0.0,0.0,0.0,0.0,0.0,0.0,0.0,0.0,0.0,0.0,0.0,0.0,0.0,0.0,0.0,0.0,0.0,0.0,0.0,0.0,0.0,0.0,0.0,0.0,0.0,0.0,0.0,0.0,0.0,0.0,0.0,0.0,0.0,0.0,0.0,0.0,0.0,0.0,0.0,0.0,0.0,0.0,0.0,0.0,0.0,0.0,0.0,0.0,0.0,0.0,-0.5407,-0.5651,0.0,0.0,0.0,0.0,0.0,0.0,0.0,0.0,0.0,0.0,0.0,0.0,0.0,0.0,0.0,0.0,0.0,0.0,0.0,0.0,0.0,0.0,0.0,0.0,0.0,0.0,0.0,0.0,0.0,0.0,0.0,0.0,0.0,0.0,0.0,0.0,0.0,0.0,0.0,0.0,0.1855,0.2646,0.2955,0.2559,0.3516,0.3636,0.2434,0.4045,0.4368,0.2734,0.4001,0.0,0.0,0.0,0.0,0.0,0.0,0.0,0.0,0.0,0.0,0.0,0.0,0.0,0.0,0.0,0.0,0.0,0.0,0.0,0.0,0.0,0.0,0.0,0.0,0.0,0.0,0.0,0.0,0.0,0.0,0.0,0.0,0.0,0.0,0.0,0.0,0.0,0.0,0.0,0.0,0.0,0.0,0.0,0.0,0.0,0.0,0.0,0.0,0.0,0.0,0.0,0.0,0.0,0.0,0.0,0.0,0.0,0.0,0.0,-0.4985,-0.5146,0.0,0.0,0.0,0.0,0.0,0.0,0.0,0.0,0.0,0.0,0.0,0.0,0.0,0.0,0.0,0.0,0.0,0.0,0.0,0.0,0.0,0.0,0.0,0.0,0.0,0.0,0.0,0.0,0.0,0.0,0.0,0.0,0.0,0.0,0.0,0.0,0.0,0.0,0.0,0.0,0.2209,0.2847,0.312,0.2845,0.3683,0.3718,0.2439,0.3636,0.3955,0.2765,0.3766,0.0,0.0,0.0,0.0,0.0,0.0,0.0,0.0,0.0,0.0,0.0,0.0,0.0,0.0,0.0,0.0,0.0,0.0,0.0,0.0,0.0,0.0,0.0,0.0,0.0,0.0,0.0,0.0,0.0,0.0,0.0,0.0,0.0,0.0,0.0,0.0,0.0,0.0,0.0,0.0,0.0,0.0,0.0,0.0,0.0,0.0,0.0,0.0,0.0,0.0,0.0,0.0,0.0,-0.5955,-0.5706,-0.5435,-0.4941,-0.4617,-0.4434,-0.4422,-0.4357,-0.4378,-0.5091,0.0,0.0,0.0,0.0,0.0,0.0,0.0,0.0,0.0,0.0,0.0,0.0,0.0,0.0,0.0,0.0,0.0,0.0,0.0,0.0,0.0,0.0,-0.4991,-0.5431,-0.5348,-0.4912,-0.3994,0.0,0.0,0.0,0.0,0.0,0.0,0.0,0.0,0.0,0.0,0.0,0.264,0.3009,0.3188,0.3077,0.3744,0.3638,0.2344,0.312,0.3441,0.2876,0.3484,0.3709,0.0,0.0,0.0,0.0,0.0,0.0,0.0,0.0,0.0,0.0,0.0,0.0,0.0,0.0,0.0,0.0,0.0,0.0,0.0,0.0,0.0,0.0,0.0,0.0,0.0,0.0,0.0,0.0,0.0,0.0,0.0,0.0,-0.7982,-0.7036,0.0,0.0,0.0,0.0,0.0,0.0,0.0,0.0,0.0,0.0,0.0,0.0,0.0,-0.6452,-0.595,-0.6233,-0.61,-0.552,-0.5652,-0.5292,-0.4481,-0.4398,-0.4157,-0.3715,-0.3754,0.0,-0.4288,-0.4316,0.0,0.0,0.0,0.0,0.0,0.0,0.0,0.0,0.0,0.0,0.0,0.0,0.0,0.0,0.0,0.0,0.0,0.0,0.0,0.0,0.0,0.0,-0.5677,-0.5732,-0.584,-0.5635,-0.4824,-0.4114,-0.3649,-0.3649,-0.3341,-0.2627,0.0,0.0,0.0,0.0,0.0,0.0,0.1792,0.2893,0.3516,0.2961,0.4015,0.4287,0.298,0.3729,0.4163,0.3915,0.3831,0.4227,0.5132,0.3336,0.0,0.0,0.0,0.0,0.0,0.0,0.0,0.0,0.0,0.0,0.0,0.0,0.0,0.0,0.0,0.0,0.0,0.0,0.0,0.0,0.0,0.0,0.0,0.0,0.0,0.0,0.0,0.0,0.0,-0.8727,-0.7756,-0.6919,-0.7974,-0.8577,0.0,0.0,0.0,0.0,0.0,0.0,0.0,0.0,0.0,-0.676,-0.6373,-0.5599,-0.4446,-0.4656,-0.4593,-0.4213,-0.4134,-0.4038,-0.3843,-0.3402,-0.3354,-0.3614,-0.3579,-0.3482,-0.33,-0.3944,-0.3771,-0.3025,0.0,0.0,0.0,0.0,-0.2097,-0.1722,-0.1737,-0.1346,-0.0934,-0.1556,0.0,0.0,0.0,0.0,0.0,0.0,0.0,-0.3235,-0.3961,-0.5193,-0.637,-0.6852,-0.658,-0.6057,-0.5452,-0.4353,-0.3488,-0.3535,-0.296,-0.2231,-0.1344,-0.047,0.0,0.0,0.0,0.2247,0.2018,0.3011,0.3572,0.335,0.4125,0.4155,0.2952,0.3162,0.3569,0.4024,0.3913,0.4363,0.5439,0.4617,0.3595,0.0,0.0,0.0,0.0,0.0,0.0,0.0,0.0,0.0,0.0,0.0,0.0,0.0,0.0,0.0,0.0,0.0,0.0,0.0,0.0,0.0,0.0,0.0,0.0,0.0,0.0,0.0,0.0,-0.7346,-0.736,-0.6751,-0.7559,-0.7916,0.0,0.0,0.0,0.0,0.0,0.0,-0.7843,-0.7589,-0.7181,-0.6607,-0.6132,-0.5152,-0.3636,-0.3585,-0.3376,-0.2891,-0.2534,-0.27,-0.3275,-0.2075,-0.1991,-0.27,-0.2658,-0.2313,-0.1765,-0.3158,-0.2903,-0.1563,-0.0991,-0.067,-0.0581,-0.0953,-0.0865,-0.0563,-0.0637,-0.0591,-0.0484,-0.0591,-0.0641,-0.0582,-0.0566,0.0,0.0,0.0,0.0,-0.3717,-0.4741,-0.5853,-0.6919,-0.7846,-0.7218,-0.6285,-0.5754,-0.451,-0.3448,-0.3184,-0.2518,-0.1746,-0.1161,-0.0049,0.0,0.1376,0.2159,0.2613,0.2473,0.3244,0.3793,0.3627,0.4125,0.4058,0.298,0.2706,0.3037,0.4066,0.3994,0.4492,0.5834,0.5652,0.4742,0.3096,0.0,0.0,0.0,0.0,0.0,0.0,0.0,0.0,0.0,0.0,0.0,0.0,0.0,0.0,0.0,0.0,0.0,0.0,0.0,0.0,0.0,0.0,0.0,0.0,0.0,0.0,0.0,0.0,0.0,-0.5837,-0.6297,0.0,0.0,0.0,0.0,-0.7516,-0.7802,-0.8033,-0.818,-0.8077,-0.7797,-0.7205,-0.6209,-0.5245,-0.4267,-0.3743,-0.2944,-0.1849,-0.1297,-0.1615,-0.2679,-0.0333,0.0388,-0.0166,-0.0166,0.0,0.011,-0.1551,-0.1497,-0.0399,-0.0199,0.0199,0.0701,0.0678,0.0688,0.0691,0.0771,0.0781,0.0783,0.0779,0.0435,0.0053,0.0053,-0.0672,0.0,0.0,-0.2633,-0.4115,-0.5293,-0.623,-0.716,-0.8277,-0.7534,-0.6396,-0.5675,-0.4594,-0.349,-0.2395,-0.1814,-0.1109,0.0251,0.0,0.1019,0.2265,0.2865,0.3116,0.2888,0.3788,0.4236,0.3683,0.4125,0.4184,0.342,0.2875,0.3153,0.4485,0.4166,0.4794,0.6846,0.6004,0.5396,0.5172,0.381,0.0,0.0,0.0,0.0,0.0,0.0,0.0,0.0,0.0,0.0,0.0,0.0,0.0,0.0,0.0,0.0,0.0,0.0,0.0,0.0,0.0,0.0,0.0,0.0,0.0,0.0,0.0,0.0,-0.65,-0.6783,0.0,-0.6359,-0.698,-0.7295,-0.7001,-0.7393,-0.7749,-0.8041,-0.7855,-0.7716,-0.7776,-0.6736,-0.5913,-0.5375,-0.4684,-0.386,-0.2948,-0.1193,-0.0809,-0.1509,0.0167,0.1618,0.2905,0.2901,0.2956,0.3012,0.236,0.2035,0.1976,0.2077,0.2025,0.1983,0.2,0.2028,0.2032,0.2057,0.2066,0.2066,0.2063,0.1937,0.17,0.1317,0.0381,-0.0593,-0.1025,-0.2501,-0.4219,-0.5383,-0.6357,-0.7289,-0.8355,-0.7664,-0.6524,-0.5467,-0.4161,-0.2768,-0.13,-0.1079,-0.0696,0.0523,0.1063,0.1666,0.2446,0.3081,0.3413,0.3345,0.4015,0.4408,0.4181,0.4353,0.4216,0.3566,0.3224,0.3673,0.5225,0.4709,0.532,0.7489,0.6875,0.6089,0.53,0.4543,0.3463,0.0,0.0,0.0,0.0,0.0,0.0,0.0,0.0,0.0,0.0,0.0,0.0,0.0,0.0,0.0,0.0,0.0,0.0,0.0,0.0,0.0,0.0,0.0,0.0,0.0,-0.6465,-0.663,-0.6949,-0.702,-0.6899,-0.6452,-0.6927,-0.7157,-0.6834,-0.723,-0.7669,-0.8153,-0.8145,-0.8255,-0.8545,-0.8016,-0.7228,-0.6173,-0.5823,-0.514,-0.3999,-0.1947,-0.0761,-0.0278,0.0558,0.1788,0.3304,0.415,0.4317,0.4089,0.4353,0.413,0.3619,0.3666,0.3506,0.3296,0.3154,0.3123,0.3123,0.2845,0.3016,0.3294,0.3128,0.2961,0.2683,0.2293,0.106,-0.0335,-0.0783,-0.24,-0.4236,-0.521,-0.6253,-0.73,-0.809,-0.7717,-0.6848,-0.5638,-0.4381,-0.2952,-0.1062,-0.0672,-0.0222,0.0921,0.1488,0.2054,0.2817,0.3299,0.3683,0.3904,0.4242,0.4519,0.4519,0.4519,0.4333,0.3845,0.3527,0.388,0.4996,0.4815,0.5402,0.7043,0.6753,0.6273,0.5608,0.4701,0.37,0.2534,0.0,0.0,0.0,0.0,0.0,0.0,0.0,0.0,0.0,0.0,0.0,0.0,0.0,0.0,0.0,0.0,0.0,0.0,0.0,0.0,0.0,0.0,0.0,-0.5696,-0.6002,-0.6396,-0.6986,-0.6895,-0.6761,-0.6773,-0.6773,-0.6869,-0.7062,-0.7399,-0.786,-0.8464,-0.9062,-0.9392,-0.9398,-1.0027,-0.9204,-0.6619,-0.7165,-0.6603,-0.4884,-0.3474,-0.1548,0.0773,0.0779,0.0781,0.0894,0.3294,0.391,0.3289,0.4125,0.4463,0.4463,0.445,0.4505,0.4636,0.4021,0.3904,0.3898,0.3183,0.3627,0.4463,0.3959,0.3405,0.2905,0.2905,0.1228,-0.0671,-0.0838,-0.24,-0.4125,-0.4718,-0.5982,-0.7192,-0.761,-0.7717,-0.7396,-0.6253,-0.5328,-0.4003,-0.1732,-0.0616,0.0392,0.1623,0.1846,0.2237,0.3461,0.3627,0.0,0.4408,0.4519,0.4519,0.4519,0.4519,0.4409,0.4214,0.3767,0.3646,0.3893,0.4507,0.5042,0.5492,0.5613,0.5839,0.618,0.4361,0.3318,0.302,0.0,0.0,0.0,0.0,0.0,0.0,0.0,0.0,0.0,0.0,0.0,0.0,0.0,0.0,0.0,0.0,0.0,0.0,0.0,0.0,0.0,-0.4333,-0.4961,-0.5052,-0.5153,-0.5349,-0.5838,-0.574,-0.5888,-0.651,-0.6571,-0.6733,-0.7097,-0.7275,-0.7518,-0.7887,-0.8332,-0.8815,-0.9357,-0.994,-0.9882,-0.9067,-0.858,-0.7785,-0.6622,-0.613,-0.4409,-0.1705,-0.1431,-0.1492,-0.1613,0.0388,0.1333,0.1724,0.3611,0.4174,0.3904,0.4291,0.4512,0.4519,0.4353,0.4408,0.4463,0.4298,0.4463,0.4787,0.4622,0.4181,0.3577,0.3072,0.1676,0.0224,-0.0392,-0.2011,-0.3677,-0.4271,-0.5647,-0.7074,-0.7557,-0.7717,-0.7396,-0.6234,-0.4976,-0.3605,-0.2115,-0.0838,0.0504,0.2178,0.246,0.2845,0.407,0.4242,0.4298,0.4463,0.4519,0.4519,0.4519,0.4565,0.4565,0.4416,0.4147,0.4196,0.4654,0.5006,0.5435,0.6066,0.5804,0.5543,0.5389,0.4578,0.4068,0.0,0.0,0.0,0.0,0.0,0.0,0.0,0.0,0.0,0.0,0.0,0.0,0.0,0.0,0.0,0.0,0.0,0.0,0.0,0.0,0.0,0.0,-0.4099,-0.4518,-0.4599,-0.4907,-0.5237,-0.5457,-0.5892,-0.6345,-0.6849,-0.716,-0.7356,-0.7416,-0.7533,-0.7577,-0.7515,-0.8105,-0.8606,-0.9072,-0.9985,-1.0305,-0.9982,-0.9743,-0.9069,-0.7909,-0.7829,-0.6923,-0.5179,-0.3747,-0.3094,-0.2947,-0.1109,0.0,0.0669,0.2556,0.3113,0.2952,0.0,0.0,0.0,0.0,0.4739,0.4794,0.4794,0.4849,0.4897,0.4959,0.4353,0.3527,0.3124,0.1652,0.0,-0.0457,-0.2107,-0.3812,-0.4144,-0.5489,-0.6804,-0.7175,-0.7477,-0.7399,-0.6341,-0.5194,-0.3946,-0.2623,-0.1283,0.0,0.1676,0.2345,0.3123,0.4298,0.4519,0.4519,0.4519,0.4519,0.4519,0.4519,0.4601,0.4558,0.4525,0.4389,0.0,0.0,0.0,0.5292,0.5405,0.5485,0.0,0.0,0.0,0.4877,0.4362,0.2511,0.0,0.0,-0.0466,-0.0607,0.0,0.0,0.0,0.0,0.0,0.0,0.0,0.0,0.0,0.0,0.0,0.0,0.0,0.0,0.0,0.0,-0.3724,-0.389,-0.4252,-0.5023,-0.5527,-0.5527,-0.6608,-0.7359,-0.7415,-0.8015,-0.8294,-0.7949,-0.7968,-0.7775,-0.7334,-0.8132,0.0,0.0,0.0,-1.0592,-1.0034,-1.0567,-1.0208,-0.891,-0.8871,-0.8738,-0.8536,-0.59,-0.4242,-0.3466,-0.1734,-0.0729,-0.0112,0.1065,0.1676,0.2004,0.4223,0.4897,0.4581,0.4816,0.4927,0.4927,0.4949,0.0,0.0,0.5123,0.4287,0.3185,0.3212,0.1354,-0.0767,-0.0823,-0.2466,-0.4176,-0.4216,-0.5331,-0.6548,-0.6666,-0.7111,-0.7336,-0.6444,-0.5637,-0.4663,-0.3263,-0.1908,-0.0619,0.0564,0.1852,0.3072,0.4236,0.4477,0.4539,0.4574,0.4532,0.4539,0.4574,0.4546,0.0,0.4546,0.4504,0.4174,0.3447,0.4351,0.4664,0.4143,0.4897,0.5044,0.4461,0.5382,0.542,0.4587,0.2494,0.1,0.01,-0.0379,-0.0623,0.0,0.0,0.0,0.0,0.0,0.0,0.0,0.0,0.0,0.0,0.0,0.0,0.0,0.0,0.0,-0.3064,-0.3395,-0.3748,-0.4381,-0.4819,-0.5019,-0.5019,-0.5783,-0.647,-0.6885,-0.7457,-0.7892,-0.8212,-0.7833,-0.7516,-0.7305,-0.7907,-0.8516,-0.892,-1.0009,-1.0639,-1.0709,-1.0294,-0.9984,-0.971,-0.9081,0.0,-0.7376,-0.6749,-0.5466,-0.3708,-0.3209,-0.2432,-0.1454,-0.0232,0.0855,0.1949,0.3395,0.3904,0.386,0.4485,0.4934,0.5178,0.5255,0.5485,0.5723,0.5723,0.4763,0.3565,0.3399,0.1581,0.0,-0.0474,-0.2151,-0.3876,-0.3773,-0.5115,-0.6488,-0.6524,-0.6934,-0.7074,-0.612,-0.5361,-0.4622,-0.3593,-0.2503,-0.1348,-0.012,0.1559,0.2956,0.3683,0.4282,0.477,0.5077,0.4847,0.477,0.5132,0.4789,0.4598,0.466,0.4637,0.4349,0.3869,0.3815,0.3734,0.3649,0.3939,0.3926,0.3458,0.4094,0.4646,0.507,0.3013,0.1794,0.1244,-0.0892,-0.1682,0.0,0.0,0.0,0.0,0.0,0.0,0.0,0.0,0.0,0.0,0.0,0.0219,-0.0502,0.0,-0.1987,-0.3161,-0.372,-0.4155,-0.466,-0.4823,-0.4918,-0.4918,-0.5594,-0.6309,-0.6922,-0.7511,-0.7974,-0.8474,-0.8025,-0.7552,-0.7081,-0.8011,-0.8627,-0.8609,-0.9978,-1.0625,-1.0523,-1.0292,-0.995,-0.9556,-0.891,-0.8245,-0.7654,-0.6972,-0.5925,-0.4545,-0.4134,-0.3409,-0.2407,-0.1501,-0.053,0.0515,0.1745,0.2752,0.3633,0.4038,0.4515,0.5046,0.5217,0.5514,0.5707,0.5306,0.4473,0.3451,0.2939,0.113,-0.0691,-0.0681,-0.2361,-0.4193,-0.4131,-0.5265,-0.6344,-0.6438,-0.644,-0.6275,-0.5715,-0.4963,-0.4255,-0.3664,-0.2707,-0.1814,-0.1227,0.0479,0.2167,0.3518,0.4042,0.4473,0.5042,0.4931,0.4893,0.51,0.4823,0.4636,0.4631,0.4267,0.4151,0.4452,0.3261,0.2905,0.355,0.3574,0.3591,0.3583,0.4127,0.4379,0.4321,0.222,0.0817,0.0111,-0.1963,-0.2411,0.0,0.0,0.0,0.0,0.0,0.0,0.0,0.2442,0.2119,0.1458,0.1112,0.068,-0.033,-0.1051,-0.1889,-0.3239,-0.3904,-0.4395,-0.487,-0.4891,-0.4877,-0.4877,-0.5616,-0.6412,-0.7072,-0.7614,-0.8122,-0.855,-0.8142,-0.757,-0.6852,-0.8164,-0.8728,-0.8256,-0.9923,-1.0518,-1.0053,-1.0155,-0.9765,-0.9045,-0.8526,-0.8062,-0.7722,-0.6856,-0.5901,-0.5006,-0.4393,-0.3717,-0.2977,-0.2345,-0.1754,-0.106,0.006,0.1532,0.3044,0.3519,0.4188,0.486,0.5201,0.5451,0.5616,0.4837,0.4036,0.3263,0.225,0.0518,-0.1102,-0.1096,-0.2838,-0.4656,-0.4696,-0.541,-0.6101,-0.6252,-0.5793,-0.5343,-0.5162,-0.4411,-0.3804,-0.3547,-0.2857,-0.2243,-0.2131,-0.0688,0.1057,0.2952,0.3579,0.4081,0.4796,0.4877,0.4952,0.5039,0.4816,0.4658,0.4683,0.3882,0.3748,0.4713,0.2853,0.2239,0.3194,0.3105,0.3219,0.3565,0.3921,0.3845,0.3319,0.0952,-0.0579,-0.1395,-0.3001,-0.296,0.4285,0.4572,0.4893,0.4413,0.4161,0.381,0.0,0.255,0.2277,0.2193,0.1613,0.1042,0.0614,0.0098,-0.0872,-0.2705,-0.3128,-0.3659,-0.4924,-0.4981,-0.4896,-0.4896,-0.556,-0.6267,-0.6938,-0.7476,-0.7944,-0.8249,-0.7837,-0.7372,-0.688,-0.7947,-0.8538,-0.8452,-0.973,-1.0194,-0.9945,-0.9285,-0.8836,-0.8457,-0.7929,-0.7151,-0.6139,-0.6178,-0.5387,-0.3967,-0.3457,-0.3202,-0.3071,-0.2368,-0.1998,-0.1704,-0.0827,0.0059,0.1054,0.3241,0.4237,0.4622,0.5307,0.5831,0.5966,0.5094,0.4282,0.3379,0.186,0.02,-0.1198,-0.1752,-0.327,-0.4766,-0.472,-0.5165,-0.5661,-0.5675,-0.5185,-0.4574,-0.4179,-0.3841,-0.3547,-0.3189,-0.3075,-0.2842,-0.2252,-0.1464,-0.0458,0.0928,0.2822,0.4233,0.4674,0.4957,0.5241,0.5638,0.5213,0.4913,0.5029,0.3916,0.3479,0.4157,0.2875,0.2016,0.1832,0.1948,0.2064,0.2052,0.1628,0.184,0.2707,-0.0119,-0.1495,-0.151,-0.3251,-0.348,0.5464,0.5436,0.5284,0.4262,0.397,0.3818,0.3148,0.2665,0.2307,0.2225,0.1859,0.1316,0.0614,0.01,-0.0791,-0.2603,-0.3232,-0.3826,-0.4653,-0.4713,-0.4553,-0.4267,-0.4785,-0.552,-0.6561,-0.6726,-0.7169,-0.7954,-0.7531,-0.7141,-0.6942,-0.7521,-0.7912,-0.7912,-0.8818,-0.9209,-0.9103,-0.8788,-0.8476,-0.8171,-0.7318,-0.6634,-0.608,-0.5535,-0.4791,-0.3891,-0.3366,-0.314,-0.3091,-0.3172,-0.3122,-0.3043,-0.246,-0.1946,-0.1106,0.1886,0.3324,0.3937,0.4977,0.5502,0.553,0.4423,0.3845,0.3213,0.1138,-0.0201,-0.1274,-0.2249,-0.3647,-0.4869,-0.5147,-0.5436,-0.5617,-0.5617,-0.491,-0.4219,-0.4022,-0.3661,-0.3318,-0.316,-0.277,-0.2315,-0.2075,-0.1074,-0.0133,0.0455,0.1894,0.3144,0.3751,0.431,0.4646,0.472,0.4511,0.424,0.3885,0.3021,0.2739,0.3554,0.2306,0.1629,0.1896,0.1582,0.1329,0.1201,0.0695,0.0375,0.0308,-0.1387,-0.245,-0.2985,-0.3789,-0.3949,0.7075,0.6441,0.5554,0.4555,0.4222,0.3968,0.3482,0.2959,0.246,0.2241,0.2033,0.1609,0.0615,0.0152,-0.0592,-0.2363,-0.3182,-0.3757,-0.4213,-0.4395,-0.434,-0.4038,-0.4163,-0.4707,-0.5828,-0.5987,-0.6325,-0.7277,-0.7054,-0.684,-0.6724,-0.7233,-0.7521,-0.7521,-0.8158,-0.8516,-0.8516,-0.832,-0.8148,-0.7926,-0.6892,-0.6181,-0.569,-0.4748,-0.4109,-0.3761,-0.336,-0.3255,-0.3392,-0.3794,-0.4027,-0.4057,-0.374,-0.3461,-0.2856,0.0118,0.1974,0.3209,0.4502,0.5182,0.5253,0.4116,0.3595,0.3084,0.0738,-0.0537,-0.1412,-0.2817,-0.3946,-0.4948,-0.5484,-0.5617,-0.555,-0.5411,-0.4688,-0.3961,-0.3828,-0.3493,-0.3159,-0.3092,-0.2415,-0.1879,-0.1745,-0.0604,0.0336,0.0336,0.1276,0.2214,0.2817,0.3551,0.3956,0.3823,0.3623,0.3288,0.2817,0.2083,0.1949,0.2613,0.1678,0.1266,0.1694,0.1305,0.0846,0.0452,-0.0195,-0.0903,-0.1711,-0.279,-0.3644,-0.4345,-0.4734,-0.4919,0.9331,0.7815,0.6029,0.5863,0.5342,0.4734,0.4201,0.3453,0.281,0.2549,0.2309,0.1896,0.0856,0.0659,0.0054,-0.1742,-0.2638,-0.328,-0.3746,-0.4094,-0.4335,-0.4455,-0.3994,-0.394,-0.4743,-0.5307,-0.5724,-0.6036,-0.6166,-0.6211,-0.6219,-0.703,-0.7521,-0.7521,-0.8179,-0.8482,-0.8482,-0.7885,-0.7656,-0.7797,-0.6835,-0.572,-0.4555,-0.3745,-0.3376,-0.3226,-0.3226,-0.3493,-0.3956,-0.3961,-0.429,-0.4626,-0.4174,-0.4041,-0.3898,-0.1914,0.0305,0.2505,0.3859,0.4875,0.5438,0.4556,0.3931,0.3084,0.0737,-0.0537,-0.1479,-0.3422,-0.4356,-0.4948,-0.5484,-0.5617,-0.5484,-0.4948,-0.4422,-0.3828,-0.336,-0.3226,-0.3092,-0.2753,-0.2281,-0.1745,-0.1412,-0.0336,0.0471,0.0336,0.1076,0.1747,0.208,0.275,0.3218,0.3218,0.2616,0.2144,0.2142,0.1542,0.1141,0.1138,0.1141,0.1008,0.0875,0.1008,0.0663,-0.0322,-0.1319,-0.2144,-0.2761,-0.429,-0.5121,-0.5258,-0.6283,-0.6454,1.0584,1.0114,0.9591,0.8968,0.7182,0.5539,0.5376,0.4067,0.2904,0.2995,0.2859,0.2403,0.1575,0.1338,0.0721,-0.0951,-0.1686,-0.2352,-0.3164,-0.3309,-0.3345,-0.3441,-0.3866,-0.4157,-0.4151,-0.4522,-0.4844,-0.5122,-0.5151,-0.5222,-0.5185,-0.5524,-0.5873,-0.621,-0.6578,-0.6941,-0.7282,-0.7216,-0.6958,-0.6595,-0.5447,-0.4527,-0.3728,-0.3423,-0.3254,-0.3226,-0.3226,-0.3493,-0.4028,-0.4356,-0.4857,-0.5277,-0.5401,-0.5336,-0.5003,-0.3776,-0.2071,-0.0194,0.1967,0.3556,0.4498,0.3806,0.3458,0.2947,0.1272,-0.0134,-0.1477,-0.328,-0.4284,-0.5014,-0.5881,-0.5881,-0.555,-0.5352,-0.4948,-0.4356,-0.3828,-0.3556,-0.3288,-0.282,-0.1611,-0.0604,-0.0471,0.1007,0.2281,0.2542,0.1879,0.168,0.2418,0.2415,0.2345,0.2345,0.1542,0.0871,0.0402,-0.0067,-0.0336,-0.0336,0.0067,0.0336,0.0269,0.0336,0.0,-0.086,-0.2264,-0.3535,-0.4646,-0.5538,-0.6197,-0.671,-0.6846,-0.6933,1.2909,1.2679,1.2366,1.1437,0.9314,0.7237,0.6408,0.4757,0.3403,0.3234,0.2986,0.2581,0.1845,0.1481,0.0879,-0.0357,-0.1141,-0.179,-0.2302,-0.2651,-0.2923,-0.3213,-0.3933,-0.4388,-0.4334,-0.4429,-0.4547,-0.4663,-0.4601,-0.4621,-0.4693,-0.4864,-0.5099,-0.544,-0.5641,-0.6001,-0.6581,-0.6687,-0.6375,-0.5517,-0.4535,-0.3799,-0.3393,-0.3324,-0.3307,-0.3275,-0.3242,-0.3645,-0.4349,-0.47,-0.5213,-0.5881,-0.6145,-0.6079,-0.5815,-0.5014,-0.387,-0.246,0.0392,0.2209,0.3396,0.3529,0.3218,0.2546,0.1674,0.0201,-0.1544,-0.348,-0.4411,-0.508,-0.6284,-0.6218,-0.5815,-0.5617,-0.5345,-0.4882,-0.4023,-0.3623,-0.3218,-0.2214,-0.094,0.0067,0.0403,0.1879,0.3222,0.3813,0.275,0.2016,0.2351,0.1879,0.141,0.1276,0.0604,-0.0134,-0.0807,-0.1008,-0.121,-0.1479,-0.0806,-0.0403,-0.0403,-0.0604,-0.1001,-0.1782,-0.3321,-0.464,-0.5771,-0.648,-0.7019,-0.7481,-0.7593,-0.7691,1.6102,1.531,1.4065,1.3066,1.1527,0.9621,0.7183,0.546,0.4113,0.322,0.2856,0.2468,0.1701,0.1183,0.0699,0.0052,-0.0904,-0.1472,-0.122,-0.2124,-0.3092,-0.3749,-0.4039,-0.4502,-0.5208,-0.5046,-0.4812,-0.4687,-0.4466,-0.4472,-0.4634,-0.4868,-0.5009,-0.5087,-0.5336,-0.5714,-0.6268,-0.6263,-0.572,-0.4603,-0.4024,-0.3663,-0.3346,-0.3419,-0.3371,-0.3352,-0.3203,-0.3818,-0.4999,-0.4876,-0.5425,-0.6416,-0.6284,-0.6284,-0.635,-0.569,-0.5087,-0.414,-0.1002,0.0935,0.2272,0.368,0.3147,0.1877,0.1872,0.0335,-0.1745,-0.3875,-0.4677,-0.5213,-0.6548,-0.6679,-0.635,-0.5815,-0.5683,-0.5286,-0.3885,-0.3556,-0.295,-0.1208,-0.0403,0.0336,0.1277,0.2351,0.3355,0.4289,0.3689,0.282,0.2013,0.1208,0.0537,0.0,-0.0403,-0.0941,-0.1613,-0.1412,-0.1544,-0.2281,-0.1611,-0.121,-0.121,-0.1741,-0.2378,-0.3095,-0.448,-0.5524,-0.6172,-0.7104,-0.7713,-0.7829,-0.8469,-0.8894,1.694,1.5773,1.3847,1.3163,1.1225,0.9006,0.7474,0.5481,0.3846,0.3466,0.307,0.2648,0.224,0.1594,0.0966,0.0504,-0.0214,-0.0835,-0.1133,-0.1695,-0.2124,-0.2497,-0.3902,-0.4829,-0.4902,-0.5415,-0.5698,-0.5768,-0.47,-0.4032,-0.4023,-0.3961,-0.4113,-0.4556,-0.4778,-0.519,-0.5798,-0.5439,-0.5078,-0.4886,-0.4065,-0.3194,-0.2332,-0.2544,-0.2576,-0.2514,-0.2545,-0.3428,-0.487,-0.4937,-0.5521,-0.6416,-0.635,-0.6679,-0.7129,-0.6416,-0.6145,-0.5807,-0.3619,-0.1222,0.0868,0.1674,0.1877,0.181,0.1272,-0.0134,-0.1877,-0.3604,-0.4935,-0.5997,-0.7064,-0.726,-0.7195,-0.7064,-0.6539,-0.5815,-0.5093,-0.4156,-0.3218,-0.2351,-0.0806,0.1074,0.3151,0.3751,0.4422,0.5683,0.5279,0.4146,0.2482,0.0871,-0.0402,-0.0939,-0.2275,-0.3017,-0.2824,-0.3088,-0.3355,-0.3556,-0.2817,-0.2613,-0.3013,-0.3143,-0.3699,-0.476,-0.5955,-0.7153,-0.8368,-0.8775,-0.9138,-0.9423,-1.002,-1.0314,1.3832,1.3501,1.2552,1.1943,1.0199,0.8429,0.7763,0.5834,0.4117,0.4003,0.3309,0.2689,0.2422,0.1731,0.1029,0.068,0.0255,-0.0214,-0.0625,-0.1266,-0.1853,-0.225,-0.3971,-0.5117,-0.5305,-0.6007,-0.6452,-0.6452,-0.5056,-0.4232,-0.4177,-0.3463,-0.3195,-0.3581,-0.375,-0.4326,-0.5339,-0.5038,-0.4879,-0.493,-0.4081,-0.3347,-0.2677,-0.2432,-0.247,-0.2785,-0.2414,-0.315,-0.4574,-0.4789,-0.5359,-0.6086,-0.6671,-0.6942,-0.6999,-0.6942,-0.6736,-0.635,-0.4827,-0.3044,-0.1204,0.0475,0.0688,0.0415,0.0742,-0.0676,-0.2652,-0.3889,-0.5306,-0.6706,-0.7522,-0.7999,-0.8038,-0.755,-0.6789,-0.5963,-0.4834,-0.4023,-0.3151,-0.1944,-0.0335,0.1611,0.3885,0.4289,0.4755,0.6218,0.5874,0.4766,0.2727,0.1282,-0.0067,-0.1274,-0.2679,-0.3551,-0.3689,-0.409,-0.4422,-0.4556,-0.4212,-0.4146,-0.4677,-0.4998,-0.5474,-0.6104,-0.7155,-0.8166,-0.9136,-0.9466,-0.9805,-1.0089,-1.0779,-1.0973,0.9563,1.0234,1.063,0.9996,0.8887,0.795,0.8003,0.6212,0.458,0.4616,0.3575,0.2569,0.2396,0.1651,0.096,0.0706,0.0479,0.0253,0.0,-0.0997,-0.1914,-0.2359,-0.4023,-0.5346,-0.5906,-0.6577,-0.6889,-0.6848,-0.5664,-0.4881,-0.4688,-0.3403,-0.254,-0.2361,-0.2673,-0.35,-0.487,-0.4939,-0.4919,-0.4824,-0.4245,-0.3822,-0.3491,-0.2737,-0.2772,-0.3327,-0.2551,-0.3003,-0.4304,-0.4748,-0.5233,-0.5881,-0.7129,-0.7195,-0.6679,-0.726,-0.7064,-0.6416,-0.5326,-0.4462,-0.3389,-0.0483,-0.0423,-0.1355,-0.0136,-0.1497,-0.3728,-0.4573,-0.6104,-0.7672,-0.83,-0.8885,-0.9072,-0.8059,-0.7044,-0.596,-0.4333,-0.3703,-0.2831,-0.0741,0.054,0.1956,0.3956,0.4356,0.4954,0.6374,0.6037,0.4879,0.307,0.1913,0.0539,-0.1617,-0.275,-0.368,-0.4417,-0.4815,-0.5147,-0.5536,-0.5602,-0.5734,-0.6203,-0.6814,-0.7197,-0.7258,-0.8274,-0.8897,-0.9161,-0.9735,-1.0137,-1.0283,-1.1009,-1.1267,1.0108,0.9418,0.8616,0.8468,0.8077,0.7769,0.7944,0.6102,0.4434,0.4785,0.3429,0.2195,0.2143,0.1497,0.081,0.0425,0.0293,0.0104,-0.029,-0.1206,-0.1826,-0.1814,-0.3569,-0.4985,-0.5544,-0.6249,-0.6919,-0.7532,-0.6761,-0.588,-0.5058,-0.3857,-0.2712,-0.1585,-0.2601,-0.3279,-0.3558,-0.4446,-0.4908,-0.4889,-0.4462,-0.3912,-0.3112,-0.2734,-0.2569,-0.2535,-0.2371,-0.3227,-0.4724,-0.5216,-0.5865,-0.6745,-0.7596,-0.7857,-0.7727,-0.7521,-0.7391,-0.7109,-0.5978,-0.5222,-0.448,-0.2393,-0.1492,-0.1497,-0.2284,-0.3351,-0.4628,-0.6071,-0.8032,-0.9862,-1.0205,-1.0497,-1.0642,-1.0386,-0.8563,-0.6838,-0.6523,-0.4837,-0.2636,-0.0139,0.0972,0.2136,0.3966,0.4815,0.5785,0.7414,0.637,0.5111,0.4131,0.1605,-0.0896,-0.2982,-0.4675,-0.5609,-0.5609,-0.5807,-0.6203,-0.6972,-0.7037,-0.7242,-0.7772,-0.7942,-0.8209,-0.8653,-0.8845,-0.941,-1.0244,-1.0502,-1.0599,-1.045,-1.1093,-1.1477,0.7987,0.797,0.7858,0.765,0.7415,0.7238,0.6983,0.5679,0.4616,0.4862,0.3533,0.2377,0.2505,0.1787,0.0999,0.0473,0.0428,0.0299,-0.0226,-0.0848,-0.1424,-0.1738,-0.3405,-0.4833,-0.5524,-0.6506,-0.7211,-0.761,-0.7305,-0.6641,-0.5556,-0.3443,-0.2063,-0.1538,-0.1674,-0.2059,-0.2685,-0.3721,-0.421,-0.4165,-0.4413,-0.4289,-0.3663,-0.3071,-0.2834,-0.2983,-0.2476,-0.3283,-0.4954,-0.5284,-0.5993,-0.7007,-0.77,-0.7792,-0.74,-0.7391,-0.7129,-0.6696,-0.5719,-0.5293,-0.4855,-0.3448,-0.2764,-0.2556,-0.292,-0.4048,-0.544,-0.7056,-0.9041,-1.0863,-1.1452,-1.171,-1.168,-1.0994,-0.8472,-0.6193,-0.5768,-0.4197,-0.2426,-0.0925,0.0285,0.1776,0.4062,0.4746,0.5388,0.658,0.5661,0.4205,0.2341,-0.0433,-0.2701,-0.3973,-0.5488,-0.6722,-0.7531,-0.7797,-0.8179,-0.8963,-0.9041,-0.9309,-0.9922,-1.0055,-1.0317,-1.0796,-1.0587,-1.0633,-1.1105,-1.0818,-1.0594,-1.0519,-1.1043,-1.1341,0.5788,0.6541,0.7284,0.6973,0.6838,0.6596,0.6194,0.5427,0.4857,0.5064,0.3855,0.276,0.2876,0.2144,0.1316,0.0568,0.0604,0.0479,-0.0164,-0.0636,-0.1175,-0.1772,-0.327,-0.4553,-0.5337,-0.6304,-0.7034,-0.7305,-0.7382,-0.6812,-0.5657,-0.3243,-0.1706,-0.1476,-0.1063,-0.1251,-0.1957,-0.3111,-0.3696,-0.3531,-0.4422,-0.468,-0.4403,-0.3597,-0.3442,-0.3718,-0.3031,-0.3635,-0.5272,-0.5433,-0.6202,-0.7333,-0.7871,-0.769,-0.707,-0.7184,-0.6813,-0.6194,-0.5582,-0.5312,-0.5103,-0.4271,-0.382,-0.3528,-0.3376,-0.4535,-0.6218,-0.8049,-1.0104,-1.2011,-1.2873,-1.3189,-1.2812,-1.1044,-0.8394,-0.5985,-0.4927,-0.3601,-0.2419,-0.1825,-0.0366,0.1537,0.3772,0.42,0.4421,0.5093,0.4137,0.2392,-0.03,-0.284,-0.4776,-0.5706,-0.67,-0.7923,-0.9445,-0.9714,-1.0214,-1.0985,-1.0998,-1.1273,-1.1819,-1.204,-1.2193,-1.2403,-1.186,-1.1636,-1.1626,-1.094,-1.0523,-1.0523,-1.0883,-1.1135,0.5455,0.5854,0.6168,0.6334,0.6236,0.6198,0.6613,0.5724,0.4973,0.5594,0.4396,0.3182,0.292,0.241,0.1676,0.0519,0.0522,0.0439,-0.0265,-0.1102,-0.1619,-0.1681,-0.285,-0.3931,-0.4618,-0.487,-0.552,-0.6756,-0.6842,-0.6205,-0.4683,-0.421,-0.2852,-0.0608,-0.168,-0.1949,-0.1219,-0.3129,-0.4042,-0.4038,-0.4799,-0.5124,-0.5012,-0.4646,-0.4381,-0.4278,-0.4077,-0.4709,-0.5994,-0.6164,-0.6984,-0.8213,-0.8385,-0.8098,-0.7613,-0.7459,-0.7034,-0.6549,-0.6257,-0.5973,-0.5525,-0.4908,-0.4057,-0.3513,-0.4394,-0.5504,-0.7004,-0.9628,-1.2025,-1.4155,-1.539,-1.548,-1.4451,-1.1451,-0.9511,-0.7803,-0.6146,-0.4493,-0.3085,-0.1955,0.0,0.1789,0.2548,0.2894,0.3194,0.3536,0.1486,-0.0825,-0.2568,-0.4801,-0.7127,-0.9515,-0.9541,-0.9765,-1.0729,-1.0934,-1.1438,-1.2631,-1.2714,-1.2714,-1.2781,-1.2811,-1.2618,-1.2262,-1.165,-1.1361,-1.1403,-1.1065,-1.0795,-1.0573,-1.0784,-1.1044,0.4643,0.5313,0.607,0.5907,0.6069,0.6144,0.5502,0.5192,0.4969,0.4738,0.3969,0.3266,0.3102,0.2677,0.2082,0.1227,0.1025,0.066,-0.0153,-0.0652,-0.122,-0.2054,-0.2867,-0.3721,-0.4517,-0.5013,-0.5724,-0.6947,-0.6885,-0.6697,-0.6517,-0.4909,-0.3692,-0.2911,-0.2136,-0.1515,-0.1239,-0.2036,-0.2818,-0.3406,-0.4169,-0.4713,-0.5111,-0.4986,-0.4703,-0.438,-0.4299,-0.5237,-0.6716,-0.6587,-0.739,-0.8685,-0.8393,-0.795,-0.7617,-0.7669,-0.7583,-0.7354,-0.7364,-0.7049,-0.6549,-0.5832,-0.4938,-0.4278,-0.5256,-0.6278,-0.7794,-1.1158,-1.339,-1.5115,-1.6486,-1.6035,-1.4482,-1.1489,-1.0319,-0.9394,-0.7736,-0.6173,-0.4838,-0.3687,-0.1998,-0.0383,0.0605,0.0526,0.015,-0.0075,-0.2475,-0.48,-0.6343,-0.8644,-1.0704,-1.2182,-1.1669,-1.151,-1.229,-1.295,-1.358,-1.4221,-1.4308,-1.4402,-1.4621,-1.4361,-1.4263,-1.4231,-1.3167,-1.254,-1.2441,-1.1394,-1.0817,-1.0578,-1.0675,-1.0869,0.3843,0.4621,0.5536,0.5211,0.5479,0.5572,0.4369,0.4417,0.4587,0.402,0.3636,0.3403,0.3284,0.2993,0.2488,0.1742,0.13,0.084,0.0149,-0.0364,-0.1039,-0.1995,-0.2691,-0.3445,-0.4215,-0.5022,-0.5854,-0.6549,-0.6891,-0.7288,-0.7803,-0.6134,-0.5147,-0.5117,-0.3338,-0.2191,-0.1844,-0.1748,-0.2004,-0.244,-0.3277,-0.4099,-0.4826,-0.4826,-0.4729,-0.4713,-0.4683,-0.5581,-0.7065,-0.6927,-0.7599,-0.8739,-0.8308,-0.8047,-0.7888,-0.795,-0.8131,-0.8437,-0.8424,-0.8163,-0.7691,-0.7007,-0.6157,-0.5689,-0.6917,-0.7504,-0.8533,-1.2263,-1.5053,-1.7081,-1.792,-1.707,-1.5396,-1.2935,-1.1774,-1.0846,-0.9583,-0.8049,-0.6659,-0.5508,-0.4192,-0.2947,-0.2081,-0.2905,-0.402,-0.4919,-0.699,-0.8998,-1.0402,-1.1965,-1.3287,-1.4061,-1.381,-1.3848,-1.4269,-1.5016,-1.5617,-1.5955,-1.5898,-1.5697,-1.5573,-1.514,-1.4896,-1.4817,-1.3646,-1.2923,-1.2619,-1.1503,-1.0898,-1.0735,-1.081,-1.1139,0.3147,0.3749,0.4179,0.3975,0.4176,0.4215,0.3462,0.3461,0.3611,0.3667,0.3716,0.3649,0.3429,0.3378,0.2976,0.1789,0.1331,0.1013,0.0753,-0.0469,-0.1226,-0.112,-0.2213,-0.3155,-0.3485,-0.4583,-0.5318,-0.5318,-0.6633,-0.7561,-0.7724,-0.8057,-0.7651,-0.6446,-0.5572,-0.4426,-0.284,-0.2624,-0.211,-0.1301,-0.2244,-0.3225,-0.4074,-0.4074,-0.4538,-0.536,-0.5235,-0.5829,-0.6927,-0.7053,-0.7647,-0.8382,-0.8165,-0.8418,-0.8822,-0.8309,-0.8728,-0.9552,-0.9385,-0.9166,-0.8907,-0.8462,-0.7888,-0.7832,-0.9713,-0.9403,-0.9135,-1.2842,-1.7241,-2.0728,-2.0096,-1.9003,-1.7703,-1.634,-1.4079,-1.2018,-1.1527,-1.0054,-0.8458,-0.7042,-0.6249,-0.5759,-0.5733,-0.7467,-0.9332,-1.0683,-1.2002,-1.327,-1.4481,-1.4444,-1.45,-1.5141,-1.6421,-1.7086,-1.6718,-1.7033,-1.7411,-1.7821,-1.7486,-1.6623,-1.525,-1.4787,-1.4102,-1.3081,-1.2435,-1.189,-1.1513,-1.1194,-1.0982,-1.0982,-1.123,-1.1889,0.2119,0.286,0.3526,0.334,0.3784,0.407,0.3265,0.3363,0.3565,0.3387,0.3324,0.3275,0.3284,0.3258,0.3093,0.2592,0.1815,0.1169,0.0747,-0.0525,-0.1583,-0.1879,-0.2856,-0.3653,-0.393,-0.4417,-0.5002,-0.5699,-0.6388,-0.7265,-0.8326,-0.8798,-0.8593,-0.7824,-0.6688,-0.5499,-0.4421,-0.3729,-0.2979,-0.2242,-0.2592,-0.3173,-0.3977,-0.3451,-0.4018,-0.5241,-0.5197,-0.5879,-0.7021,-0.754,-0.7921,-0.8156,-0.8094,-0.8403,-0.8825,-0.919,-1.0193,-1.1489,-1.1644,-1.1657,-1.1531,-1.1024,-1.0609,-1.0551,-1.1853,-1.1518,-1.1795,-1.6736,-2.0186,-2.2094,-2.1185,-2.0727,-1.9856,-1.7315,-1.6263,-1.5486,-1.3948,-1.2743,-1.179,-1.1011,-1.0576,-1.0317,-1.0452,-1.1917,-1.3404,-1.4305,-1.5756,-1.6969,-1.7287,-1.7641,-1.7844,-1.8027,-1.8022,-1.781,-1.7178,-1.8115,-1.8504,-1.7894,-1.7663,-1.6896,-1.522,-1.4706,-1.4142,-1.3278,-1.2779,-1.2445,-1.229,-1.1878,-1.1827,-1.2155,-1.2395,-1.3089,0.1255,0.1947,0.253,0.2553,0.297,0.3265,0.2617,0.2691,0.293,0.3049,0.3031,0.3079,0.3294,0.3351,0.3184,0.2669,0.1895,0.1195,0.0515,-0.0724,-0.1899,-0.2954,-0.3577,-0.4065,-0.4535,-0.4543,-0.4804,-0.5544,-0.6388,-0.731,-0.8237,-0.9084,-0.9443,-0.9389,-0.8028,-0.6921,-0.6159,-0.4936,-0.3894,-0.3183,-0.2851,-0.3013,-0.3496,-0.3013,-0.3481,-0.4698,-0.5095,-0.5867,0.0,-0.7752,-0.8093,-0.8102,-0.8102,-0.8551,-0.9226,-0.9744,-1.1081,-1.2764,-1.3014,-1.3401,-1.372,-1.3297,-1.3535,-1.4315,-1.5739,-1.5564,-1.5791,-2.0135,-2.2647,-2.3929,-2.3028,-2.234,-2.1231,-1.8653,-1.7661,-1.6911,-1.5292,-1.4814,-1.4564,-1.4286,-1.4744,-1.5306,-1.5878,-1.7358,-1.867,-1.9147,-1.9787,-2.0031,-1.9404,-1.9272,-1.9216,-1.9068,-1.8898,-1.8661,-1.8082,-1.8606,-1.877,-1.8284,-1.7559,-1.6379,-1.4796,-1.4047,-1.3368,-1.2796,-1.2454,-1.254,-1.2954,-1.3138,-1.3238,-1.3163,-1.3237,-1.3773,0.0,0.1085,0.1307,0.1672,0.1898,0.1943,0.1662,0.1617,0.0,0.2673,0.2817,0.2947,0.3475,0.3558,0.3226,0.2244,0.1716,0.1112,0.0198,-0.0958,-0.2378,-0.4198,-0.4342,-0.4546,-0.5261,-0.5044,-0.4958,-0.5074,-0.6542,-0.7456,-0.7447,-0.8988,-1.0132,-1.0708,-0.9528,-0.8548,-0.7936,-0.6271,-0.4971,-0.4076,-0.3253,-0.2956,-0.3013,-0.2782,-0.3138,-0.4048,-0.4924,-0.5896,-0.6957,-0.7778,-0.8093,-0.8102,-0.8102,-0.8856,-0.9895,-1.0045,-1.1601,-1.368,-1.3768,-1.4617,-1.5649,-1.5488,-1.6792,-1.8765,-2.0885,-2.0995,-2.0798,-2.2965,-2.4785,-2.5932,-2.5361,-2.3884,-2.199,-2.0206,-1.8389,-1.6883,-1.5874,-1.6333,-1.7014,-1.6899,-1.8662,-2.049,-2.1615,-2.3152,-2.4267,-2.4404,-2.355,-2.2389,-2.0864,-1.9742,-1.8991,-1.8647,-1.9187,-1.9585,-1.9469,-1.8816,-1.8576,-1.8877,-1.7074,-1.535,-1.4041,-1.2954,-1.2198,-1.1705,-1.1802,-1.2478,-1.3561,-1.4864,-1.498,-1.4013,-1.4103,-1.4205,0.0854,0.0,0.0639,0.109,0.1326,0.1514,0.0,0.1267,0.1218,0.1986,0.1914,0.2021,0.2902,0.3001,0.2873,0.2799,0.2012,0.132,0.1111,-0.1058,-0.3078,-0.4479,-0.5311,-0.5819,-0.594,-0.5779,-0.567,-0.5701,-0.6416,-0.6958,-0.7194,-0.8458,-0.9381,-0.9878,-1.0193,-1.0013,-0.9448,-0.8371,-0.7219,-0.5922,-0.4952,-0.4456,-0.448,-0.3107,-0.3443,-0.4934,-0.5617,-0.6322,-0.7044,-0.8146,-0.8399,-0.8102,-0.8399,-0.9074,-1.0045,-1.1304,-1.3201,-1.533,-1.6331,-1.7487,-1.8715,-1.9712,-2.0682,-2.1869,-2.3737,-2.4156,-2.4171,-2.5228,-2.6596,-2.7394,-2.5847,-2.4778,-2.3436,-2.0913,-1.976,-1.886,-1.7513,-1.8142,-1.912,-1.9827,-2.1666,-2.3296,-2.3806,-2.4735,-2.5089,-2.4205,-2.3461,-2.27,-2.1725,-2.0851,-2.0428,-2.0757,-2.0254,-2.0245,-2.0915,-2.0093,-1.8939,-1.7577,-1.6585,-1.5267,-1.3646,-1.2954,-1.2369,-1.1705,-1.3003,-1.4216,-1.5305,-1.6571,-1.652,-1.5267,-1.5903,-1.5942,0.108,0.0841,0.0649,0.1245,0.1311,0.1329,0.1553,0.141,0.1358,0.1809,0.1887,0.2025,0.2529,0.273,0.2805,0.2874,0.2295,0.1539,0.0767,-0.1179,-0.3157,-0.4766,-0.5712,-0.6396,-0.6798,-0.6371,-0.5985,-0.5842,-0.6077,-0.653,-0.7009,-0.8356,-0.9416,-0.9839,-1.0765,-1.0952,-1.0319,-0.9607,-0.8796,-0.8023,-0.6913,-0.6087,-0.5611,-0.4768,-0.4779,-0.5714,-0.6402,-0.7119,-0.7844,-0.8435,-0.878,-0.8932,-0.878,-0.9669,-1.1093,-1.2188,-1.4283,-1.6723,-1.789,-1.9684,-2.1711,-2.3053,-2.4057,-2.4987,-2.6647,-2.7122,-2.7038,-2.7183,-2.7776,-2.7973,-2.6108,-2.4708,-2.3229,-2.0918,-1.9845,-1.9251,-1.886,-1.9737,-2.1141,-2.3001,-2.4947,-2.6561,-2.7537,-2.7619,-2.7211,-2.5909,-2.4417,-2.3028,-2.1681,-2.0899,-2.0614,-2.0958,-2.0775,-2.0727,-2.1178,-2.0198,-1.9071,-1.7996,-1.6247,-1.4739,-1.3827,-1.2978,-1.2691,-1.3073,-1.4952,-1.6314,-1.709,-1.8153,-1.8065,-1.695,-1.7146,-1.6978,0.1453,0.1228,0.1177,0.1837,0.1726,0.1533,0.1869,0.1837,0.1764,0.1947,0.2057,0.2206,0.2371,0.2674,0.2923,0.3004,0.2694,0.1874,0.0169,-0.1252,-0.2857,-0.5024,-0.5891,-0.6705,-0.7588,-0.6907,-0.6171,-0.5894,-0.5786,-0.6079,-0.6675,-0.8212,-0.9307,-0.9915,-1.1019,-1.1378,-1.0971,-1.0373,-1.0119,-1.0151,-0.8793,-0.7675,-0.6871,-0.6725,-0.659,-0.6444,-0.7363,-0.8143,-0.8846,-0.8998,-0.9387,-0.9992,-0.9453,-1.0582,-1.264,-1.3337,-1.552,-1.8337,-1.9667,-2.1981,-2.4682,-2.585,-2.6854,-2.7769,-2.8993,-2.9387,-2.9171,-2.8367,-2.8211,-2.7788,-2.5871,-2.4089,-2.236,-2.0676,-1.948,-1.8969,-1.9765,-2.1025,-2.285,-2.5677,-2.7759,-2.9533,-3.0836,-3.0262,-2.9121,-2.7525,-2.5247,-2.3114,-2.144,-2.0636,-2.0316,-2.0561,-2.0995,-2.1259,-2.1183,-2.0189,-1.954,-1.9454,-1.624,-1.4396,-1.4396,-1.3485,-1.3711,-1.5178,-1.6991,-1.8057,-1.8361,-1.9335,-1.9249,-1.8211,-1.7963,-1.7591,0.2197,0.2054,0.2069,0.2742,0.273,0.2634,0.297,0.2457,0.196,0.2276,0.1626,0.1434,0.2676,0.293,0.3194,0.3804,0.3499,0.2535,0.0866,-0.0945,-0.2849,-0.4785,-0.6351,-0.7529,-0.808,-0.7154,-0.6547,-0.6433,-0.5661,-0.5396,-0.5964,-0.695,-0.8023,-0.8961,-1.0341,-1.1326,-1.1917,-1.155,-1.1501,-1.1723,-1.0122,-0.9266,-0.9103,-0.7846,-0.7302,-0.7379,-0.8675,-0.9367,-0.9518,-1.0207,-1.0582,-1.0743,-1.1465,-1.2594,-1.4037,-1.6127,-1.8498,-2.1159,-2.4177,-2.6167,-2.7584,-2.8201,-2.8858,-2.9463,-2.9501,-2.9543,-2.9296,-2.7538,-2.7063,-2.6671,-2.4779,-2.3283,-2.1837,-2.0751,-1.9883,-1.9353,-1.999,-2.2018,-2.4237,-2.6333,-2.8996,-3.0797,-3.0275,-2.9525,-2.8061,-2.5372,-2.3483,-2.2157,-2.1787,-2.0772,-2.056,-2.1758,-2.1779,-2.1907,-2.2526,-2.1919,-2.1405,-2.098,-1.7367,-1.5333,-1.5419,-1.55,-1.6199,-1.7296,-1.7945,-1.8313,-1.8198,-1.9586,-1.9298,-1.7483,-1.8257,-1.835,0.2384,0.2484,0.2628,0.2991,0.2825,0.2601,0.285,0.2583,0.2301,0.233,0.2112,0.2136,0.2729,0.3004,0.334,0.3835,0.4225,0.3752,0.1803,0.0125,-0.1753,-0.3761,-0.5934,-0.7413,-0.7761,-0.7606,-0.738,-0.7132,-0.5924,-0.546,-0.606,-0.6958,-0.7719,-0.8448,-1.0374,-1.1491,-1.1669,-1.1956,-1.2195,-1.2342,-1.1016,-1.0357,-1.0207,-0.9367,-0.8922,-0.8846,-0.983,-1.0282,-1.0357,-1.1156,-1.1749,-1.2218,-1.3492,-1.4798,-1.6451,-1.9868,-2.2433,-2.4541,-2.6856,-2.8759,-3.0105,-2.9975,-3.0573,-3.1174,-2.9943,-2.9108,-2.8136,-2.635,-2.5896,-2.555,-2.399,-2.301,-2.2242,-2.1786,-2.1333,-2.1429,-2.3194,-2.4566,-2.6296,-2.8932,-3.0713,-3.1695,-3.1059,-2.9834,-2.8004,-2.5269,-2.3285,-2.1869,-2.1058,-2.081,-2.1089,-2.2123,-2.2495,-2.2872,-2.3388,-2.2659,-2.1566,-2.0021,-1.7856,-1.6551,-1.6286,-1.7143,-1.7935,-1.8556,-1.9289,-1.9569,-1.9569,-2.0025,-1.992,-1.9268,-1.9378,-1.9378,0.239,0.2721,0.2954,0.2972,0.2848,0.2685,0.2689,0.2799,0.2796,0.2519,0.2648,0.2816,0.287,0.3327,0.3784,0.4069,0.4824,0.4668,0.2602,0.112,-0.0566,-0.2706,-0.4957,-0.6621,-0.7233,-0.7567,-0.7678,-0.7519,-0.6205,-0.5683,-0.6147,-0.6986,-0.7673,-0.8011,-1.0176,-1.1356,-1.1324,-1.2011,-1.2455,-1.249,-1.1537,-1.0971,-1.0818,-1.0293,-1.0143,-1.0143,-1.0743,-1.118,-1.1539,-1.2398,-1.323,-1.4279,-1.563,-1.7297,-1.9475,-2.3647,-2.6013,-2.7433,-2.9087,-3.0808,-3.2252,-3.1537,-3.2053,-3.2536,-3.03,-2.8675,-2.7328,-2.5481,-2.4897,-2.4542,-2.3408,-2.2922,-2.2826,-2.2892,-2.3061,-2.3784,-2.5924,-2.6967,-2.8203,-3.0703,-3.1696,-3.2009,-3.1517,-2.9907,-2.7848,-2.5321,-2.3308,-2.1719,-2.0818,-2.1052,-2.1596,-2.2446,-2.3209,-2.3667,-2.3841,-2.3466,-2.2328,-2.029,-1.9268,-1.8434,-1.7807,-1.8694,-1.9142,-1.9147,-2.0002,-2.0275,-2.0002,-2.0377,-2.0583,-2.0593,-2.0379,-2.0317,0.2365,0.2748,0.3024,0.2719,0.3283,0.3719,0.301,0.3297,0.3572,0.3039,0.2694,0.2679,0.3404,0.4238,0.4863,0.507,0.5238,0.4706,0.2991,0.1764,0.0199,-0.1931,-0.3529,-0.5048,-0.6498,-0.658,-0.678,-0.737,-0.6535,-0.5776,-0.5403,-0.6489,-0.7267,-0.7428,-0.9215,-1.0522,-1.1324,-1.1797,-1.2059,-1.2104,-1.1462,-1.101,-1.0818,-1.0218,-1.0218,-1.0743,-1.1329,-1.2352,-1.3491,-1.3954,-1.5265,-1.7045,-1.7651,-2.005,-2.3468,-2.6855,-2.8356,-2.9053,-3.107,-3.2746,-3.3795,-3.3083,-3.3356,-3.3401,-3.0205,-2.8793,-2.7801,-2.5438,-2.4371,-2.3813,-2.2905,-2.295,-2.3324,-2.3781,-2.4944,-2.6068,-2.6238,-2.7871,-2.9409,-2.9881,-3.0983,-3.1559,-3.0663,-2.8948,-2.6978,-2.4858,-2.2654,-2.1438,-2.1914,-2.1658,-2.2035,-2.3481,-2.3734,-2.3927,-2.412,-2.4861,-2.5055,-2.4405,-2.259,-2.1281,-2.0499,-2.0286,-1.9861,-1.918,-1.9455,-1.9072,-1.787,-2.034,-2.0823,-1.9541,-2.055,-2.11,0.1821,0.2142,0.2317,0.2202,0.2819,0.3353,0.3004,0.3281,0.3678,0.3618,0.3476,0.3593,0.4178,0.4496,0.4726,0.484,0.461,0.3924,0.2628,0.1248,-0.0067,-0.1341,-0.3143,-0.4538,-0.5127,-0.5924,-0.6702,-0.7407,-0.669,-0.6173,-0.5979,-0.6828,-0.7426,-0.7678,-0.9169,-1.0454,-1.1496,-1.1354,-1.0967,-1.0405,-1.0904,-1.107,-1.0818,-1.0143,-1.0218,-1.0893,-1.1909,-1.2851,-1.3852,-1.5296,-1.6578,-1.777,-2.0249,-2.2982,-2.5791,-2.8109,-2.9386,-3.0151,-3.1982,-3.302,-3.3508,-3.3118,-3.2998,-3.243,-2.9572,-2.7969,-2.6755,-2.4732,-2.4093,-2.4049,-2.4232,-2.4543,-2.531,-2.6822,-2.7721,-2.8497,-2.9302,-2.9998,-3.0618,-3.1162,-3.1721,-3.1901,-3.1003,-2.9378,-2.7404,-2.507,-2.3157,-2.1708,-2.1153,-2.1507,-2.2252,-2.3299,-2.4169,-2.4943,-2.5722,-2.6281,-2.654,-2.6368,-2.46,-2.3105,-2.2225,-2.1931,-2.1534,-2.0911,-2.1229,-2.124,-2.0772,-2.1397,-2.1605,-2.1269,-2.1519,-2.1684,0.1457,0.1926,0.2156,0.2268,0.2939,0.3538,0.3297,0.3512,0.3812,0.385,0.3971,0.4138,0.4347,0.4439,0.4467,0.435,0.3991,0.3339,0.2253,0.0904,-0.0198,-0.0994,-0.2777,-0.4038,-0.4334,-0.5397,-0.6441,-0.7426,-0.6707,-0.6383,-0.6578,-0.7104,-0.7545,-0.7835,-0.9261,-1.0299,-1.0981,-1.0892,-1.0354,-0.9432,-1.0272,-1.0492,-1.0096,-1.0107,-1.0587,-1.1465,-1.2631,-1.3837,-1.5105,-1.6609,-1.8018,-1.9526,-2.2944,-2.5311,-2.7069,-2.9136,-3.0151,-3.0748,-3.2485,-3.3287,-3.3498,-3.3171,-3.2881,-3.2257,-2.9695,-2.7969,-2.6646,-2.5087,-2.4873,-2.5335,-2.6258,-2.6773,-2.7551,-2.9209,-3.0069,-3.0699,-3.1212,-3.1101,-3.1082,-3.1436,-3.1589,-3.1442,-3.0696,-2.9241,-2.7472,-2.5251,-2.371,-2.2397,-2.1521,-2.2077,-2.2832,-2.3692,-2.5063,-2.6126,-2.6889,-2.7568,-2.7943,-2.77,-2.625,-2.4804,-2.3407,-2.2793,-2.2224,-2.1777,-2.2026,-2.2167,-2.2167,-2.2196,-2.2311,-2.2397,-2.2304,-2.2275,0.1474,0.2146,0.2656,0.303,0.3921,0.4581,0.4122,0.4131,0.4128,0.3715,0.3917,0.4095,0.3849,0.4189,0.4292,0.372,0.3525,0.3101,0.1947,0.0866,-0.0128,-0.0965,-0.2253,-0.3374,-0.4383,-0.5001,-0.5864,-0.7288,-0.6517,-0.6329,-0.7091,-0.7091,-0.7332,-0.7675,-0.9229,-0.9894,-0.964,-1.0408,-1.0367,-0.9577,-0.9577,-0.9226,-0.8529,-0.9924,-1.1361,-1.2837,-1.3418,-1.5317,-1.7891,-1.7891,-1.9839,-2.2933,-2.5637,-2.6843,-2.7338,-2.9997,-3.0777,-3.0719,-3.2563,-3.3656,-3.4184,-3.3403,-3.3356,-3.3152,-3.0717,-2.9136,-2.7946,-2.6731,-2.6816,-2.764,-2.8866,-2.9581,-3.005,-3.0362,-3.176,-3.2606,-3.1249,-3.0944,-3.0771,-3.0216,-3.0088,-2.9908,-2.9238,-2.8187,-2.6953,-2.5335,-2.4231,-2.3513,-2.3513,-2.3513,-2.3934,-2.5104,-2.6494,-2.7371,-2.7393,-2.8697,-2.9293,-2.87,-2.7787,-2.631,-2.4156,-2.2623,-2.1579,-2.1117,-2.1405,-2.1405,-2.1117,-2.2479,-2.2868,-2.2397,-2.278,-2.2837,0.1076,0.1549,0.2021,0.3329,0.3683,0.3883,0.4633,0.513,0.5326,0.4743,0.4395,0.4267,0.4428,0.4174,0.4062,0.4219,0.3168,0.2191,0.1829,0.0434,-0.0638,-0.0938,-0.216,-0.3352,-0.4137,-0.4879,-0.5917,-0.7371,-0.7233,-0.7049,-0.71,-0.783,-0.8176,-0.7979,-0.9455,-1.0377,-1.0657,-1.0394,-0.9868,-0.9167,-0.9309,-0.9455,-0.9597,-1.0417,-1.1487,-1.276,-1.4215,-1.5819,-1.7612,-1.9381,-2.0971,-2.2376,-2.4645,-2.5772,-2.6512,-2.9315,-3.0278,-3.045,-3.1964,-3.2698,-3.2897,-3.2204,-3.191,-3.1367,-2.938,-2.8271,-2.7378,-2.5975,-2.693,-2.8444,-2.9134,-3.1467,-3.3546,-3.3162,-3.3706,-3.3962,-3.2444,-3.201,-3.1589,-3.0368,-3.0216,-3.0216,-3.0037,-2.9455,-2.8631,-2.7635,-2.6086,-2.479,-2.4107,-2.4207,-2.4966,-2.6558,-2.7412,-2.8121,-2.8831,-2.9553,-2.9398,-2.7947,-2.7149,-2.6227,-2.529,-2.4107,-2.3249,-2.2768,-2.3152,-2.3394,-2.3296,-2.3305,-2.3277,-2.3079,-2.2802,-2.2653,0.0916,0.1446,0.2001,0.3673,0.4159,0.4565,0.5632,0.565,0.5251,0.482,0.445,0.4254,0.434,0.4063,0.3869,0.4119,0.3038,0.2092,0.1853,0.0421,-0.074,-0.1272,-0.2516,-0.3623,-0.4469,-0.5196,-0.61,-0.7269,-0.7269,-0.7302,-0.7583,-0.8171,-0.8527,-0.8604,-0.9695,-1.0352,-1.0407,-1.0137,-0.9768,-0.9241,-0.9285,-0.9823,-1.073,-1.1223,-1.2121,-1.3537,-1.5926,-1.767,-1.8912,-2.0796,-2.202,-2.2855,-2.4423,-2.5458,-2.6444,-2.8829,-2.9835,-3.0238,-3.1164,-3.1694,-3.189,-3.1044,-3.0689,-3.0338,-2.9077,-2.8109,-2.7338,-2.6526,-2.7636,-2.9198,-2.978,-3.2558,-3.4964,-3.4218,-3.4307,-3.4221,-3.2821,-3.1955,-3.132,-3.0872,-3.0797,-3.0924,-3.1107,-3.057,-2.9714,-2.8937,-2.706,-2.5464,-2.473,-2.4957,-2.5756,-2.6939,-2.7822,-2.8357,-2.8676,-2.8943,-2.8566,-2.7138,-2.6108,-2.541,-2.5071,-2.4296,-2.3883,-2.3785,-2.4024,-2.4152,-2.4053,-2.3655,-2.3356,-2.3238,-2.2854,-2.2653,0.0968,0.1687,0.2455,0.3957,0.5059,0.5956,0.6711,0.5609,0.4408,0.4304,0.4249,0.4138,0.3855,0.3793,0.3744,0.3638,0.3104,0.2496,0.1967,0.0805,-0.0469,-0.1755,-0.298,-0.4124,-0.5123,-0.5731,-0.6366,-0.7188,-0.7044,-0.7379,-0.8422,-0.8375,-0.8673,-0.9563,-1.0117,-1.0172,-0.9646,-0.9932,-0.997,-0.9739,-0.9605,-1.0338,-1.1903,-1.219,-1.3332,-1.5167,-1.8155,-2.0138,-2.1181,-2.2025,-2.2936,-2.4002,-2.471,-2.5655,-2.6739,-2.8423,-2.9392,-2.9974,-3.0167,-3.0698,-3.1075,-2.9924,-2.9703,-2.9754,-2.9288,-2.8345,-2.7497,-2.7642,-2.8633,-2.98,-3.0542,-3.2892,-3.4925,-3.4103,-3.4083,-3.3897,-3.2648,-3.1394,-3.0722,-3.1663,-3.1763,-3.185,-3.2252,-3.1499,-3.0482,-2.944,-2.7598,-2.6149,-2.556,-2.582,-2.6347,-2.6857,-2.7907,-2.8308,-2.7516,-2.7421,-2.7043,-2.6204,-2.4884,-2.4035,-2.4035,-2.3637,-2.3655,-2.4152,-2.4152,-2.4053,-2.3755,-2.3555,-2.3256,-2.2937,-2.2754,-2.2552,0.0967,0.173,0.2532,0.4338,0.5115,0.5346,0.5101,0.4401,0.3959,0.4622,0.4463,0.4138,0.3855,0.3793,0.3793,0.3744,0.3161,0.2669,0.2527,0.1034,-0.0291,-0.1073,-0.2646,-0.4222,-0.5467,-0.6198,-0.701,-0.805,-0.8433,-0.8841,-0.9243,-0.9936,-1.0508,-1.0893,-1.1081,-1.1245,-1.1441,-1.0882,-1.0577,-1.0524,-1.1066,-1.1688,-1.2533,-1.307,-1.475,-1.7357,-1.9412,-2.0712,-2.1356,-2.2959,-2.3747,-2.4053,-2.4722,-2.5148,-2.5597,-2.7639,-2.8503,-2.8645,-2.9026,-2.9576,-2.9924,-2.84,-2.8254,-2.8489,-2.7444,-2.7,-2.6833,-2.6731,-2.8298,-3.0212,-3.081,-3.31,-3.5175,-3.4493,-3.4853,-3.4817,-3.2818,-3.2818,-3.2932,-3.2001,-3.2527,-3.3038,-3.2681,-3.2421,-3.1538,-2.9211,-2.9675,-2.9676,-2.763,-2.7839,-2.844,-2.9352,-2.843,-2.7725,-2.7516,-2.6948,-2.6011,-2.4393,-2.3917,-2.3637,-2.3238,-2.3356,-2.3555,-2.3854,-2.3655,-2.3655,-2.3755,-2.3356,-2.3055,-2.2937,-2.2754,-2.2333,-0.0083,0.0974,0.2247,0.4298,0.468,0.4628,0.4763,0.4081,0.3579,0.4012,0.3643,0.3244,0.335,0.3294,0.335,0.3633,0.3406,0.3024,0.2742,0.1869,0.0852,-0.0335,-0.186,-0.3431,-0.5113,-0.6249,-0.7312,-0.819,-0.9149,-0.9784,-0.9992,-1.0973,-1.1559,-1.161,-1.1831,-1.1792,-1.1503,-1.1122,-1.0944,-1.0958,-1.152,-1.2716,-1.4418,-1.477,-1.6284,-1.885,-2.0079,-2.1182,-2.2272,-2.347,-2.4195,-2.4509,-2.4878,-2.516,-2.5578,-2.7113,-2.7912,-2.8261,-2.8629,-2.9207,-2.9529,-2.8301,-2.8453,-2.897,-2.7892,-2.805,-2.8554,-2.8239,-2.9533,-3.1254,-3.1942,-3.379,-3.54,-3.5335,-3.5175,-3.4618,-3.3381,-3.3241,-3.3466,-3.3437,-3.3406,-3.3529,-3.4405,-3.3815,-3.2474,-3.0143,-3.0491,-3.0486,-2.888,-2.8473,-2.8646,-2.9418,-2.784,-2.6703,-2.63,-2.5528,-2.4571,-2.3238,-2.3314,-2.3318,-2.3013,-2.339,-2.3525,-2.3655,-2.3456,-2.3456,-2.3456,-2.3155,-2.3042,-2.303,-2.2605,-2.2295,-0.1291,0.0087,0.1856,0.3901,0.4024,0.3843,0.4569,0.3894,0.3049,0.2847,0.2501,0.233,0.2658,0.2615,0.2738,0.3355,0.3471,0.3299,0.2905,0.2794,0.2122,0.0502,-0.0832,-0.2404,-0.4371,-0.5984,-0.7242,-0.809,-0.9398,-1.034,-1.0661,-1.1697,-1.2246,-1.2271,-1.2503,-1.2167,-1.1231,-1.1233,-1.1167,-1.1137,-1.1798,-1.3655,-1.644,-1.6687,-1.7835,-1.9764,-2.0551,-2.1686,-2.3034,-2.3725,-2.4383,-2.5024,-2.5024,-2.5356,-2.5988,-2.6707,-2.746,-2.8071,-2.839,-2.8913,-2.9372,-2.8539,-2.8968,-2.9614,-2.8647,-2.9279,-3.0199,-2.9925,-3.0932,-3.2387,-3.3318,-3.4534,-3.5691,-3.6259,-3.5503,-3.4426,-3.4041,-3.3675,-3.3804,-3.4761,-3.3875,-3.3556,-3.5442,-3.4679,-3.3101,-3.1235,-3.0943,-3.0701,-3.001,-2.9015,-2.8539,-2.8958,-2.7125,-2.5586,-2.4982,-2.4288,-2.3527,-2.2941,-2.3408,-2.3617,-2.3617,-2.4018,-2.4085,-2.3853,-2.3651,-2.3314,-2.3042,-2.3112,-2.3099,-2.3012,-2.2578,-2.2323,-0.1524,0.0044,0.163,0.2813,0.315,0.3168,0.3179,0.2773,0.2032,0.1,0.1546,0.2195,0.2141,0.2028,0.2125,0.2738,0.2794,0.2961,0.3416,0.3016,0.24,0.1671,0.0055,-0.1719,-0.3495,-0.4835,-0.6337,-0.8205,-0.9396,-1.0352,-1.1099,-1.257,-1.335,-1.3297,-1.3234,-1.3019,-1.262,-1.2065,-1.1539,-1.1137,-1.283,-1.4848,-1.7135,-1.8101,-1.9004,-1.9885,-2.1432,-2.2186,-2.2474,-2.3616,-2.4459,-2.4987,-2.4987,-2.5376,-2.5962,-2.639,-2.6953,-2.7501,-2.7556,-2.7989,-2.8482,-2.8053,-2.8033,-2.8071,-2.7273,-2.7782,-2.8624,-2.9013,-3.0703,-3.268,-3.379,-3.5155,-3.6322,-3.6384,-3.6229,-3.5788,-3.4684,-3.5555,-3.5955,-3.3747,-3.3046,-3.2826,-3.2882,-3.3062,-3.2746,-3.1575,-3.2287,-3.2671,-3.1768,-3.0617,-2.992,-2.9988,-2.7063,-2.5001,-2.4884,-2.4546,-2.4242,-2.4158,-2.5237,-2.5872,-2.5872,-2.5909,-2.5891,-2.588,-2.4453,-2.3566,-2.3443,-2.3566,-2.3334,-2.2872,-2.2765,-2.2247,-0.2021,-0.1004,-0.0043,0.1502,0.1936,0.2071,0.2311,0.177,0.1053,0.0508,0.0308,0.026,0.0433,0.0386,0.0613,0.156,0.1671,0.2007,0.2961,0.2571,0.2125,0.1843,0.0502,-0.1111,-0.2879,-0.4361,-0.5955,-0.7759,-0.9429,-1.0712,-1.1584,-1.288,-1.356,-1.3569,-1.352,-1.3042,-1.2257,-1.2124,-1.2191,-1.2478,-1.3402,-1.5239,-1.772,-1.8826,-1.9684,-2.0347,-2.1683,-2.2456,-2.281,-2.375,-2.447,-2.498,-2.498,-2.5345,-2.5934,-2.6365,-2.6899,-2.7449,-2.7822,-2.8369,-2.8856,-2.8479,-2.8608,-2.8702,-2.7733,-2.881,-3.0376,-3.0228,-3.2103,-3.4303,-3.5224,-3.6166,-3.7087,-3.7445,-3.7504,-3.7301,-3.6402,-3.6671,-3.6357,-3.4024,-3.363,-3.3383,-3.247,-3.2708,-3.2895,-3.2582,-3.3148,-3.3104,-3.1889,-3.089,-2.9988,-2.9441,-2.7105,-2.5586,-2.5586,-2.5301,-2.5024,-2.5024,-2.6031,-2.6598,-2.6598,-2.6826,-2.6845,-2.6617,-2.5122,-2.442,-2.4346,-2.3913,-2.3465,-2.302,-2.2695,-2.2135,-0.2673,-0.2156,-0.1709,0.0167,0.0635,0.0817,0.1273,0.0724,0.0091,-0.0244,-0.1047,-0.1689,-0.1469,-0.1274,-0.0836,0.0223,0.0501,0.0947,0.2063,0.1955,0.1734,0.179,0.0894,-0.0502,-0.2279,-0.3814,-0.545,-0.7374,-0.9311,-1.0864,-1.1765,-1.2909,-1.3573,-1.343,-1.3525,-1.3027,-1.1921,-1.2121,-1.2745,-1.3815,-1.4184,-1.5718,-1.8293,-1.9401,-2.027,-2.0848,-2.1821,-2.2533,-2.2901,-2.328,-2.3821,-2.4518,-2.436,-2.4884,-2.5715,-2.6042,-2.6688,-2.754,-2.8054,-2.8798,-2.9394,-2.8955,-2.9169,-2.9378,-2.8159,-2.9644,-3.1646,-3.131,-3.3245,-3.5607,-3.6415,-3.7147,-3.777,-3.8262,-3.8537,-3.8483,-3.7777,-3.6929,-3.5857,-3.4321,-3.386,-3.3482,-3.2516,-3.2751,-3.3215,-3.3556,-3.3641,-3.3189,-3.1889,-3.08,-2.9806,-2.8817,-2.7228,-2.6269,-2.6269,-2.6345,-2.641,-2.641,-2.7428,-2.7999,-2.7999,-2.831,-2.833,-2.8019,-2.6842,-2.589,-2.5176,-2.4438,-2.3837,-2.3308,-2.2752,-2.2138,-0.3424,-0.3088,-0.2668,-0.1079,-0.0567,-0.0396,-0.0383,-0.0434,-0.0766,-0.1937,-0.2401,-0.2796,-0.3334,-0.2625,-0.1732,-0.1114,-0.0613,-0.0056,0.0723,0.1283,0.1679,0.179,0.1233,0.0167,-0.1661,-0.2874,-0.4689,-0.732,-0.9051,-1.0407,-1.12,-1.2735,-1.3382,-1.2968,-1.3382,-1.3244,-1.2446,-1.241,-1.3128,-1.4634,-1.5369,-1.6796,-1.8903,-2.0016,-2.0871,-2.1361,-2.1991,-2.2226,-2.2226,-2.1732,-2.2196,-2.3122,-2.2644,-2.3497,-2.5075,-2.5048,-2.6213,-2.7792,-2.782,-2.8669,-2.9656,-2.903,-2.9022,-2.9085,-2.7696,-2.8783,-3.0721,-3.1265,-3.3313,-3.5704,-3.699,-3.786,-3.8351,-3.8408,-3.8926,-3.9161,-3.7973,-3.6212,-3.4685,-3.4072,-3.3213,-3.2548,-3.2606,-3.3005,-3.3556,-3.3979,-3.3894,-3.3275,-3.2152,-3.089,-2.9806,-2.8817,-2.7517,-2.6725,-2.6725,-2.7958,-2.8675,-2.8675,-3.0181,-3.1148,-3.1148,-3.1189,-3.1189,-3.1148,-3.0339,-2.8372,-2.5468,-2.5286,-2.4563,-2.3483,-2.2906,-2.2273,-0.4616,-0.4398,-0.4085,-0.2317,-0.1775,-0.1534,-0.1171,-0.1326,-0.1669,-0.2215,-0.2594,-0.3017,-0.3522,-0.3333,-0.2961,-0.2456,-0.2178,-0.1562,-0.0167,-0.0167,0.0056,0.1008,0.0561,-0.0336,-0.1671,-0.2828,-0.447,-0.673,-0.8829,-1.0356,-1.115,-1.2461,-1.3065,-1.2939,-1.3065,-1.2968,-1.2498,-1.1922,-1.2484,-1.4208,-1.5321,-1.6962,-1.8957,-2.0463,-2.141,-2.1935,-2.2123,-2.217,-2.217,-2.1983,-2.2387,-2.3114,-2.3348,-2.4088,-2.5023,-2.5079,-2.6021,-2.72,-2.6946,-2.7666,-2.8595,-2.7958,-2.7868,-2.7947,-2.7983,-2.9093,-3.0849,-3.2806,-3.4644,-3.6353,-3.777,-3.8238,-3.8561,-3.9129,-3.9634,-3.9692,-3.8739,-3.6967,-3.5447,-3.5219,-3.447,-3.384,-3.384,-3.4022,-3.4178,-3.4063,-3.3894,-3.3104,-3.1223,-3.0531,-2.9645,-2.8307,-2.7821,-2.7656,-2.7941,-2.8676,-2.9248,-2.9533,-3.0467,-3.1071,-3.136,-3.1381,-3.1251,-3.1121,-3.0791,-2.9758,-2.81,-2.6655,-2.5434,-2.4431,-2.3395,-2.2409,-0.5411,-0.5187,-0.4906,-0.325,-0.2674,-0.2382,-0.1872,-0.2121,-0.241,-0.2281,-0.2636,-0.3045,-0.3301,-0.3324,-0.3371,-0.345,-0.3209,-0.2646,-0.1504,-0.1562,-0.1229,-0.0056,-0.0448,-0.1064,-0.1734,-0.3164,-0.4743,-0.645,-0.8829,-1.0509,-1.115,-1.2264,-1.2968,-1.3113,-1.3113,-1.3135,-1.3092,-1.2707,-1.325,-1.483,-1.6104,-1.77,-1.9564,-2.0919,-2.1793,-2.2263,-2.2263,-2.2217,-2.217,-2.1983,-2.2249,-2.2782,-2.2893,-2.3548,-2.434,-2.4307,-2.5317,-2.6624,-2.6405,-2.7112,-2.8067,-2.7433,-2.743,-2.7709,-2.8219,-2.9794,-3.1903,-3.42,-3.594,-3.7342,-3.8515,-3.8856,-3.904,-3.987,-4.0158,-4.006,-3.945,-3.7929,-3.657,-3.6314,-3.5734,-3.5332,-3.5332,-3.5116,-3.4815,-3.4454,-3.3953,-3.2907,-3.0687,-3.0399,-2.9799,-2.8077,-2.8193,-2.8504,-2.8814,-2.9559,-3.0139,-3.045,-3.0921,-3.1395,-3.1816,-3.1614,-3.1543,-3.1554,-3.097,-3.0403,-2.9718,-2.7911,-2.6406,-2.5142,-2.4095,-2.2856,0.0,0.0,0.0,-0.3823,-0.3236,-0.2899,-0.2486,-0.28,-0.2962,-0.2242,-0.2486,-0.2887,-0.2892,-0.2596,-0.2773,-0.3966,-0.3636,-0.3222,-0.3274,-0.2845,-0.2178,-0.1229,-0.1679,-0.1958,-0.1902,-0.3819,-0.5558,-0.6558,-0.9141,-1.083,-1.125,-1.2314,-1.3162,-1.3573,-1.3621,-1.3836,-1.4305,-1.4762,-1.5511,-1.657,-1.7751,-1.9101,-2.0726,-2.1442,-2.203,-2.2431,-2.2431,-2.231,-2.217,-2.165,-2.1713,-2.2076,-2.104,-2.1652,-2.3046,-2.2731,-2.402,-2.5968,-2.6144,-2.7103,-2.8103,-2.7404,-2.7736,-2.8471,-2.8449,-3.0849,-3.3803,-3.5194,-3.7002,-3.8674,-3.9392,-3.9682,-3.996,-4.0652,-4.0511,-4.0216,-4.0033,-3.9116,-3.7947,-3.7127,-3.6972,-3.6972,-3.6972,-3.6267,-3.5575,-3.5061,-3.4262,-3.2846,-3.0554,-3.0606,-3.0086,-2.814,-2.8773,-2.9311,-2.9332,-3.0574,-3.136,-3.1381,-3.1984,-3.2363,-3.2727,-3.2153,-3.2105,-3.2901,-3.1188,-3.0212,-2.999,-2.8779,-2.7258,-2.5539,-2.482,-2.3657,-0.6441,0.0,0.0,0.0,0.0,0.0,-0.2192,-0.21,-0.2037,-0.1865,-0.196,-0.2159,-0.236,-0.2156,-0.2188,-0.2917,-0.3151,-0.3169,-0.2888,-0.3123,-0.3012,-0.2233,-0.2233,-0.2623,-0.3335,-0.4682,-0.6196,-0.787,-1.014,-1.1747,-1.2325,-1.3341,-1.381,-1.3621,-1.4003,-1.4329,-1.4422,-1.4971,-1.5383,-1.5747,-1.746,-1.8816,-1.98,-2.108,-2.196,-2.2431,-2.2523,-2.2431,-2.217,-2.203,-2.1856,-2.1659,-2.1763,-2.2115,-2.2554,-2.2603,-2.3586,-2.4945,-2.5012,-2.5627,-2.6463,-2.6637,-2.7162,-2.8053,-2.9402,-3.1545,-3.4044,-3.6888,-3.8433,-3.9434,-4.0221,-4.0939,-4.139,-4.1225,-4.1151,-4.1009,-4.0454,-3.9707,-3.8797,-3.8023,-3.7872,-3.7872,-3.7872,-3.7127,-3.6267,-3.5386,-3.4345,-3.3057,-3.1202,-3.0813,-3.0331,-2.9036,-2.9145,-2.9435,-2.9766,-3.047,-3.1029,-3.136,-3.1808,-3.2148,-3.2363,-3.2248,-3.2241,-3.2215,-3.1722,-3.1022,-3.0088,-2.773,-2.6272,-2.5418,-2.3938,-2.2734,-0.707,-0.6464,-0.5814,-0.4316,0.0,0.0,-0.2131,-0.2057,-0.1976,-0.163,-0.1583,-0.167,-0.1884,-0.1491,-0.1294,-0.1754,-0.2077,-0.2415,-0.2874,-0.3302,-0.3333,-0.2789,-0.3165,-0.3664,-0.4252,-0.5845,-0.7454,-0.9034,-1.1262,-1.2946,-1.3679,-1.4143,-1.4329,-1.4305,-1.4698,-1.4971,-1.5197,-1.5511,-1.5776,-1.602,-1.748,-1.8709,-1.9751,-2.074,-2.1563,-2.2217,-2.231,-2.2123,-2.1746,-2.1935,-2.1793,-2.1388,-2.1292,-2.1564,-2.1937,-2.1876,-2.2832,-2.4124,-2.4442,-2.5281,-2.6231,-2.6745,-2.7564,-2.8671,-3.0361,-3.2479,-3.4871,-3.7364,-3.8968,-3.9959,-4.0,-4.1023,-4.1759,-4.0855,-4.0959,-4.1127,-4.0378,-3.9636,-3.9017,-3.8723,-3.8723,-3.8723,-3.8723,-3.7947,-3.6972,-3.5842,-3.4944,-3.3792,-3.196,-3.1553,-3.1298,-3.0721,-3.0456,-3.0589,-3.1278,-3.1754,-3.2018,-3.206,-3.2306,-3.2455,-3.2342,-3.2018,-3.1892,-3.1979,-3.1421,-3.0352,-2.8737,-2.8604,-2.7916,-2.6559,-2.4163,-2.2793,-0.7545,-0.6725,-0.5882,-0.4557,-0.3681,0.0,-0.2185,-0.2296,-0.2299,-0.1554,-0.1361,-0.134,-0.1371,-0.0814,-0.0383,-0.053,-0.0597,-0.1242,-0.2948,-0.3316,-0.3387,-0.3271,-0.4167,-0.4891,-0.5091,-0.72,-0.9047,-1.03,-1.2589,-1.431,-1.5061,-1.4858,-1.488,-1.5311,-1.5445,-1.5756,-1.6244,-1.6287,-1.6479,-1.6888,-1.7687,-1.8806,-2.0144,-2.0425,-2.1074,-2.1983,-2.1935,-2.1602,-2.1042,-2.1458,-2.1506,-2.1166,-2.0093,-2.0357,-2.1244,-2.0815,-2.1872,-2.354,-2.431,-2.5434,-2.6699,-2.7262,-2.8546,-3.0058,-3.1273,-3.365,-3.6226,-3.7592,-3.9184,-4.0339,-3.9532,-4.0533,-4.148,-4.0164,-4.0446,-4.0789,-3.996,-3.9277,-3.8943,-3.9265,-3.9337,-3.9337,-3.9337,-3.8427,-3.7414,-3.6401,-3.576,-3.4658,-3.281,-3.2535,-3.2563,-3.2609,-3.2129,-3.2218,-3.317,-3.3752,-3.374,-3.3263,-3.3225,-3.3035,-3.2457,-3.1712,-3.1602,-3.2058,-3.0794,-2.9312,-2.7458,-3.0031,-3.0062,-2.763,-2.4864,-2.3463,-0.7797,-0.7203,-0.6542,-0.4904,-0.4021,0.0,-0.236,-0.211,-0.1931,-0.157,-0.1394,-0.1188,-0.083,-0.0653,-0.0337,0.034,0.0396,-0.0232,-0.2091,-0.2796,-0.3401,-0.4264,-0.5013,-0.5812,-0.6804,-0.8738,-1.0548,-1.2064,-1.4339,-1.5684,-1.5884,-1.5888,-1.5712,-1.5377,-1.5932,-1.6262,-1.6349,-1.6778,-1.6863,-1.6607,-1.7919,-1.8979,-1.9795,-2.0216,-2.1027,-2.1983,-2.167,-2.1334,-2.0993,-2.0746,-2.0523,-2.0194,-1.953,-1.9873,-2.0701,-2.0123,-2.1153,-2.2985,-2.4033,-2.5051,-2.6112,-2.7131,-2.9178,-3.129,-3.2072,-3.5001,-3.8362,-4.0283,-4.0655,-4.0637,-4.1108,-4.1499,-4.1585,-4.0889,-4.0872,-4.0653,-3.9277,-3.8914,-3.8797,-3.887,-3.8943,-3.8943,-3.8943,-3.7615,-3.6619,-3.6687,-3.5384,-3.4262,-3.376,-3.3672,-3.3575,-3.3116,-3.2932,-3.3161,-3.3775,-3.4257,-3.4635,-3.4926,-3.4252,-3.369,-3.3304,-3.2342,-3.1959,-3.2152,-3.149,-3.1376,-3.2124,-2.8106,-2.5612,-2.4849,-2.4218,-2.3676,-0.8213,-0.7619,-0.6946,-0.5776,-0.4846,0.0,0.0,-0.249,-0.2055,-0.1859,-0.1577,-0.1301,-0.1011,-0.0732,-0.0289,0.0561,0.0695,0.0089,-0.1692,-0.2159,-0.2954,-0.4749,-0.5799,-0.7019,-0.8533,-1.0382,-1.2446,-1.4946,-1.6517,-1.737,-1.7396,-1.7079,-1.6685,-1.6213,-1.6642,-1.6904,-1.6904,-1.7686,-1.7817,-1.7229,-1.8324,-1.9276,-2.0041,-1.9827,-2.0433,-2.167,-2.1188,-2.0795,-2.0396,-2.0169,-1.9885,-1.9551,-1.9227,-1.9616,-2.044,-2.0201,-2.162,-2.3653,-2.4275,-2.5665,-2.7379,-2.8183,-3.0087,-3.2196,-3.3111,-3.5615,-3.8321,-3.9884,-4.0138,-4.0053,-4.0312,-4.0808,-4.0913,-3.99,-3.991,-3.991,-3.8782,-3.8501,-3.8501,-3.8501,-3.8501,-3.8575,-3.8797,-3.8023,-3.7225,-3.6879,-3.6209,-3.5528,-3.4848,-3.4508,-3.4487,-3.4751,-3.4288,-3.4284,-3.516,-3.5641,-3.5968,-3.5874,-3.4984,-3.4405,-3.4097,-3.2779,-3.2176,-3.2461,-3.1458,-3.1503,-3.2365,-2.8015,-2.6145,-2.6628,-2.5248,-2.418,-0.8691,-0.8187,-0.7688,-0.6994,-0.6155,-0.5259,0.0,0.0,0.0,-0.2325,-0.1955,-0.1599,-0.1406,-0.1185,-0.083,-0.0256,-0.0379,-0.1078,-0.2586,-0.2947,-0.3742,-0.5564,-0.6867,-0.8452,-1.0522,-1.2454,-1.485,-1.787,-1.8514,-1.8855,-1.906,-1.8243,-1.7598,-1.7303,-1.754,-1.7696,-1.7708,-1.8753,-1.8995,-1.8455,-1.9128,-1.9826,-2.0512,-1.9798,-2.0129,-2.1237,-2.0795,-2.0321,-1.9811,-1.9706,-1.9492,-1.9102,-1.8783,-1.9422,-2.0465,-2.0804,-2.253,-2.4741,-2.5141,-2.6844,-2.8998,-2.9647,-3.143,-3.3514,-3.4788,-3.6229,-3.7626,-3.8618,-3.9008,-3.9127,-3.9257,-3.978,-4.003,-3.8951,-3.9045,-3.9182,-3.8384,-3.8202,-3.8202,-3.8202,-3.8289,-3.8423,-3.8649,-3.8514,-3.8122,-3.7289,-3.7229,-3.6875,-3.6065,-3.5491,-3.5475,-3.6263,-3.5667,-3.5524,-3.6508,-3.7036,-3.7171,-3.6812,-3.5713,-3.5,-3.5032,-3.3299,-3.2492,-3.291,-3.1747,-3.1392,-3.1707,-2.8838,-2.7932,-2.8723,-2.6234,-2.4645,-0.899,-0.9217,-0.9503,-0.8635,-0.8126,-0.7625,-0.6943,0.0,-0.3279,-0.3048,0.0,-0.2172,-0.1715,0.0,0.0,-0.333,-0.4318,-0.5392,-0.6286,-0.758,-0.83,-0.7901,-0.8674,-1.0338,-1.309,-1.5678,-1.7985,-1.9848,-1.9572,-1.9615,-2.0351,-1.9074,-1.8341,-1.8434,-1.8584,-1.8709,-1.8793,-1.9773,-2.0218,-2.0119,-2.0693,-2.1018,-2.1091,-2.1117,-2.0988,-2.0696,-2.0597,-2.0321,-1.9784,-1.9697,-1.9399,-1.8859,-1.7969,-1.9028,-2.1078,-2.1766,-2.3335,-2.5421,-2.7155,-2.8548,-2.9808,-3.0931,-3.3427,-3.6227,-3.7584,-3.7707,-3.7543,-3.8356,-3.8134,-3.8034,-3.9871,-3.9898,-3.9629,-4.0029,-3.9707,-3.9086,-3.8397,-3.8202,-3.8202,-3.8202,-3.8667,-3.8899,-3.8364,-3.8102,-3.8122,-3.8389,-3.7682,-3.7153,-3.7456,-3.6777,-3.6263,-3.6358,-3.6263,-3.6463,-3.7036,-3.7588,-3.8165,-3.8541,-3.6673,-3.5776,-3.6229,-3.4232,-3.3243,-3.334,-3.3214,-3.3107,-3.3165,-3.029,-2.846,-2.7286,-2.5846,-2.4645,-0.8829,-0.9173,-0.9653,-0.9181,-0.8599,-0.8014,-0.7597,-0.5924,-0.4366,-0.4134,0.0,0.0,0.0,0.0,0.0,0.0,-0.5502,-0.6629,-0.7379,-0.8673,-0.9583,-0.9545,-1.0768,-1.2758,-1.5833,-1.8181,-1.983,-2.0705,-2.1369,-2.1611,-2.1316,-2.0863,-2.0237,-1.9426,-2.0174,-2.0484,-2.0278,-2.1557,-2.1886,-2.1312,-2.1829,-2.181,-2.1187,-2.0988,-2.0795,-2.0573,-2.063,-2.0524,-2.0285,-1.9841,-2.0064,-2.0496,-1.939,-1.9964,-2.1643,-2.3214,-2.531,-2.7551,-2.8451,-2.9933,-3.1536,-3.2779,-3.4422,-3.6014,-3.6971,-3.7063,-3.6969,-3.7686,-3.7623,-3.7655,-3.8747,-3.8933,-3.8793,-3.9001,-3.8892,-3.8585,-3.8264,-3.8522,-3.8707,-3.8601,-3.9122,-3.9419,-3.9003,-3.9068,-3.9173,-3.9226,-3.8863,-3.8297,-3.7625,-3.7335,-3.6896,-3.6288,-3.6563,-3.6935,-3.7161,-3.799,-3.8492,-3.8616,-3.7893,-3.6838,-3.5488,-3.4977,-3.4346,-3.3418,-3.3418,-3.3418,-3.3418,-3.0549,-2.8854,-2.8196,-2.5831,-2.451,-0.8781,-0.922,-0.9818,-0.9767,-0.9208,-0.8619,-0.8486,-0.6959,-0.5497,-0.5229,-0.4964,0.0,0.0,0.0,-0.549,-0.6127,0.0,-0.8662,-0.9228,-1.0485,-1.1312,-1.1261,-1.3104,-1.5164,-1.7151,-1.9101,-2.0489,-2.1079,-2.2218,-2.2725,-2.2339,-2.2199,-2.1658,-2.0567,-2.1539,-2.1802,-2.1248,-2.2776,-2.295,-2.1974,-2.239,-2.2136,-2.124,-2.1086,-2.0882,-2.063,-2.1145,-2.1215,-2.0886,-2.0625,-2.1067,-2.1862,-2.1786,-2.2409,-2.3582,-2.5129,-2.7333,-2.9564,-3.0184,-3.1537,-3.3216,-3.4316,-3.5108,-3.5691,-3.6009,-3.6072,-3.6163,-3.6682,-3.6957,-3.7197,-3.7903,-3.8141,-3.8205,-3.824,-3.8204,-3.8121,-3.8243,-3.8688,-3.8986,-3.9003,-3.9549,-3.99,-3.9767,-3.998,-4.0124,-3.9926,-3.9929,-3.955,-3.8289,-3.7926,-3.7449,-3.6383,-3.6668,-3.6992,-3.6992,-3.8017,-3.8562,-3.8319,-3.8489,-3.7473,-3.4914,-3.5495,-3.5129,-3.3418,-3.3418,-3.3418,-3.3418,-3.0936,-2.9509,-2.8986,-2.595,-2.436,-0.8987,-0.9722,-1.0522,-1.0794,-1.049,-1.019,-1.0378,-0.8492,-0.662,-0.6144,-0.5803,-0.5553,-0.5544,-0.6368,-0.7712,-0.9793,-1.1515,0.0,0.0,-1.4373,-1.472,-1.3395,-1.5798,-1.7213,-1.6324,-1.7972,-1.965,-2.11,-2.1399,-2.2152,-2.3567,-2.2592,-2.1972,-2.1835,-2.2305,-2.2222,-2.1376,-2.2759,-2.3054,-2.2104,-2.2104,-2.1824,-2.1322,-2.1876,-2.164,-2.0772,-2.2432,-2.2457,-2.1543,-2.2514,-2.2482,-2.2193,-2.5012,-2.6739,-2.7601,-2.7825,-2.9186,-3.1043,-3.2559,-3.3615,-3.4442,-3.513,-3.5819,-3.6259,-3.5657,-3.5305,-3.5175,-3.5429,-3.5776,-3.647,-3.7969,-3.8236,-3.8198,-3.8822,-3.8264,-3.7767,-3.8367,-3.8539,-3.8739,-3.9367,-3.9967,-4.0396,-4.0396,-4.0396,-4.0396,-4.0424,-4.0686,-4.0631,-3.9991,-3.8845,-3.7767,-3.716,-3.6668,-3.6432,-3.6432,-3.7415,-3.8056,-3.7949,-3.8319,-3.7588,-3.5276,-3.5617,-3.5129,-3.3418,-3.3418,-3.3418,-3.3418,-3.1982,-3.0401,-2.8706,-2.5816,-2.436,-0.8326,-0.8878,-0.9613,-1.0008,-0.954,-0.9115,-0.9561,-0.8543,-0.7432,-0.7169,-0.7356,-0.7484,-0.7185,-0.799,-0.8926,-0.9729,-1.1265,-1.2378,0.0,-1.3193,-1.3722,-1.3047,-1.4881,-1.6289,-1.6567,-1.7752,-1.9101,-2.0451,-2.1123,-2.2005,-2.3155,-2.3267,-2.2984,-2.2446,-2.3257,-2.3473,-2.2942,-2.3274,-2.3105,-2.2487,-2.2487,-2.2056,-2.1351,-2.2377,-2.251,-2.1872,-2.3221,-2.3599,-2.325,-2.3454,-2.4381,-2.5798,-2.6805,-2.8879,-3.131,-3.126,-3.2255,-3.3623,-3.4368,-3.4581,-3.4413,-3.4647,-3.4905,-3.5037,-3.4773,-3.4706,-3.4815,-3.5594,-3.5933,-3.627,-3.739,-3.768,-3.7763,-3.7814,-3.7749,-3.7796,-3.8346,-3.8882,-3.9287,-3.9779,-4.0376,-4.0773,-4.0633,-4.0633,-4.0717,-4.0969,-4.1171,-4.0826,-3.9821,-3.8863,-3.7912,-3.6922,-3.6895,-3.7095,-3.7464,-3.8582,-3.9491,-3.9753,-3.977,-3.8804,-3.6686,-3.6738,-3.5725,-3.3418,-3.3418,-3.3418,-3.3418,-3.1726,-3.016,-2.8592,-2.6433,-2.4818,-0.7456,-0.8017,-0.8677,-0.8983,-0.8955,-0.8893,-0.9112,-0.8898,-0.8518,-0.8238,-0.8399,-0.8683,-0.8757,-0.9009,-0.9406,-1.0033,-1.1179,-1.1989,0.0,-1.2433,-1.2764,-1.2875,-1.4134,-1.5205,-1.5703,-1.6836,-1.8043,-1.9255,-2.037,-2.1502,-2.2643,-2.2733,-2.2667,-2.241,-2.2919,-2.2981,-2.2517,-2.2542,-2.2246,-2.1542,-2.1786,-2.1728,-2.1362,-2.2905,-2.3581,-2.3744,-2.466,-2.5046,-2.5053,-2.511,-2.6123,-2.7705,-2.8858,-3.1047,-3.3433,-3.3463,-3.4103,-3.5091,-3.507,-3.4765,-3.437,-3.4138,-3.4225,-3.4399,-3.4399,-3.4332,-3.4437,-3.5107,-3.5583,-3.6056,-3.6561,-3.713,-3.7471,-3.7289,-3.7459,-3.7877,-3.853,-3.9126,-3.9779,-4.0237,-4.0576,-4.0859,-4.0688,-4.0688,-4.0773,-4.1142,-4.1511,-4.1451,-4.0415,-3.9644,-3.8819,-3.7792,-3.7519,-3.7795,-3.8526,-3.931,-4.0134,-4.0668,-4.0491,-3.9429,-3.7407,-3.7309,-3.6178,-3.3652,-3.3369,-3.3243,-3.3525,-3.2206,-3.0763,-2.9321,-2.7677,-2.5948]}]]